GFSWCAN_850_spd_045.txt.gz
Wind_Speed
31 18 13 18 17 16 11 17 34 44 51 53 51 55 51 51 47 59 42 48 32 21 9 17 17 18 28 32 16 19 21 16 12 11 9 9 7 11 12 16 15 9 8 6 9 13 16 6 9 12 17 24 9 11
15 11 11 13 18 10 6 10 8 27 51 54 55 55 54 54 57 51 38 40 35 11 4 4 5 8 18 29 35 26 26 21 16 10 7 7 5 4 11 9 12 14 11 7 9 6 10 21 18 26 23 19 13 14
11 9 11 11 16 14 15 19 25 34 42 53 53 52 47 47 64 49 31 37 31 12 5 8 7 7 19 18 13 15 25 31 28 28 7 6 5 6 7 12 13 16 5 7 13 11 12 11 21 19 13 21 18 14
11 12 12 10 13 17 23 29 32 36 42 44 48 46 50 48 61 32 35 36 28 9 3 6 6 8 9 24 20 14 23 37 26 23 8 5 6 10 7 9 12 12 11 13 17 17 22 20 16 17 19 16 15 14
14 13 14 14 18 23 29 30 32 33 41 40 43 46 43 62 44 29 27 29 26 7 4 8 7 7 8 8 29 16 19 18 17 13 5 7 11 6 4 6 10 15 12 10 8 14 11 15 19 10 17 19 18 17
16 11 13 18 22 24 29 30 30 32 36 41 37 61 61 46 45 37 12 22 25 11 3 1 4 13 18 12 28 20 20 21 19 17 11 16 17 15 6 12 16 26 19 18 14 19 16 19 11 12 16 15 15 18
21 18 24 19 21 24 27 31 29 31 39 51 55 53 53 38 34 19 7 17 20 12 3 2 2 8 18 15 13 21 21 24 15 17 10 13 17 8 8 11 12 22 32 27 23 20 15 19 11 13 12 11 14 15
26 25 28 30 30 31 37 37 38 39 44 48 48 48 42 34 30 11 8 24 23 11 2 2 3 2 11 9 9 24 19 23 18 10 9 9 12 7 7 15 26 27 26 19 12 12 18 13 12 10 9 10 9 13
23 27 27 30 31 35 34 36 43 45 48 48 45 41 31 17 8 6 8 22 13 6 5 4 3 3 1 4 12 11 14 7 8 9 9 9 7 6 4 11 18 5 8 12 10 9 11 10 10 9 8 11 15 16
24 26 29 34 31 36 36 40 41 41 38 37 30 9 6 9 23 24 9 6 4 5 6 4 6 1 3 8 4 7 5 4 5 4 12 6 9 6 18 13 10 11 10 9 10 10 10 11 10 7 8 7 10 16
25 28 30 31 32 33 36 39 41 41 24 7 5 5 15 29 15 6 6 5 8 3 6 5 10 4 6 2 1 3 3 1 5 5 7 7 4 8 22 16 13 11 10 9 9 10 8 7 7 6 6 7 11 15
26 27 28 28 30 32 34 35 27 9 6 9 12 15 12 5 2 3 4 3 3 3 4 4 4 4 0 4 3 4 3 3 4 0 4 3 6 22 22 18 15 11 10 8 7 5 6 7 7 9 12 14 18 20
25 25 26 27 28 29 31 19 15 17 18 15 6 3 0 2 2 1 4 3 3 3 3 2 2 2 4 7 1 1 1 2 1 3 3 5 17 20 19 15 11 9 6 6 7 7 7 9 11 9 14 15 18 21
26 25 24 23 21 21 21 13 6 12 5 5 4 4 4 4 6 5 5 4 6 6 9 3 4 1 3 2 2 2 2 2 3 3 5 8 23 18 15 13 13 15 15 15 15 14 16 18 21 20 21 20 22 25
28 26 23 20 16 17 13 2 3 6 8 8 8 5 5 6 9 9 9 5 5 6 2 2 5 5 4 3 4 1 3 5 7 4 6 20 16 16 17 17 18 20 22 23 23 25 26 28 29 28 26 27 29 29
23 15 12 13 11 12 10 12 8 11 6 6 9 6 15 3 8 13 12 10 9 7 2 5 3 3 5 4 5 7 3 5 4 5 14 17 17 18 20 22 23 24 26 28 29 29 30 32 33 33 30 27 26 24
16 10 10 6 8 12 11 11 10 9 7 5 5 16 11 6 10 14 14 13 12 6 3 3 5 7 3 4 4 5 4 4 9 11 14 18 19 22 25 28 28 28 30 32 32 31 30 28 27 28 30 26 23 22
11 15 13 13 9 15 28 14 8 7 7 10 4 11 13 14 16 15 14 20 8 5 5 4 5 6 5 4 4 4 7 11 12 13 17 20 22 24 27 29 28 29 29 29 30 28 27 26 27 25 23 21 21 18
18 17 13 8 7 8 6 8 8 6 8 5 17 13 8 13 21 19 16 14 19 13 7 7 7 5 5 6 8 9 11 11 12 14 18 21 23 23 25 26 26 28 28 27 27 27 26 25 23 21 19 18 18 16
16 15 10 11 11 6 6 6 6 7 4 5 5 17 23 23 22 27 28 22 16 9 10 6 5 11 12 11 10 9 10 10 11 15 18 19 20 23 24 22 21 21 22 22 23 20 19 20 20 18 16 15 14 13
20 12 13 19 20 11 7 4 6 6 6 6 5 11 14 17 31 29 30 27 25 10 8 15 17 16 16 16 16 15 16 16 18 16 15 17 17 18 19 20 20 20 20 19 19 19 19 18 15 14 13 13 11 11
22 20 18 13 8 6 7 9 6 5 5 5 6 8 8 12 16 19 23 20 14 21 17 16 16 16 19 20 20 19 19 20 19 19 18 16 17 17 18 17 17 19 18 17 16 16 15 14 12 12 11 11 11 10
16 9 5 5 6 6 4 5 5 5 3 3 5 4 5 6 8 8 7 11 11 15 14 16 17 17 19 18 19 19 17 16 17 17 16 16 16 15 16 16 16 15 15 14 13 12 11 11 11 11 10 10 9 9
6 5 5 5 6 5 4 4 4 4 5 4 3 4 4 6 6 7 5 6 8 9 10 10 10 12 13 14 15 15 14 13 14 14 13 12 13 13 13 13 12 12 11 9 9 9 9 9 10 9 9 9 9 9
4 8 5 7 5 4 4 3 3 3 4 4 3 4 3 3 3 3 3 4 6 8 8 9 10 10 12 12 12 12 12 10 10 12 12 10 9 8 8 8 10 11 9 8 9 9 8 8 9 9 9 10 11 11
7 10 6 4 3 3 3 3 3 4 3 3 4 3 2 3 3 4 3 6 6 6 7 7 7 8 9 8 8 8 8 8 7 10 10 10 9 8 7 6 6 8 10 9 8 8 9 9 10 10 10 10 11 10
5 6 7 6 6 8 7 9 8 5 4 3 3 2 2 3 3 3 7 5 5 6 6 8 8 8 8 8 8 8 8 7 7 6 6 7 7 7 6 6 6 7 8 8 8 8 8 9 9 9 9 8 9 9
6 7 5 6 9 10 4 4 4 4 3 4 2 4 3 3 3 4 6 7 8 8 8 8 9 8 8 7 6 5 4 4 5 8 7 8 8 8 7 7 6 6 7 7 7 7 7 7 7 7 8 8 9 9
7 5 7 8 8 9 10 6 4 5 5 3 2 3 3 5 6 10 10 9 8 7 6 6 6 6 6 5 4 3 4 4 2 3 3 2 3 6 8 7 7 8 7 7 7 7 7 7 7 7 8 8 8 8
5 4 6 8 6 6 8 8 9 9 10 9 9 14 14 10 7 10 7 6 5 5 5 5 6 4 3 2 1 4 5 5 4 2 1 1 3 6 6 7 7 8 7 6 6 7 8 8 8 8 8 9 8 11
5 6 8 8 7 10 11 12 14 12 11 13 13 13 11 7 5 6 6 6 5 4 4 4 4 3 1 0 0 2 3 6 5 5 4 5 5 5 6 8 8 8 7 7 8 7 8 8 7 8 8 11 12 13
7 7 7 5 6 5 4 4 4 5 5 6 5 5 5 5 4 4 7 5 4 4 6 4 3 2 3 3 4 4 5 6 6 6 6 6 6 7 9 10 10 9 9 9 9 9 10 10 11 11 12 12 14 14
14 15 13 8 5 4 3 4 3 4 4 3 3 3 3 2 3 4 8 9 9 6 5 5 4 4 3 4 5 6 6 6 7 7 7 7 8 9 9 10 10 11 11 11 11 11 12 12 13 14 15 16 16 17

GFSWCAN_850_spd_048.txt.gz
Wind_Speed
34 28 23 23 25 28 32 32 34 36 42 51 48 51 52 52 50 51 37 46 37 13 16 16 11 10 23 27 14 16 17 15 7 8 8 6 7 11 13 10 10 7 7 6 6 6 13 1 10 18 9 22 15 18
19 19 19 19 19 24 19 26 28 30 41 50 45 47 48 51 49 49 36 39 42 24 5 7 14 15 18 24 22 23 23 12 11 7 7 6 4 6 11 10 13 7 9 4 7 3 14 21 18 14 14 11 17 15
15 15 13 14 16 14 9 11 13 19 40 41 40 42 46 49 47 48 41 39 17 18 11 8 7 12 20 21 17 16 24 25 19 15 7 3 4 4 2 8 9 6 18 9 5 14 18 17 19 18 17 17 16 16
11 13 12 11 11 16 6 2 6 32 41 39 42 43 46 47 42 41 38 40 25 8 4 2 14 14 14 17 14 15 14 10 23 27 13 4 5 8 7 7 8 7 7 13 11 14 21 27 23 28 11 10 12 14
8 11 11 15 15 14 19 16 22 38 45 43 38 46 46 41 38 30 32 44 26 6 4 4 11 11 7 12 11 12 8 13 15 4 3 5 4 8 4 6 7 11 13 9 4 9 11 7 7 19 11 19 23 14
9 10 13 11 12 14 20 28 31 40 42 43 45 45 47 43 41 35 11 25 26 14 6 5 10 12 11 9 13 14 20 7 13 8 7 8 23 10 3 6 9 20 22 20 9 11 9 13 19 15 16 19 18 15
15 11 15 14 19 24 30 32 34 39 43 43 44 45 46 40 33 14 7 22 28 14 3 2 2 11 19 12 7 8 20 19 9 7 6 13 12 10 4 7 10 18 24 27 26 17 16 20 11 14 14 16 12 13
15 20 16 16 22 25 27 31 36 39 41 42 43 49 40 29 26 18 15 26 24 8 4 2 0 3 13 9 5 11 14 16 10 6 8 7 8 4 8 11 20 24 25 21 8 6 6 10 11 13 15 13 12 13
18 22 21 28 30 26 30 33 42 58 55 51 47 40 33 25 11 16 25 23 13 2 2 3 2 3 0 4 7 7 11 4 6 4 2 4 3 2 8 17 22 17 12 14 14 10 9 10 11 9 12 10 8 7
24 25 24 28 28 36 51 53 47 45 41 39 34 12 6 12 24 24 10 3 2 5 4 2 6 2 1 5 2 1 4 1 3 5 5 2 3 8 21 19 18 20 18 14 13 13 14 11 10 7 6 3 2 5
27 31 35 33 31 33 34 35 36 33 22 8 4 7 30 27 10 4 4 3 3 2 6 5 7 5 4 1 1 4 3 2 4 5 7 5 4 9 21 19 15 14 15 13 11 10 9 8 6 3 4 5 7 11
25 25 25 28 34 36 30 19 13 13 7 8 14 19 18 5 4 3 3 3 4 3 4 4 5 6 6 7 2 4 3 2 4 3 3 3 6 18 17 17 16 13 10 9 8 9 9 9 8 8 8 7 9 13
25 27 30 35 32 21 14 16 17 24 24 16 5 3 1 3 3 1 5 3 2 5 7 1 3 5 5 5 2 4 8 3 2 3 4 4 18 18 16 14 16 16 14 14 16 15 14 15 14 15 16 14 15 18
24 23 23 25 18 15 19 12 14 9 7 5 5 5 5 5 5 5 5 4 4 6 13 7 4 1 5 5 3 3 3 2 3 4 5 8 17 16 15 16 19 23 24 26 26 24 25 26 26 24 22 20 21 24
24 24 21 17 13 13 11 11 10 8 8 8 7 6 6 6 8 9 11 7 10 10 8 1 2 2 3 3 5 2 4 6 7 4 4 16 17 17 19 21 24 25 27 29 29 31 32 31 31 30 26 26 26 27
18 20 20 17 15 13 14 7 8 10 7 7 9 5 13 6 8 13 12 8 11 12 4 4 3 3 7 4 6 8 4 6 4 4 11 14 21 22 23 26 28 29 31 33 35 35 35 35 35 34 31 31 30 29
10 9 19 21 19 15 9 8 10 10 8 6 6 14 10 5 9 11 10 12 11 7 3 4 6 7 3 4 4 5 4 5 11 11 14 17 21 23 25 28 31 32 33 33 33 33 33 31 30 30 31 27 26 25
10 12 9 8 8 15 27 13 8 8 7 8 4 11 9 11 14 11 11 16 6 5 5 4 5 7 5 4 3 3 11 16 17 19 21 21 22 24 26 28 28 29 30 30 30 30 30 29 29 27 24 23 22 20
13 12 4 8 10 6 6 7 8 6 4 6 12 14 14 17 25 21 16 20 22 16 8 6 6 4 4 6 9 15 16 15 17 19 21 22 23 23 23 24 26 28 28 26 26 27 25 25 24 21 18 18 22 19
10 7 3 0 3 6 6 6 6 8 4 6 11 21 24 22 23 33 32 21 17 9 9 6 5 11 9 12 12 15 16 15 16 18 19 19 19 21 22 21 21 20 21 21 22 20 20 21 20 17 15 16 15 13
8 12 13 16 17 12 7 5 7 6 7 6 8 14 13 24 32 34 28 32 27 8 7 14 17 19 18 18 16 15 19 19 18 17 16 17 18 18 19 20 19 19 19 19 19 19 19 19 15 14 14 14 11 13
13 12 12 11 7 6 8 12 7 7 6 8 11 11 7 12 15 18 25 20 14 21 20 18 17 17 21 21 20 21 20 20 20 19 18 16 17 18 18 17 16 18 18 17 15 15 15 14 12 11 11 11 10 13
11 7 6 7 6 6 4 6 5 5 3 3 4 4 5 6 7 9 7 13 13 16 16 18 19 19 20 20 21 20 18 17 18 16 16 16 15 15 14 15 14 14 14 13 11 11 12 11 12 10 9 9 9 9
5 5 6 5 7 5 4 5 5 4 5 4 3 4 4 5 6 7 5 7 10 10 12 10 11 14 14 16 17 16 14 13 14 16 13 11 11 12 12 12 12 13 11 10 10 9 9 10 10 10 11 11 10 10
5 8 5 7 5 4 4 3 3 4 4 5 3 4 3 5 3 4 3 5 8 9 10 11 12 12 13 13 12 13 13 11 11 12 12 10 8 7 8 11 12 11 9 8 9 9 9 9 9 9 9 10 9 8
6 10 6 4 4 4 3 3 3 4 3 4 5 3 3 3 4 4 3 8 9 8 9 9 8 9 11 9 8 7 8 8 7 9 9 8 7 7 5 4 4 8 9 8 6 6 7 7 8 7 6 8 10 7
5 5 7 6 5 7 7 9 9 6 5 4 3 2 2 3 4 3 7 8 8 7 8 9 9 9 8 8 7 7 7 6 6 6 5 7 7 6 5 4 3 5 6 5 5 5 6 6 7 7 7 6 8 8
7 6 6 7 11 13 5 4 4 4 3 5 3 4 3 4 3 4 6 7 8 8 8 9 11 10 10 8 6 5 7 8 10 10 11 12 13 11 8 7 8 6 6 7 7 6 6 5 6 6 7 8 9 9
6 6 8 8 8 10 11 6 4 5 6 5 2 3 4 5 6 11 11 10 8 7 7 6 7 7 6 5 4 4 5 3 4 4 4 3 3 10 9 7 6 7 6 5 7 8 8 8 8 8 9 9 8 9
4 5 7 9 5 5 8 9 11 9 9 10 13 19 18 13 12 9 9 8 7 7 6 6 7 3 4 2 4 7 5 5 3 1 1 1 5 8 7 7 7 8 7 7 7 8 8 10 8 9 11 11 10 12
6 6 7 8 6 10 13 15 17 17 17 17 13 14 13 8 7 8 6 6 5 5 5 5 4 3 2 1 1 1 6 8 6 5 5 5 6 6 7 9 9 9 8 8 9 9 10 10 9 9 9 12 14 14
7 6 7 5 6 8 5 4 6 10 9 11 9 7 7 6 4 2 4 5 5 4 6 4 1 5 4 4 3 3 4 6 7 7 7 6 6 8 10 10 10 9 10 10 10 10 10 12 12 12 13 13 15 18
17 16 15 9 6 5 3 5 4 4 5 4 4 4 4 4 4 4 7 11 9 7 5 7 7 5 3 3 5 6 7 7 7 8 8 8 8 9 10 10 10 11 12 12 11 11 11 12 13 15 17 17 17 18

GFSWCAN_850_spd_051.txt.gz
Wind_Speed
33 34 29 26 25 26 29 32 32 34 35 42 47 48 49 48 49 46 31 35 43 6 15 27 14 12 22 22 9 4 8 12 3 8 4 4 4 10 6 7 7 8 5 3 4 3 7 9 6 11 4 22 31 28
30 20 20 21 21 24 26 30 34 35 40 38 36 42 49 50 47 46 30 27 34 22 6 22 25 20 24 18 17 13 6 4 10 3 2 1 2 4 7 3 17 12 6 6 8 7 7 14 5 16 12 11 5 8
18 16 19 19 19 19 24 22 24 23 36 37 37 38 41 46 50 48 32 27 31 21 14 12 15 25 22 23 18 4 10 16 12 14 4 2 5 4 6 10 5 5 5 5 4 5 11 25 27 25 22 25 20 13
13 14 13 14 13 16 17 13 16 18 26 36 39 38 41 42 47 47 37 31 32 12 3 4 11 20 19 13 23 11 18 18 8 21 4 4 1 4 4 5 5 6 9 7 3 5 4 12 20 14 24 26 18 25
11 13 10 12 15 21 19 11 19 17 18 32 41 40 40 42 47 47 39 36 29 14 4 8 11 14 14 15 19 16 19 19 2 2 2 2 4 2 3 1 5 4 6 5 5 10 11 17 18 17 15 21 22 30
12 12 16 18 15 18 22 30 35 33 35 37 36 38 38 45 49 39 12 35 16 7 4 2 7 14 14 13 15 18 14 8 4 4 3 5 8 11 2 3 5 16 14 10 4 8 5 1 3 4 8 14 19 19
11 12 14 20 26 25 29 33 37 35 35 37 35 42 45 49 42 19 10 19 28 9 2 3 2 9 11 10 10 8 11 7 5 4 5 2 9 14 3 1 15 25 24 17 17 10 4 6 2 3 4 7 10 14
14 14 18 21 24 30 31 34 34 37 44 45 45 44 39 31 24 20 22 30 17 5 4 3 1 4 13 5 2 6 6 11 6 4 2 3 4 4 3 11 23 29 22 21 22 14 6 5 6 6 7 11 12 12
23 20 18 25 28 31 34 37 41 44 45 46 42 39 32 21 9 20 24 19 11 7 2 2 3 3 3 3 6 6 9 2 10 4 3 3 1 4 9 16 18 20 19 21 14 15 13 13 12 8 9 8 8 7
22 22 25 26 31 32 38 38 40 43 41 37 24 8 7 16 32 28 9 5 3 2 2 2 5 2 3 3 2 2 5 3 2 4 12 3 3 8 17 17 15 16 16 17 16 21 18 16 13 11 12 10 8 9
29 38 38 39 44 47 44 41 38 35 31 13 7 8 26 22 7 4 4 3 2 1 3 3 4 3 2 3 2 2 1 1 2 3 5 2 3 10 21 16 14 11 9 9 7 7 9 8 8 9 11 11 9 8
23 31 33 32 29 27 26 12 19 21 3 6 17 16 11 3 3 4 3 2 1 1 3 1 3 6 4 3 3 1 0 1 2 5 4 3 4 15 15 16 16 13 11 11 10 10 9 9 10 10 12 13 12 13
28 31 28 20 18 18 16 16 23 29 21 10 6 4 2 5 5 4 2 2 2 4 8 5 2 4 3 2 1 2 1 1 3 4 4 3 12 14 14 14 16 16 17 17 18 18 18 19 18 18 20 19 18 19
24 19 16 16 13 14 14 11 10 9 6 6 5 5 4 5 4 4 4 3 5 6 11 7 3 2 2 2 1 2 3 3 4 4 3 5 16 18 19 17 20 24 25 26 27 26 28 28 29 28 27 26 27 29
18 13 13 14 16 14 11 10 8 5 8 8 8 6 5 6 11 10 10 7 8 10 7 1 4 4 3 3 4 3 4 5 6 3 2 12 19 22 23 23 24 26 29 31 31 33 34 34 34 34 32 32 32 32
18 19 20 16 13 9 9 7 11 12 7 7 10 5 13 4 5 10 10 7 10 12 3 5 3 3 4 3 5 6 4 3 2 3 12 17 21 23 25 27 30 31 33 34 34 35 34 34 35 34 33 32 31 29
13 16 14 18 21 11 5 9 11 11 8 6 4 17 11 3 6 11 11 15 12 6 3 3 5 4 3 4 4 4 3 4 11 16 20 22 24 26 26 28 30 32 33 34 35 35 34 32 31 31 32 28 26 25
10 8 12 11 5 19 27 13 9 9 8 9 4 16 15 15 16 12 15 13 5 5 5 4 5 7 4 3 3 4 12 20 24 22 22 22 24 25 27 28 27 27 29 29 29 29 29 29 29 27 25 21 21 21
5 3 6 9 14 7 7 9 9 6 7 6 17 18 15 19 27 21 19 18 21 15 10 6 5 3 3 6 11 16 17 18 20 24 26 24 24 23 23 23 24 26 26 26 26 26 25 23 22 21 21 18 20 17
1 1 4 7 8 6 7 6 8 9 3 9 16 23 26 20 22 31 31 23 20 10 9 5 5 12 14 21 21 22 23 22 21 23 23 21 20 20 21 21 21 20 20 20 21 20 20 20 19 17 14 13 14 16
2 9 12 19 21 12 8 6 7 7 11 8 16 13 14 26 35 34 31 31 25 9 6 15 23 26 22 22 25 25 24 21 23 23 22 22 18 19 19 18 17 18 19 19 19 18 17 18 14 13 13 13 10 8
8 6 7 9 7 7 9 11 8 9 7 12 12 8 6 8 12 19 26 21 14 21 19 23 24 26 28 26 24 23 21 21 20 20 18 17 19 19 19 17 17 18 17 16 15 14 14 10 9 8 10 11 9 7
2 5 6 7 6 6 3 5 4 4 4 3 4 4 5 5 8 10 8 13 12 20 22 23 24 24 25 24 23 21 18 19 20 17 15 14 14 13 13 13 13 13 13 11 8 9 9 7 8 7 5 5 5 6
5 5 6 6 7 4 4 4 4 4 5 3 3 3 3 4 7 7 4 5 13 14 13 15 15 16 18 20 22 18 15 15 19 18 12 11 12 13 11 10 7 8 8 5 6 5 6 6 6 8 10 5 6 5
4 9 6 5 5 5 4 3 4 4 4 4 4 3 2 4 3 3 2 4 11 14 14 13 15 15 18 17 15 14 9 6 10 12 13 13 9 6 7 8 9 7 5 5 7 7 6 7 5 6 8 9 4 5
7 11 5 4 4 4 2 3 3 3 3 3 3 3 4 3 4 4 3 11 10 11 11 9 10 14 13 8 8 9 11 5 5 8 8 5 4 5 5 2 4 5 4 3 3 2 3 5 5 4 4 7 8 6
5 4 6 8 5 6 6 9 9 6 5 4 2 3 3 4 3 3 10 8 11 8 10 12 7 7 8 7 8 10 7 4 5 8 9 9 7 5 1 1 2 3 4 3 2 2 2 1 2 3 5 6 8 8
7 8 5 8 10 16 4 4 5 5 3 6 4 5 3 3 2 4 8 10 10 9 9 8 7 6 7 8 6 5 5 6 8 8 7 8 10 12 12 8 7 6 4 4 4 4 4 5 6 7 7 8 7 6
6 6 8 7 8 10 11 5 4 5 8 5 3 3 3 4 10 14 10 8 7 6 6 7 7 6 5 4 4 3 2 3 5 5 3 1 5 9 11 8 7 6 4 4 4 7 7 6 7 5 7 9 9 10
5 5 7 9 5 5 9 9 12 14 12 12 12 24 23 18 13 11 11 9 8 6 6 7 6 4 4 3 5 4 4 4 2 1 3 4 6 7 8 7 9 8 7 7 6 6 7 7 6 7 7 9 13 16
6 6 8 8 6 10 21 21 22 21 20 17 12 19 13 10 11 10 9 7 5 3 5 7 6 6 6 3 4 6 5 4 5 4 3 4 4 6 8 9 10 10 8 8 9 9 10 10 10 11 10 11 13 16
7 6 7 5 5 12 12 2 9 12 10 8 7 12 10 5 4 4 7 9 6 5 4 2 4 2 2 4 4 4 5 6 5 5 4 5 6 7 9 9 10 10 10 10 11 11 11 11 12 13 15 16 17 18
20 22 19 11 7 8 7 6 4 5 5 4 4 4 3 4 4 5 11 9 7 9 7 7 5 5 4 3 4 5 4 5 6 7 6 6 7 8 9 9 9 9 10 10 11 11 11 12 13 14 17 19 20 20

GFSWCAN_850_spd_054.txt.gz
Wind_Speed
29 32 32 31 30 28 28 30 31 34 37 39 41 42 41 43 42 40 24 25 37 11 8 22 26 17 23 29 8 7 6 9 2 7 4 4 4 6 3 5 7 5 3 3 5 5 7 2 6 4 2 12 11 14
29 30 32 22 22 26 27 28 30 30 33 35 36 41 45 43 42 38 17 25 31 16 8 3 21 21 38 38 34 18 9 8 13 3 4 2 2 1 6 6 3 5 7 5 6 5 11 6 4 2 7 6 10 14
25 19 14 19 21 22 25 26 27 27 32 35 35 37 43 46 42 43 30 21 26 13 16 23 23 21 21 28 37 15 14 11 5 8 5 3 3 4 3 5 7 5 9 4 6 14 18 22 11 5 7 5 14 15
17 14 16 18 22 25 24 26 28 29 29 36 39 37 38 50 45 46 37 31 29 11 2 7 26 28 26 26 20 24 16 15 11 7 3 3 3 5 3 3 4 5 7 11 7 6 6 14 18 10 12 22 19 16
13 14 16 18 16 21 25 27 22 20 21 29 35 37 35 39 48 44 32 33 27 17 6 4 13 19 30 21 17 20 22 12 11 4 1 3 3 2 2 3 2 7 5 4 6 12 9 13 24 25 19 12 18 14
11 11 20 17 16 20 17 17 19 19 23 31 35 32 37 45 49 39 15 28 28 25 1 3 5 16 23 23 18 16 20 17 11 6 3 3 3 5 2 5 1 13 17 23 6 15 12 5 2 4 11 11 11 9
14 13 17 19 20 21 25 27 22 21 34 34 35 32 41 42 47 28 12 15 37 22 4 3 3 14 20 17 11 7 9 6 8 9 6 5 4 6 3 4 15 17 18 20 23 14 7 20 10 8 3 1 1 6
17 18 20 21 22 23 28 29 32 38 41 36 37 37 40 45 40 8 9 20 31 26 7 3 1 5 12 6 4 8 6 11 6 5 4 3 1 4 1 11 17 16 16 11 18 15 12 8 6 8 9 8 4 5
17 22 25 26 30 33 35 35 38 39 39 39 40 47 39 27 17 14 17 17 23 3 0 3 3 2 6 4 4 5 5 2 4 2 2 4 3 5 7 14 16 16 14 15 10 11 15 14 12 10 7 8 9 10
22 26 28 32 32 32 36 40 45 44 44 38 24 7 8 16 38 29 11 6 9 5 1 2 4 2 4 2 2 3 1 2 3 5 8 3 3 5 13 12 13 15 12 13 13 16 19 16 13 13 12 11 11 12
28 28 30 31 32 35 35 34 31 27 13 9 7 7 22 24 8 4 4 3 1 3 3 3 4 3 2 3 2 5 2 3 4 3 4 3 2 5 15 15 15 10 9 7 6 5 5 4 5 7 10 11 11 10
33 30 26 27 26 23 24 19 10 8 11 13 21 21 7 4 4 5 3 2 4 2 4 2 3 5 4 2 3 3 2 1 3 3 4 3 3 12 14 13 14 12 10 10 9 10 11 9 11 12 13 14 15 16
21 19 18 18 20 18 18 15 19 26 19 9 6 5 6 8 9 5 3 3 3 4 9 7 3 4 3 4 2 1 2 1 4 4 3 3 10 11 11 11 13 14 16 17 19 18 17 18 19 20 20 20 20 23
16 16 18 13 16 18 21 14 7 8 5 8 6 7 4 4 4 3 1 2 4 6 10 6 3 2 3 3 1 3 3 4 4 4 3 3 12 14 15 15 18 21 23 26 26 26 28 30 30 29 28 27 29 30
10 11 12 15 10 10 7 4 5 2 8 8 7 5 5 5 8 7 10 4 8 10 6 2 5 5 4 3 4 3 4 4 4 2 2 8 16 19 20 20 23 27 27 28 29 32 32 32 33 33 32 32 33 32
14 17 18 13 6 8 8 7 7 11 7 7 10 5 12 3 6 10 12 9 12 10 3 4 3 3 4 3 5 5 3 3 2 2 10 16 19 20 22 24 26 27 29 31 32 32 31 31 32 31 29 29 29 28
11 15 13 14 12 6 3 9 10 10 8 6 5 19 9 5 6 10 13 16 10 6 2 3 5 5 3 3 3 4 3 4 11 15 20 21 22 22 23 25 26 27 29 30 30 29 29 27 26 27 28 25 24 24
7 10 14 8 2 15 30 14 9 9 8 10 4 14 17 15 14 14 16 15 5 4 5 4 5 6 4 3 3 3 12 21 21 23 23 21 22 22 23 24 24 24 25 24 23 22 22 22 24 24 21 19 19 18
5 7 10 9 11 7 7 9 8 7 10 6 13 13 15 17 23 18 15 19 23 17 9 6 5 3 3 7 13 16 19 21 24 25 23 20 19 19 19 19 19 20 21 21 20 21 20 19 18 16 15 14 17 15
1 6 11 9 7 6 7 7 8 11 4 9 14 22 20 15 20 26 25 21 20 10 9 5 4 6 9 19 23 25 23 23 24 24 20 17 15 15 16 16 16 16 16 16 17 16 16 16 15 13 11 11 11 13
14 10 13 20 22 14 8 6 7 9 11 8 16 15 16 27 33 32 28 22 19 8 5 13 20 24 24 24 22 21 20 18 19 20 20 18 15 16 16 15 14 14 14 14 14 14 12 13 11 10 8 9 9 8
7 6 7 9 8 8 10 12 11 12 8 12 7 6 6 7 13 19 24 19 11 16 12 20 21 23 23 21 20 18 18 18 17 18 17 15 17 16 15 12 10 13 13 12 10 11 11 10 6 5 6 8 7 8
4 5 6 7 7 6 4 4 4 3 4 2 4 4 4 5 6 8 8 11 12 19 21 23 24 24 24 20 19 17 15 16 16 14 14 14 13 11 9 9 8 9 10 10 7 6 8 8 7 4 3 4 5 6
6 5 6 6 8 2 4 5 5 5 5 4 3 3 3 5 7 8 4 6 12 14 14 14 16 20 20 18 19 16 12 10 15 16 12 10 11 11 7 7 6 6 7 5 4 4 3 5 6 6 4 3 4 5
4 9 6 6 6 5 5 4 4 4 4 4 4 3 2 5 3 3 2 3 13 13 10 11 12 12 16 15 13 11 9 4 6 9 8 4 4 5 5 6 4 3 3 2 4 5 4 4 5 5 6 5 4 3
7 11 5 3 4 4 1 3 3 3 3 3 2 3 4 3 4 3 2 12 13 12 11 6 7 9 9 6 6 6 9 7 3 2 5 2 2 4 4 3 3 1 0 2 3 4 4 3 4 5 6 6 6 5
5 5 7 8 4 7 6 10 9 6 4 3 1 3 4 4 2 2 9 10 10 8 9 6 1 1 6 7 7 5 4 3 2 4 6 4 3 2 3 4 3 1 1 2 2 2 3 4 5 5 6 7 7 6
6 7 5 9 11 13 4 4 4 3 2 4 4 5 4 4 2 5 7 9 7 8 6 4 3 3 5 6 5 3 1 0 2 2 2 3 5 7 7 5 3 1 1 2 2 1 2 3 3 4 4 4 5 7
7 5 8 7 9 9 9 3 3 3 3 2 4 2 4 4 8 13 13 8 7 7 7 6 6 4 2 1 1 1 2 3 4 4 4 4 5 7 9 8 7 6 5 5 5 4 4 4 5 6 7 7 7 9
5 5 7 7 5 5 10 8 9 9 11 13 14 24 24 21 15 12 10 7 6 6 7 8 7 5 5 2 2 1 1 3 5 6 7 7 7 7 6 7 7 7 7 5 5 6 7 7 7 8 10 12 12 13
6 6 8 8 6 14 22 23 23 23 23 20 19 24 16 12 14 11 10 7 2 1 3 5 5 3 4 5 5 4 4 3 4 3 4 5 5 5 6 8 9 8 7 6 6 7 8 9 9 9 9 10 11 13
6 6 7 5 5 17 7 10 13 13 10 10 8 10 10 5 4 7 7 7 7 5 3 3 2 2 3 5 5 4 4 4 3 4 5 5 5 6 7 8 7 7 7 8 8 8 9 10 11 12 12 14 15 16
22 27 20 11 6 8 5 6 5 5 4 3 4 4 3 3 4 5 11 10 7 4 3 4 5 6 5 4 4 4 4 3 4 5 4 5 5 6 7 7 7 7 7 8 9 9 10 11 12 13 14 16 17 17

GFSWCAN_850_spd_057.txt.gz
Wind_Speed
30 32 31 32 32 32 31 32 33 33 33 33 35 35 34 34 34 34 32 31 41 12 9 18 31 15 19 24 5 8 5 4 3 5 3 3 3 5 5 4 5 6 5 4 4 4 8 7 9 4 15 13 8 8
30 31 28 27 29 33 32 28 27 29 32 36 37 36 36 37 36 34 23 34 25 16 8 24 27 27 33 36 30 17 10 7 11 4 3 1 2 1 4 3 2 2 5 5 7 6 7 4 3 12 32 38 12 8
27 21 20 20 23 24 27 28 29 29 30 32 33 37 39 38 38 38 30 29 26 8 10 13 24 31 25 24 32 16 16 17 7 8 4 3 5 3 3 5 4 2 4 5 2 7 15 23 30 31 41 39 16 9
19 16 19 19 25 24 27 30 29 27 30 31 31 32 34 37 41 40 40 31 30 7 3 5 26 22 22 26 27 30 23 23 16 11 3 2 2 4 4 4 4 5 5 3 7 7 16 26 31 38 35 32 29 16
14 17 19 24 17 18 21 27 33 30 27 32 30 31 34 34 42 41 38 34 34 8 5 4 7 16 20 28 21 21 30 26 16 3 2 2 3 2 2 2 1 3 3 1 3 12 14 15 17 14 14 18 10 11
17 13 15 13 13 18 12 10 29 35 31 29 32 35 33 33 47 38 12 34 23 20 3 2 3 9 16 25 27 18 22 20 14 7 3 6 7 3 3 4 4 7 5 4 6 16 31 23 10 15 12 9 5 1
13 12 13 14 15 18 9 16 26 24 24 26 31 36 33 36 49 30 12 15 39 19 3 1 2 7 19 21 18 18 13 9 7 6 5 5 5 4 1 3 6 7 10 6 13 14 8 12 11 14 10 9 7 8
15 19 19 17 21 26 24 24 23 26 28 33 34 35 34 48 41 13 6 24 38 16 5 1 3 5 11 8 7 8 9 7 5 4 2 3 2 4 2 6 8 10 11 5 10 10 8 6 9 12 12 9 8 10
19 24 27 29 28 33 34 34 35 36 35 35 43 51 42 26 9 12 20 36 27 5 3 3 3 3 11 5 6 4 5 2 1 2 3 4 2 2 5 9 11 12 9 13 15 9 10 10 10 12 12 11 14 15
22 25 32 34 36 38 36 38 43 46 46 45 41 14 8 9 31 31 13 6 7 6 6 1 1 2 5 4 2 3 2 2 3 4 6 3 3 9 12 10 11 12 10 9 14 6 9 9 8 8 10 12 13 12
20 24 26 29 27 24 25 33 39 37 32 18 6 8 31 33 13 6 5 4 6 2 2 2 4 4 4 3 3 2 3 3 3 3 3 2 2 4 13 11 10 8 6 3 1 3 4 1 4 5 9 11 11 12
18 19 16 17 20 21 18 12 8 9 11 12 24 27 16 5 3 4 3 0 3 2 4 3 4 5 5 3 3 3 3 3 2 3 3 2 3 9 10 10 10 9 7 7 7 7 6 7 8 9 12 14 17 16
18 18 18 12 9 16 17 25 30 30 17 6 5 6 6 7 9 5 4 3 3 4 7 3 3 4 4 5 3 2 3 3 3 3 3 2 6 8 8 8 10 11 11 14 17 18 17 19 18 20 23 21 23 26
16 15 14 13 12 10 10 9 7 14 6 9 7 7 4 5 4 2 1 2 3 4 7 6 5 3 4 3 2 3 2 4 3 3 2 2 10 9 10 10 14 17 19 21 23 23 25 27 28 30 29 27 28 29
19 12 11 12 7 8 6 7 9 11 10 8 8 5 4 4 7 6 8 2 7 6 3 6 6 5 4 4 3 3 5 4 3 1 1 6 12 16 17 17 20 22 24 26 26 28 29 30 32 33 30 29 29 29
8 12 14 8 5 5 6 3 5 11 8 7 10 4 10 3 6 11 15 10 11 6 4 6 3 4 4 2 5 4 3 3 1 2 11 16 19 19 20 21 23 25 26 27 28 28 29 29 29 29 27 26 26 25
9 11 10 14 11 3 3 4 9 10 7 6 5 18 7 4 4 8 12 14 8 6 3 3 5 5 3 3 3 4 3 3 11 17 18 18 20 20 20 21 21 22 23 24 25 25 24 23 23 24 26 23 22 22
9 10 8 1 1 14 29 12 9 8 8 10 4 13 15 14 13 12 12 14 4 5 4 4 5 5 4 3 2 2 11 20 20 20 19 18 19 19 19 20 19 19 19 19 18 18 18 18 20 20 18 16 17 17
5 8 5 4 5 6 6 8 9 7 10 6 12 10 11 13 19 14 15 19 23 17 9 6 5 3 2 4 12 15 17 19 21 20 18 16 15 15 15 15 15 15 16 16 15 15 15 15 15 13 12 11 14 14
9 11 6 8 8 6 6 7 7 9 5 5 9 18 15 12 17 20 20 20 18 8 8 5 3 4 8 16 21 22 23 22 23 22 18 14 13 12 13 12 12 12 12 12 12 12 12 12 11 10 9 9 8 10
13 11 17 22 22 12 8 6 8 8 11 7 12 12 12 24 29 25 18 15 15 8 5 10 17 19 20 20 19 20 20 17 14 15 17 15 12 11 11 11 10 9 9 9 8 9 8 10 10 8 6 7 7 6
6 7 8 9 8 8 11 10 12 12 8 7 4 6 5 6 10 18 19 16 9 14 9 16 19 19 17 15 13 11 10 10 11 12 11 11 11 11 10 9 5 8 8 8 7 7 7 7 5 5 5 6 6 6
4 4 6 6 8 7 4 4 4 3 4 2 4 4 5 5 7 9 7 9 8 15 17 19 18 17 18 15 14 13 10 10 12 11 10 11 10 9 7 7 6 6 6 7 5 5 5 4 2 2 4 4 3 4
5 5 6 5 7 3 5 4 4 5 5 3 3 3 3 4 5 7 3 4 9 10 12 12 12 15 15 14 16 14 11 8 11 11 8 6 6 6 4 4 4 4 6 6 4 3 4 4 4 2 1 1 2 2
4 9 6 6 6 5 5 3 3 4 4 3 3 3 1 4 3 3 2 2 9 8 6 6 7 8 12 12 11 9 8 4 4 5 7 3 4 5 4 3 2 2 3 3 3 2 2 3 3 2 2 1 2 3
7 12 5 3 3 4 1 3 3 3 3 3 2 4 4 3 4 3 1 11 13 9 7 6 7 8 8 7 7 7 7 4 1 1 1 1 1 2 3 3 4 3 2 2 2 4 4 4 4 3 3 3 4 5
5 5 7 8 5 8 6 9 8 6 4 3 1 3 3 4 2 2 8 11 12 11 8 5 1 0 5 7 7 4 3 3 1 1 2 2 2 2 3 4 4 4 4 4 5 5 5 4 5 5 6 6 7 7
6 7 4 8 10 11 5 4 4 3 1 3 4 4 4 5 3 5 7 11 10 11 8 6 6 5 6 5 4 2 1 2 2 3 3 3 3 5 4 2 3 3 3 4 5 6 6 6 7 7 7 8 9 8
7 4 7 6 7 9 9 3 2 3 2 2 4 2 3 4 9 16 16 11 8 6 6 6 6 5 4 2 1 2 3 2 2 3 5 7 6 6 5 4 5 5 5 5 5 6 7 7 8 10 10 11 13 14
5 6 7 6 5 5 9 8 10 9 11 13 12 24 25 23 18 12 11 9 6 6 6 5 6 5 3 3 4 4 4 4 5 7 8 7 7 7 5 6 7 7 6 6 7 7 9 11 12 13 14 14 15 16
5 5 8 8 7 14 23 24 23 23 24 20 22 24 17 13 12 8 7 5 5 4 4 4 4 2 1 3 5 5 5 5 6 6 5 5 5 5 6 7 8 7 6 7 8 9 10 10 10 11 12 13 14 15
6 6 7 5 6 12 7 8 9 9 6 7 8 9 8 5 4 9 9 6 4 3 4 3 2 2 3 5 4 4 5 6 6 6 6 6 7 7 8 9 9 9 9 9 9 10 10 11 12 12 14 15 16 16
21 27 18 10 6 6 3 4 4 5 5 3 4 4 4 3 4 7 9 8 5 4 1 0 1 4 4 3 3 4 4 4 6 6 7 7 7 7 8 8 8 8 8 8 9 10 11 11 12 12 13 13 13 14

GFSWCAN_850_spd_060.txt.gz
Wind_Speed
31 32 33 33 31 31 30 31 31 31 30 31 30 27 29 34 36 41 38 40 41 4 12 31 25 18 17 22 6 7 2 3 2 4 3 4 2 4 2 4 4 5 5 3 3 1 9 6 2 3 4 9 12 23
33 33 35 32 28 27 27 27 30 33 30 30 29 29 30 28 29 36 18 41 34 29 4 20 27 28 33 36 25 21 10 6 10 3 2 2 1 1 4 2 1 2 6 5 7 7 4 5 7 15 10 7 15 17
31 33 26 21 21 23 22 23 24 30 32 31 35 33 32 32 29 30 25 29 25 18 11 20 19 25 27 31 30 13 18 16 8 5 4 3 2 4 3 5 4 3 4 3 1 3 5 13 16 20 21 29 29 21
27 22 20 22 25 26 29 27 28 28 28 28 29 33 35 34 34 31 27 27 24 8 2 6 22 28 30 32 34 36 18 8 10 7 3 3 3 5 3 4 5 5 4 4 5 4 12 0 21 22 27 25 23 30
19 22 19 20 20 18 20 22 26 30 30 30 30 30 33 36 34 33 32 29 26 7 3 4 21 30 34 33 30 32 30 25 11 3 2 2 3 2 1 1 2 2 1 2 4 2 4 8 17 14 20 23 18 13
18 19 21 18 19 20 23 24 23 28 34 27 30 30 29 35 37 38 9 26 26 22 3 3 5 18 31 31 26 29 26 20 19 11 4 6 6 3 2 2 3 2 3 6 6 16 21 20 8 12 15 19 15 14
17 16 14 19 18 7 6 12 30 30 34 30 32 30 29 28 46 30 9 10 31 18 3 2 2 4 24 22 20 19 19 11 7 9 6 5 5 8 2 2 5 8 10 12 8 14 5 9 9 16 14 16 13 9
17 19 18 20 16 15 18 20 31 36 32 31 32 26 31 34 34 17 4 18 37 11 5 2 3 6 19 9 7 14 9 8 5 7 5 4 3 3 2 3 6 9 14 11 9 8 9 13 12 10 8 6 7 12
23 26 28 25 28 29 25 23 28 29 29 29 34 35 38 28 7 15 17 40 26 5 4 2 3 4 14 6 6 7 7 2 5 1 1 4 2 1 5 7 10 11 11 17 18 15 7 7 10 9 8 10 10 14
27 30 27 30 29 28 31 36 36 39 40 44 43 14 8 12 39 39 18 5 4 3 3 2 3 3 6 5 3 5 4 3 3 3 6 3 2 9 9 7 8 11 13 13 14 8 13 8 8 9 10 9 8 12
16 24 23 23 28 32 42 40 44 44 33 14 6 9 46 34 9 6 5 5 5 2 3 3 3 3 2 3 3 2 3 3 4 1 3 2 2 3 10 9 10 9 9 9 6 8 8 7 5 5 8 9 10 12
8 11 14 22 25 32 34 33 19 15 13 15 20 22 14 6 5 5 2 2 1 0 1 2 4 6 5 4 3 1 3 1 2 2 3 2 2 7 8 9 10 8 7 6 5 5 5 5 6 8 12 14 16 16
15 13 8 12 18 27 24 24 17 28 31 20 7 6 6 7 8 4 2 2 2 4 8 4 4 3 4 5 3 2 2 3 3 3 2 2 7 8 7 7 8 8 9 10 12 12 12 14 15 16 19 19 21 25
15 15 14 13 8 9 11 10 7 6 5 6 6 7 4 5 3 1 1 2 4 4 6 8 4 3 4 3 2 4 2 3 3 3 2 2 7 9 9 9 11 15 16 18 19 20 22 24 25 25 25 24 24 25
13 12 9 10 9 8 12 10 10 6 7 7 7 5 4 3 5 6 7 3 8 4 4 4 7 6 4 5 3 3 4 4 3 1 1 5 10 12 14 16 18 18 19 21 22 24 25 26 27 28 26 25 25 25
5 6 13 10 7 7 8 7 10 12 8 7 10 4 7 2 5 9 14 10 12 7 5 7 3 4 5 3 5 4 3 2 1 2 9 12 14 15 16 16 19 21 22 23 24 24 25 26 26 26 24 23 23 22
4 8 10 17 14 5 1 5 9 10 8 6 5 15 7 3 3 7 12 15 10 6 3 3 5 5 3 3 3 3 1 2 9 14 13 13 15 16 16 17 18 19 20 21 21 22 22 21 20 21 23 20 19 18
8 5 3 4 3 14 25 12 9 9 9 12 4 12 13 12 12 15 13 13 5 5 4 4 4 4 3 3 2 2 7 16 17 17 16 14 14 15 15 16 16 16 16 16 16 16 15 15 17 18 16 14 14 14
6 5 4 3 4 6 7 8 9 6 10 5 7 7 8 9 16 14 15 18 21 17 10 5 5 3 2 4 8 13 15 15 18 17 16 14 13 13 13 13 13 13 13 13 12 12 13 12 13 12 11 9 11 12
11 10 7 7 7 6 6 6 7 9 4 5 8 14 8 7 11 18 18 16 15 7 8 4 3 6 7 10 13 17 17 19 20 19 16 13 11 10 10 9 10 9 9 10 10 10 10 10 10 9 7 7 6 7
15 17 17 19 22 13 7 5 7 8 9 6 8 9 8 20 22 17 18 14 13 8 4 10 17 16 12 14 14 16 14 12 12 9 14 12 9 8 9 9 8 8 7 8 7 8 7 9 9 8 6 7 8 7
8 13 13 11 8 7 9 10 11 11 7 8 5 7 6 4 7 14 17 17 8 12 8 14 17 17 16 14 11 9 8 8 11 11 11 10 11 10 10 9 5 6 6 7 6 6 5 6 6 5 5 6 7 6
5 4 5 6 7 6 4 3 4 4 3 2 4 4 4 4 5 6 7 8 6 11 15 16 16 15 16 14 13 13 11 9 12 12 11 10 10 9 7 7 7 6 6 6 7 6 5 4 4 3 4 5 5 5
4 5 6 5 7 3 5 5 5 5 5 3 3 3 3 3 4 6 3 4 7 10 12 12 12 15 15 14 15 14 12 8 10 11 10 7 6 6 5 5 5 5 5 5 4 4 4 3 3 3 3 3 5 5
3 9 6 6 6 5 5 4 4 4 4 3 4 3 2 3 3 3 2 3 6 7 8 7 8 9 12 13 12 10 9 7 6 5 5 4 4 4 3 3 3 2 2 4 4 4 4 3 3 3 4 4 5 5
7 10 5 2 3 4 1 3 2 3 3 3 3 3 3 3 4 2 2 9 9 9 8 6 6 7 8 7 7 6 5 4 2 2 1 1 3 3 3 4 4 3 3 3 2 2 3 3 3 4 4 6 6 7
5 4 7 8 6 8 6 8 7 5 4 3 1 3 3 4 1 1 8 11 13 11 9 6 3 2 5 7 6 4 3 2 2 2 3 3 3 3 4 4 3 3 4 4 4 4 5 5 6 7 8 8 9 9
6 7 5 7 10 10 4 3 3 2 1 2 4 4 4 5 3 5 7 11 12 10 7 6 7 7 7 7 6 5 4 3 3 3 4 5 5 6 6 4 4 4 4 5 5 6 6 7 8 8 9 11 12 12
7 5 6 6 7 9 9 3 2 3 2 2 4 2 4 4 9 16 17 13 10 6 6 6 7 7 5 4 3 2 2 2 1 3 5 6 6 6 6 5 5 4 5 5 5 7 8 8 8 9 11 11 12 14
5 6 7 6 5 5 8 8 8 9 10 12 11 21 24 24 19 14 11 9 7 6 6 5 5 7 4 4 4 3 3 3 4 5 6 6 5 5 4 5 6 7 6 6 6 7 8 10 11 11 12 13 14 15
5 5 7 8 6 15 24 24 23 23 24 23 24 24 18 12 14 12 9 9 7 7 5 5 5 3 1 2 4 4 4 4 5 5 5 6 5 5 5 6 7 7 7 7 7 7 8 9 9 10 11 12 13 14
6 6 8 5 6 12 5 7 8 9 7 6 7 10 9 5 4 8 9 6 5 5 6 5 4 2 2 4 3 3 4 5 5 5 6 6 6 6 7 7 8 8 7 7 8 8 9 10 10 11 12 12 13 14
21 26 20 10 6 6 4 6 4 5 5 3 3 3 3 3 4 6 11 8 6 5 3 2 1 2 3 3 4 5 5 5 7 8 8 7 7 7 8 8 8 8 8 8 9 9 10 10 11 12 12 13 14 15

GFSWCAN_850_spd_063.txt.gz
Wind_Speed
31 32 31 31 32 31 31 29 29 28 28 25 25 29 33 33 40 40 41 32 43 5 13 27 28 21 18 20 6 9 6 2 4 5 3 3 3 3 1 2 3 6 7 4 4 4 5 2 2 3 7 10 12 16
33 35 35 32 30 30 28 28 27 26 27 28 27 25 24 23 32 37 28 40 35 28 4 24 28 26 32 32 21 21 8 6 8 3 4 3 3 1 4 2 1 2 4 3 6 4 1 2 2 5 8 10 11 18
35 34 32 33 28 23 21 21 22 21 24 28 27 26 28 25 25 35 32 29 33 25 25 23 15 27 27 30 26 13 13 10 7 7 4 2 3 3 3 4 1 2 3 2 0 0 3 2 4 12 16 15 19 20
28 20 23 24 24 23 24 24 23 22 22 23 33 30 27 27 24 28 34 35 34 11 3 5 29 26 34 25 26 27 17 14 17 8 2 2 2 4 2 1 3 2 2 2 3 4 7 8 11 16 17 20 21 20
23 23 24 24 23 24 23 20 22 28 25 25 30 31 31 29 26 22 26 31 31 15 3 4 15 32 28 31 34 33 23 14 7 2 1 2 2 2 1 0 3 1 2 2 2 5 5 9 16 16 13 16 18 20
21 21 16 20 22 22 25 25 25 26 29 29 27 28 32 32 32 28 7 20 26 15 2 3 5 15 28 26 27 27 25 24 19 8 3 4 3 3 2 2 2 3 3 4 4 12 14 15 10 11 16 15 15 15
16 20 21 19 15 14 11 18 26 20 30 32 31 29 31 35 39 24 8 11 27 18 5 2 3 6 24 20 19 15 19 13 12 6 8 8 4 4 2 5 3 6 7 6 6 10 4 7 8 17 15 12 11 11
22 21 22 22 14 11 6 15 25 28 30 32 29 27 27 40 36 19 6 14 31 14 5 2 2 5 17 7 5 11 7 11 9 3 3 4 10 3 3 6 6 9 12 5 11 9 12 11 12 13 13 11 8 8
19 24 24 22 17 21 26 34 31 36 33 32 34 32 43 31 12 14 12 30 21 5 4 2 4 4 15 6 7 7 5 1 4 3 2 5 3 2 6 7 8 9 8 13 15 12 4 5 8 12 13 10 8 8
21 21 23 25 26 26 37 35 35 36 40 38 40 13 7 11 33 37 20 9 4 3 3 1 4 2 11 5 3 6 5 3 3 2 5 2 3 8 9 7 6 8 9 10 10 6 11 9 9 9 8 7 6 6
18 18 27 26 33 40 42 32 37 39 39 19 6 7 42 36 10 5 4 3 3 2 5 4 7 3 9 4 3 5 3 3 4 1 2 2 2 3 7 8 10 9 8 7 4 6 5 4 2 4 6 7 7 9
12 17 21 24 29 29 31 28 20 16 11 17 31 20 9 5 4 5 2 3 3 2 3 3 5 6 5 5 3 3 2 2 2 2 3 2 3 7 8 9 10 8 7 7 5 4 5 5 6 7 10 13 14 15
13 16 20 15 17 27 31 31 34 44 30 20 6 6 6 8 8 3 2 1 1 4 4 3 4 4 4 3 3 2 3 3 2 3 2 3 6 7 7 7 9 8 7 8 11 11 11 13 14 15 18 18 19 22
13 15 19 18 15 20 26 23 24 9 4 9 6 6 4 4 3 2 1 1 4 5 10 8 6 4 6 4 2 4 2 3 3 2 2 2 6 6 7 7 9 12 12 14 16 17 19 21 23 22 22 21 22 24
14 13 13 14 15 10 9 16 14 7 7 7 7 5 4 3 3 5 4 2 7 6 6 5 7 5 4 5 4 3 3 3 2 2 1 2 4 7 9 11 13 14 16 17 18 20 21 22 23 24 23 23 23 23
4 8 12 10 4 6 8 9 12 9 7 6 9 4 7 2 5 8 13 7 11 8 6 6 3 4 5 2 4 3 2 2 3 2 6 8 10 11 12 14 16 17 18 19 20 20 21 22 22 22 21 20 20 19
2 5 13 15 15 8 2 4 8 10 7 6 5 12 5 3 3 6 11 13 9 4 2 2 5 5 3 3 3 3 2 2 8 10 10 11 12 13 13 15 15 16 17 18 18 18 19 18 18 18 19 17 15 15
8 6 5 5 3 8 22 11 9 9 8 11 4 10 13 12 11 13 12 12 3 4 4 4 4 5 4 3 2 2 8 15 15 15 14 13 12 12 13 14 14 14 14 14 14 14 13 12 13 14 12 11 11 11
6 4 3 2 5 6 7 8 8 6 8 4 5 8 7 10 17 13 14 16 19 14 10 6 5 3 3 4 8 13 14 13 16 17 16 13 13 12 12 11 10 10 10 10 9 9 9 9 11 10 9 8 8 9
9 9 8 5 4 7 7 7 7 8 4 4 7 12 6 7 12 16 17 17 15 7 8 5 4 4 5 12 14 15 16 17 18 18 15 12 10 9 9 8 8 8 8 8 8 9 8 8 8 7 6 6 5 6
18 17 16 18 22 13 8 5 7 7 8 6 6 5 6 16 18 15 16 13 14 7 5 8 14 16 15 14 13 14 13 11 11 7 13 12 9 8 8 8 7 6 6 6 5 7 6 7 8 7 5 5 7 7
12 12 11 11 8 7 8 8 11 11 7 7 4 6 5 4 7 14 12 18 8 10 7 13 17 17 17 15 13 10 9 8 11 10 11 10 10 9 8 7 4 4 5 5 5 4 5 6 6 6 6 8 8 7
6 4 5 5 6 6 5 6 4 4 3 3 4 3 3 4 5 7 7 8 6 9 14 15 15 14 15 13 12 13 11 9 11 11 10 9 8 7 6 5 5 4 4 5 5 4 3 4 4 4 4 5 5 4
4 4 5 5 6 3 7 4 5 5 5 3 3 3 3 3 4 7 4 4 5 8 11 11 11 14 14 13 13 13 12 9 10 11 9 6 5 5 5 4 4 4 4 4 4 3 3 3 2 2 2 2 2 2
3 8 5 5 5 5 5 3 4 4 3 2 4 2 1 2 3 3 2 4 7 8 9 8 7 8 13 14 13 11 10 7 5 5 6 5 3 3 3 3 3 2 2 3 3 3 3 2 2 2 2 2 3 3
7 9 5 3 3 4 1 4 2 3 3 3 2 3 2 3 4 3 2 10 10 10 10 8 8 10 10 9 8 7 6 5 3 2 1 1 3 3 2 2 3 2 2 2 2 2 1 2 2 3 4 5 5 5
5 4 7 8 5 8 6 8 6 5 4 3 1 2 3 4 2 1 9 13 14 13 11 8 6 5 8 9 7 5 4 3 2 3 3 3 3 4 4 4 3 2 2 2 2 2 2 3 4 5 5 6 6 6
5 7 5 7 10 11 4 4 4 3 2 2 4 4 4 3 2 6 8 14 13 10 8 7 9 8 8 7 6 5 4 4 3 4 4 4 4 5 5 3 3 3 3 3 4 4 5 5 5 6 7 8 8 9
7 5 6 6 8 10 9 3 2 3 2 2 3 2 3 4 8 15 18 16 11 7 7 8 10 9 7 5 3 2 2 2 2 3 4 5 4 4 4 4 5 5 5 5 5 5 5 6 6 7 8 8 8 10
5 6 7 6 5 5 7 7 7 8 11 11 10 20 21 21 19 17 14 12 10 8 8 7 7 8 6 4 3 2 1 2 3 4 4 4 4 4 4 5 6 6 6 5 5 6 7 8 9 8 9 9 10 11
5 5 7 8 6 14 24 26 24 24 26 27 26 23 17 13 16 12 9 9 8 7 7 7 6 3 2 2 2 2 3 3 4 5 5 5 5 5 5 6 7 7 7 6 6 6 6 7 7 8 8 9 9 10
6 5 8 5 6 11 6 7 8 10 9 7 7 10 7 5 4 7 9 9 8 7 7 5 3 2 1 2 2 3 4 5 5 6 6 6 5 6 5 6 7 6 6 6 6 6 7 7 7 8 9 10 11 11
15 23 19 11 6 7 5 6 5 5 5 3 3 3 3 3 4 6 11 9 9 8 6 3 1 2 2 3 4 4 4 5 7 7 8 7 6 6 6 6 6 6 6 7 7 7 8 8 9 10 11 11 12 12

GFSWCAN_850_spd_066.txt.gz
Wind_Speed
33 31 31 31 31 32 31 29 27 25 26 26 25 25 37 43 45 46 44 33 43 16 25 10 21 24 20 19 5 9 5 5 4 6 4 4 3 4 3 3 7 8 9 7 10 7 6 5 2 4 7 7 12 14
32 32 34 36 34 34 31 28 28 27 25 27 26 24 29 34 39 38 30 40 32 27 9 23 28 23 26 24 20 16 5 3 9 5 5 3 4 1 4 3 5 4 3 3 7 7 5 7 6 6 7 6 10 13
35 36 34 25 21 20 21 25 28 26 24 27 25 26 23 28 36 38 38 30 35 23 20 24 17 20 23 24 23 14 11 9 7 6 2 3 4 4 4 6 1 5 2 2 1 3 2 4 4 11 12 10 10 12
26 23 24 23 24 24 23 22 21 21 20 21 27 28 27 24 28 29 40 34 38 10 3 7 18 33 23 20 23 21 10 13 8 3 4 3 3 2 2 3 3 3 1 2 4 5 4 5 9 12 14 12 14 14
23 24 24 25 24 21 21 23 23 23 21 21 23 27 28 26 23 24 35 36 41 23 6 13 8 15 24 25 19 19 14 11 9 7 4 4 3 3 4 2 6 2 3 4 4 5 4 5 12 14 14 16 15 15
23 20 19 20 20 23 22 24 25 25 27 24 24 28 28 30 27 29 10 32 40 26 3 3 9 10 20 23 26 24 19 13 6 2 2 4 6 4 3 5 3 5 5 6 2 6 7 10 1 7 12 13 12 12
20 24 25 21 20 15 20 17 25 28 25 30 26 29 33 34 31 13 6 23 39 28 6 2 4 4 19 20 15 19 20 9 8 5 6 8 7 6 5 9 9 4 5 6 6 10 4 8 6 10 10 11 12 11
21 26 22 17 16 14 15 17 25 27 29 29 30 35 34 34 29 7 4 30 36 10 5 2 3 4 17 8 6 9 7 10 8 5 2 4 7 8 2 5 7 8 7 1 9 8 7 9 3 7 8 8 7 8
17 25 19 19 16 17 22 25 30 27 33 35 32 38 42 27 15 9 27 33 21 4 3 2 5 4 16 5 6 7 5 2 4 3 3 3 3 1 6 7 8 9 7 11 12 7 5 5 5 7 7 7 6 6
14 23 21 26 28 26 30 32 27 37 34 40 43 20 8 18 26 30 19 4 6 5 5 2 2 3 12 6 3 3 4 3 3 2 5 2 3 9 8 7 7 8 9 10 11 6 9 6 6 6 6 5 5 6
11 19 27 24 28 29 34 36 38 39 41 23 5 7 41 37 18 4 5 4 5 4 6 4 3 3 3 4 3 2 3 4 3 3 2 3 3 4 8 8 8 8 7 7 6 5 5 4 2 3 6 6 6 7
10 15 25 25 27 28 33 37 34 24 13 16 27 26 22 6 3 3 3 3 2 2 4 5 5 5 5 4 3 4 3 3 2 1 3 3 3 6 7 7 7 7 6 6 6 4 5 5 5 7 9 9 11 13
14 21 25 22 20 14 18 18 20 38 41 29 6 5 3 4 4 3 6 3 3 2 2 4 4 5 5 5 3 3 2 3 3 1 2 3 4 6 6 6 8 8 7 8 9 10 10 11 11 12 15 16 18 20
18 25 23 23 24 33 35 26 24 9 1 7 6 5 4 3 3 2 2 2 2 1 3 8 6 1 2 3 2 3 2 2 2 3 2 3 6 6 7 7 7 9 9 10 12 13 15 17 18 18 18 18 20 21
11 13 23 21 19 16 13 7 1 4 7 7 6 5 4 3 3 3 2 1 3 2 2 5 5 5 4 4 3 4 3 3 3 3 3 5 6 6 8 8 9 9 11 13 14 16 18 19 20 21 19 19 20 20
5 7 11 14 17 15 13 10 4 8 7 6 8 3 4 1 5 5 7 6 7 6 4 5 3 4 4 2 3 3 2 2 3 4 8 7 8 8 9 10 11 12 14 15 17 18 19 19 19 20 18 17 16 15
5 3 10 12 6 8 9 8 7 9 6 5 5 8 5 5 6 6 7 10 7 3 3 3 4 4 2 3 3 3 3 5 11 10 9 9 9 10 11 12 12 13 14 15 15 15 16 15 15 14 15 13 11 11
10 10 5 4 5 9 19 10 7 7 8 9 5 8 12 10 7 10 10 13 5 4 4 4 4 4 4 3 3 5 11 12 12 11 11 10 11 11 10 11 11 11 11 11 11 11 10 9 9 9 9 8 8 8
7 7 5 4 3 4 6 8 8 7 8 5 6 7 7 7 13 11 12 12 14 12 8 5 5 4 3 5 11 13 12 12 14 13 12 11 11 10 10 9 8 8 7 7 6 5 5 6 7 6 5 5 6 6
9 8 6 4 2 6 6 6 6 8 4 5 6 10 6 6 8 10 15 14 15 7 8 5 4 8 10 11 11 13 13 14 14 13 10 8 8 7 7 6 6 6 5 5 5 6 5 4 4 3 3 4 4 5
15 13 12 14 16 12 7 5 7 7 8 6 6 7 7 12 13 10 11 11 12 7 5 9 12 13 13 13 12 13 12 9 7 5 8 8 6 6 6 5 5 4 4 4 4 4 3 4 3 3 2 2 3 4
11 9 8 10 8 7 7 8 10 9 6 8 5 5 5 5 7 11 10 13 8 10 7 12 12 13 13 13 11 10 9 7 10 9 9 8 7 6 5 4 4 3 3 3 3 3 3 2 3 3 4 4 5 4
5 5 6 5 6 6 6 4 4 4 3 4 4 3 3 3 4 5 7 8 7 8 10 11 12 12 13 12 12 12 11 9 10 9 8 8 7 6 5 4 3 3 3 2 1 1 1 1 1 2 2 2 3 2
4 4 5 5 6 4 6 3 4 4 5 3 3 3 3 3 3 6 4 4 5 7 9 10 9 11 12 11 10 11 10 9 9 9 7 6 4 3 3 2 2 1 1 0 0 1 1 1 1 1 1 1 1 1
4 8 5 5 4 4 4 3 3 3 4 3 3 3 3 2 3 3 3 6 7 7 7 7 7 8 10 10 9 10 9 7 5 4 4 4 2 2 2 2 2 1 1 1 1 0 0 1 1 1 1 2 3 3
6 7 5 3 3 3 2 4 3 4 3 3 4 3 2 2 4 4 3 10 8 7 8 8 9 9 8 7 7 6 5 4 3 2 0 1 1 1 1 2 2 4 3 3 2 2 3 3 3 3 4 5 5 5
4 4 6 7 4 6 6 7 6 5 4 3 3 2 2 4 3 3 6 9 9 13 12 10 8 6 8 8 7 5 4 2 1 1 1 1 2 2 2 2 2 4 3 3 3 3 4 5 5 6 6 6 6 7
5 6 4 6 8 9 4 4 3 3 2 2 3 4 3 2 3 6 7 15 14 12 9 8 10 10 8 7 6 5 4 3 2 2 3 4 3 4 3 2 2 3 3 4 4 4 4 5 5 6 6 6 7 7
6 4 6 6 7 9 9 5 3 3 2 2 3 3 4 4 8 12 18 16 13 10 10 11 11 9 8 5 3 3 3 1 2 3 4 3 4 4 4 4 4 5 5 5 5 5 5 5 6 6 7 8 8 9
4 5 6 6 5 6 8 6 4 5 7 8 9 16 16 13 17 19 16 14 12 11 10 9 8 8 6 4 2 1 0 1 2 3 3 3 4 4 4 5 6 7 7 6 6 7 8 8 8 8 8 8 9 9
4 5 7 8 6 10 13 17 19 18 15 18 19 21 17 11 15 12 11 10 10 9 8 8 7 6 4 2 1 0 2 2 3 3 3 4 4 5 6 7 7 8 7 7 6 6 6 7 7 7 8 8 8 9
5 5 7 5 7 9 7 6 7 8 7 8 7 10 9 5 4 7 10 11 11 9 8 6 4 3 1 0 0 1 1 1 2 4 4 5 5 5 6 6 6 6 5 5 6 6 6 7 7 7 8 8 9 9
11 14 15 11 7 7 5 6 4 5 4 3 3 3 3 3 4 7 12 11 10 10 8 5 3 2 1 1 1 1 2 3 5 6 6 5 4 5 4 4 5 5 5 6 6 7 7 8 8 9 10 10 10 11

GFSWCAN_850_spd_069.txt.gz
Wind_Speed
33 33 33 33 31 30 30 28 28 28 25 25 24 32 31 38 44 42 42 33 37 15 28 22 18 17 21 12 5 9 6 4 4 5 4 4 4 5 3 4 11 11 9 7 10 9 11 5 3 4 6 8 9 10
33 35 36 35 34 33 32 31 30 28 26 26 26 28 29 36 37 46 36 36 30 23 14 13 31 23 17 12 8 8 3 2 6 4 5 2 4 1 5 4 10 6 7 5 9 7 8 13 17 11 9 9 11 12
34 33 34 27 25 25 25 25 26 26 26 27 23 26 29 29 35 48 45 32 34 26 25 31 26 21 26 18 11 6 11 14 7 8 3 3 5 4 4 5 2 8 4 1 4 9 7 12 13 12 11 11 12 12
33 24 22 22 24 24 21 21 22 20 23 28 26 26 28 26 32 43 42 42 35 11 5 13 19 35 14 19 18 20 19 12 7 7 4 3 3 4 2 2 4 5 1 5 4 7 9 12 13 11 11 12 13 13
20 22 23 24 22 23 23 22 22 22 20 20 22 26 27 25 29 35 42 37 36 25 5 20 16 13 26 25 19 15 18 10 5 3 4 4 3 3 2 2 4 4 3 3 2 8 8 9 10 11 13 14 13 12
21 22 28 27 27 25 24 21 21 24 23 23 20 28 30 25 26 35 13 34 39 37 6 2 11 11 16 17 21 23 18 10 4 3 5 5 6 4 2 3 11 14 13 14 6 9 7 7 7 11 11 12 11 11
25 23 30 24 21 18 20 22 26 25 26 24 24 26 31 30 30 21 5 14 40 34 5 3 3 7 18 17 18 19 18 8 8 3 4 6 5 4 3 6 7 11 10 9 11 12 7 9 6 9 9 9 8 8
21 26 18 23 18 16 15 22 26 29 29 27 27 32 32 31 23 11 6 14 37 21 6 3 2 4 15 10 8 8 5 6 7 4 4 5 6 7 1 7 9 11 8 5 12 10 5 5 5 8 8 8 6 8
19 20 23 17 13 9 26 28 27 34 31 31 29 32 34 25 6 7 19 35 33 7 4 4 5 3 13 4 5 7 4 2 5 3 2 3 2 3 5 8 10 11 10 12 12 7 4 7 7 8 8 8 6 7
16 18 21 19 20 22 25 26 37 35 35 35 50 17 7 17 26 38 18 5 6 5 4 2 2 3 12 6 3 3 5 4 3 2 5 0 3 7 5 6 7 9 9 10 10 9 10 8 7 6 6 6 5 5
13 15 19 23 21 28 28 31 36 37 45 31 6 6 33 28 15 3 4 3 5 4 6 2 4 4 2 5 3 6 2 4 3 3 3 4 3 3 5 6 8 8 8 7 6 5 5 5 4 3 5 6 7 7
16 14 25 28 36 34 34 39 40 27 12 12 25 30 21 5 3 3 4 2 5 4 4 4 4 5 3 3 3 2 2 1 0 4 3 3 3 5 6 6 7 7 7 7 8 7 7 7 7 7 8 9 10 11
14 14 15 25 26 26 29 21 26 35 38 31 11 5 2 1 3 4 7 3 4 3 2 5 4 4 3 3 4 2 3 1 3 2 3 3 7 8 7 6 7 8 8 8 9 10 10 11 12 12 13 13 13 15
16 14 17 24 24 28 36 32 33 26 5 6 4 4 3 3 3 3 4 4 4 4 7 10 5 2 3 3 2 3 1 2 3 5 3 5 7 6 6 7 7 9 9 10 11 12 14 15 16 16 15 15 15 15
14 16 22 21 21 19 14 11 6 3 6 6 5 4 4 3 4 3 2 1 4 4 5 9 6 4 3 2 0 3 4 3 4 3 3 9 7 7 7 8 8 9 10 11 12 13 15 15 16 17 15 15 15 15
12 13 16 14 12 8 4 6 8 11 6 6 8 3 2 4 6 8 8 9 6 6 4 5 3 4 2 2 2 2 2 3 3 4 10 9 8 9 9 10 11 12 12 13 13 13 14 15 15 15 14 13 12 11
6 6 12 14 12 7 1 5 5 9 6 5 5 8 6 8 9 7 8 7 5 4 2 1 3 3 3 3 3 5 4 6 12 12 11 11 11 11 11 11 11 12 12 11 11 11 12 12 11 11 12 10 9 9
4 10 12 15 11 7 9 9 7 6 6 8 5 10 13 11 9 10 10 13 5 3 4 3 4 4 4 2 4 5 13 14 13 13 12 12 12 11 10 10 10 9 9 9 9 9 8 8 7 7 7 7 7 7
9 8 6 5 4 5 5 6 6 6 7 6 8 8 8 11 13 11 12 11 12 11 7 5 5 4 3 6 13 14 13 13 15 13 12 11 10 9 9 8 8 7 7 6 6 5 5 6 5 4 3 3 2 2
9 8 6 6 6 5 6 6 6 7 4 5 6 9 7 7 7 12 14 15 14 8 8 5 4 10 12 13 13 13 14 13 13 12 10 8 7 7 6 6 5 6 5 6 5 5 4 4 4 3 3 3 2 1
11 11 10 7 8 10 7 5 6 8 8 6 7 7 7 12 13 13 12 12 14 7 5 9 13 12 13 13 13 13 11 7 6 6 8 8 6 5 5 5 4 4 3 2 2 3 3 2 2 2 2 2 2 2
9 8 5 7 6 6 7 8 9 9 5 9 6 5 5 6 8 9 10 12 7 11 10 13 13 13 13 13 11 10 9 9 9 9 9 8 6 5 4 3 2 3 3 2 1 1 1 1 2 2 2 2 3 2
6 4 5 5 6 5 6 2 4 3 3 5 5 3 3 4 4 4 6 7 7 9 10 11 12 12 13 12 12 12 10 9 9 8 8 7 6 5 4 4 3 3 2 2 2 1 1 0 0 1 1 1 0 1
3 4 4 4 5 5 5 3 4 4 5 3 3 4 3 4 4 5 4 5 7 8 9 10 10 11 11 10 10 9 9 8 8 8 6 5 4 4 3 3 3 2 2 1 1 1 0 1 1 1 1 1 2 2
3 7 4 5 4 4 4 4 3 3 3 3 3 3 3 3 3 3 3 7 9 8 8 7 7 6 9 8 7 7 8 5 5 5 5 4 3 3 3 2 2 2 2 2 3 2 2 1 1 1 2 2 4 4
6 8 5 2 2 2 3 4 3 5 4 3 3 5 3 2 3 5 3 11 10 9 8 8 9 9 8 7 7 5 4 4 4 3 3 3 2 2 1 2 2 4 4 1 1 2 4 4 4 4 4 6 8 7
4 4 5 5 3 6 6 7 8 5 4 3 3 3 3 3 4 3 8 10 11 10 9 8 7 6 7 6 6 4 3 2 3 2 1 2 2 1 0 1 1 4 5 3 2 2 3 4 5 5 5 5 6 7
5 6 3 4 7 9 4 4 4 3 3 3 3 3 3 3 3 5 8 11 12 11 10 9 9 8 8 6 5 3 3 2 2 2 3 4 4 3 3 3 3 4 5 5 5 6 5 5 5 5 6 7 8 8
5 4 6 6 7 9 10 5 4 4 3 2 3 3 4 5 7 13 13 12 11 9 9 9 9 8 7 5 3 3 2 1 1 3 2 2 2 6 5 4 5 6 6 6 8 6 6 6 6 7 7 8 8 10
4 5 6 8 5 6 7 7 8 5 5 8 12 22 23 15 14 13 12 11 10 9 9 8 8 5 5 3 2 0 1 2 2 1 2 2 3 6 6 6 6 8 8 7 6 6 9 7 8 8 8 8 8 8
4 5 6 7 6 12 15 15 17 19 20 21 16 21 17 11 10 12 11 10 10 9 8 7 7 5 4 3 2 1 3 3 4 4 5 6 6 7 7 8 8 8 8 7 7 7 7 7 7 8 8 9 10 12
5 4 7 5 9 9 4 8 11 16 15 14 12 13 12 8 5 4 9 9 7 7 8 6 4 3 2 1 1 2 3 3 4 5 6 6 6 6 6 6 6 6 6 7 7 7 8 8 9 10 11 11 12 13
16 17 17 14 8 7 6 7 5 6 6 5 4 4 4 3 4 4 11 14 13 9 7 7 5 3 2 1 1 1 2 4 5 6 6 5 5 5 5 5 5 6 6 7 7 8 9 10 11 12 13 13 14 15

GFSWCAN_850_spd_072.txt.gz
Wind_Speed
30 33 33 31 31 32 32 31 27 27 25 22 22 22 31 32 36 36 37 26 28 13 24 20 19 17 17 8 4 4 6 3 3 2 3 6 5 3 5 7 15 12 10 7 9 7 6 4 8 2 8 10 9 17
33 33 34 31 33 31 32 32 29 29 28 27 24 24 24 35 39 37 31 31 25 21 11 8 20 27 25 23 4 3 4 4 2 5 4 3 4 2 6 2 14 8 8 5 8 6 13 22 20 18 19 17 16 14
33 33 32 34 30 27 23 24 25 27 27 28 26 25 28 27 37 42 42 24 27 21 23 27 29 24 19 19 19 6 6 4 5 7 2 3 5 3 3 1 1 3 8 1 3 11 15 21 21 20 18 16 13 12
32 32 30 23 21 21 21 22 21 23 20 23 26 26 27 29 28 37 46 35 30 10 6 17 16 24 28 17 15 19 13 14 12 9 3 3 3 6 3 1 3 1 4 6 8 10 18 19 21 15 15 14 13 12
30 23 20 24 24 25 24 22 22 22 21 21 23 27 25 26 27 33 36 44 33 27 5 13 20 20 14 21 15 10 11 10 6 3 3 3 0 5 0 4 8 9 8 5 4 11 13 17 17 13 13 13 13 12
22 21 26 23 28 31 30 28 26 23 23 23 21 25 26 23 29 31 11 38 42 30 8 3 10 12 15 15 22 16 10 7 6 2 4 6 4 2 4 2 8 19 20 26 9 10 17 14 17 14 13 11 11 11
18 23 27 30 24 24 22 23 24 23 23 23 20 20 26 29 31 28 8 11 41 33 7 3 3 5 13 12 15 16 14 7 6 2 4 4 4 4 1 3 8 14 14 17 18 9 13 17 10 12 11 10 9 10
21 26 28 26 26 22 21 22 25 24 24 23 24 24 29 26 31 23 7 7 30 26 5 3 1 2 14 8 6 8 5 9 6 2 4 3 5 5 4 9 11 14 11 19 17 11 9 8 11 13 11 10 10 11
20 21 23 22 21 17 21 24 28 28 29 26 26 31 27 21 14 17 5 16 35 8 5 4 3 3 8 6 4 4 5 2 6 2 2 4 4 5 5 9 12 14 12 13 11 12 11 11 10 11 12 12 10 10
14 17 13 14 12 21 23 27 34 35 34 38 42 16 6 16 18 30 22 12 8 7 5 2 3 3 9 8 3 4 5 3 2 4 2 3 3 7 8 10 10 11 12 12 12 12 12 10 12 9 11 11 10 9
6 12 13 12 14 23 23 38 39 39 41 29 7 5 24 31 18 4 4 4 5 4 7 4 5 4 6 3 3 4 1 3 3 3 3 3 3 5 8 10 11 11 11 11 10 10 9 8 8 9 10 9 8 8
14 17 16 16 20 30 38 36 41 33 19 7 20 24 22 5 3 3 4 4 5 4 2 6 3 5 5 3 3 3 1 2 2 4 2 3 3 8 9 10 10 10 11 11 11 11 11 11 10 10 10 11 11 12
9 16 20 25 35 37 37 31 26 25 35 26 10 5 3 2 4 5 6 3 4 2 2 4 4 3 4 3 4 1 2 2 2 1 3 4 10 9 9 8 10 10 11 11 12 11 10 11 12 12 14 13 12 13
10 13 15 21 26 29 36 35 37 25 6 6 3 4 3 3 4 4 4 4 3 3 7 11 5 2 2 3 1 2 2 2 3 5 4 6 10 8 7 8 8 10 11 12 13 13 15 16 16 15 15 13 13 14
20 18 24 29 21 20 17 19 8 5 6 6 5 4 3 3 4 2 2 5 5 7 5 8 5 4 3 3 2 3 2 2 5 4 4 12 10 9 9 9 10 11 11 11 12 13 14 14 14 15 13 13 13 13
18 14 18 12 10 9 12 7 8 8 6 6 7 3 3 7 7 11 10 8 4 6 6 3 3 3 3 2 1 4 4 4 3 5 12 11 11 11 11 11 12 11 12 12 12 12 13 13 13 13 11 10 9 8
8 9 8 7 5 6 6 5 7 8 6 4 4 9 6 11 10 7 6 6 5 3 2 2 3 3 2 3 3 5 3 6 14 14 13 12 12 11 12 12 11 11 11 11 11 11 11 11 11 10 9 9 8 8
10 8 8 6 2 3 9 9 7 7 7 9 5 10 12 11 10 10 10 14 6 4 4 3 4 4 4 3 4 5 14 15 14 13 13 12 12 11 10 10 10 9 9 9 9 10 10 9 8 6 7 7 8 7
10 10 11 8 4 5 5 5 6 5 6 6 7 7 9 11 13 12 12 9 12 10 6 5 5 3 3 6 13 13 13 13 14 13 13 11 10 10 9 9 8 7 7 7 5 4 4 5 5 4 2 1 2 2
11 10 10 7 8 5 5 5 5 7 4 5 6 9 7 7 7 12 15 14 11 7 7 4 4 11 13 13 13 14 14 14 14 13 11 9 9 8 8 7 4 5 5 5 5 4 3 4 5 3 3 3 2 1
12 14 11 8 7 9 6 5 6 8 8 5 7 6 7 11 13 13 11 10 13 7 4 9 14 15 15 15 14 13 9 9 7 10 11 9 6 6 5 5 5 4 3 3 2 3 2 3 3 2 1 3 3 5
9 9 5 6 5 5 6 8 9 8 5 8 5 5 5 5 6 8 7 11 7 11 11 14 13 14 14 13 11 10 10 10 10 11 9 8 7 6 5 4 2 3 3 3 2 1 1 3 3 2 3 3 1 5
9 5 4 4 5 5 4 1 4 3 3 5 4 3 3 4 3 4 6 7 7 10 12 13 14 13 14 13 13 12 10 10 10 9 8 7 6 6 5 4 4 3 2 3 2 1 6 6 3 1 3 3 3 8
4 3 4 4 5 4 4 2 4 4 4 3 3 3 3 3 5 5 4 5 9 9 11 12 11 12 11 11 10 10 9 9 9 8 7 5 4 4 4 3 3 2 1 1 1 2 2 5 1 3 6 0 6 5
3 7 4 4 4 4 4 4 2 3 3 3 3 3 3 3 2 3 3 6 10 10 9 7 6 9 10 9 7 8 9 5 5 5 6 5 3 2 2 2 2 4 2 1 2 3 7 4 3 4 4 3 8 7
5 7 5 2 2 2 3 4 4 5 4 3 3 5 3 2 3 5 3 12 12 11 9 9 9 10 9 7 7 6 5 6 4 4 4 3 3 2 1 1 2 3 9 3 1 2 4 8 6 8 5 6 10 12
4 4 5 4 2 5 5 8 9 5 3 3 4 4 3 3 4 3 11 14 14 13 12 10 7 9 9 7 7 5 4 5 7 4 0 2 2 0 3 5 5 8 7 5 4 3 4 6 5 6 6 6 7 10
5 5 4 4 7 9 4 4 3 3 3 2 4 3 2 3 3 7 10 16 16 14 14 12 12 10 9 7 6 5 5 5 4 5 7 8 11 8 6 4 3 4 6 6 6 7 5 5 6 5 6 9 10 9
5 6 7 6 7 8 9 5 4 4 4 2 3 3 4 4 11 17 15 15 14 12 11 10 10 9 9 8 7 6 4 5 3 3 3 2 3 7 10 7 6 8 6 6 10 11 9 9 8 8 8 9 9 9
3 4 5 7 5 5 7 7 7 5 9 12 15 25 26 21 16 16 14 12 11 11 11 10 9 6 6 4 3 1 2 2 1 2 1 3 7 9 8 7 7 8 8 8 6 6 8 8 9 8 10 10 9 9
5 5 6 7 6 9 14 19 22 20 19 21 19 21 15 11 15 17 14 12 11 10 10 9 8 6 6 6 2 2 6 4 4 4 4 5 6 7 8 8 8 8 8 7 7 7 8 8 7 8 9 11 12 13
4 4 7 5 7 10 3 9 12 16 14 14 14 16 13 9 6 3 13 12 8 9 9 6 5 5 3 2 2 2 3 4 4 5 6 6 8 7 7 7 7 7 7 8 8 9 9 10 11 11 12 13 14 16
17 17 17 14 8 8 7 6 5 7 7 5 4 5 5 4 4 5 14 14 11 10 11 10 6 4 2 1 2 2 3 4 5 6 6 6 6 6 6 7 8 8 9 9 10 10 11 12 13 14 15 16 17 18

GFSWCAN_850_spd_075.txt.gz
Wind_Speed
27 24 24 27 29 28 28 28 26 26 24 21 20 18 15 26 27 30 30 23 25 11 19 17 13 16 14 11 4 12 3 3 2 1 2 3 3 4 4 6 7 9 7 5 3 4 6 15 8 3 10 15 20 20
22 25 28 29 29 29 26 26 27 26 26 26 23 21 18 18 27 29 32 28 23 18 9 6 15 23 23 20 14 4 5 4 3 2 2 3 3 3 2 3 1 4 6 5 6 3 12 22 21 23 23 23 22 23
26 29 31 28 28 28 25 22 22 21 22 23 25 24 22 21 23 33 32 23 21 24 24 27 32 31 26 20 18 7 4 4 4 7 3 2 5 2 2 2 2 4 9 2 5 10 15 25 27 28 25 24 22 20
29 30 27 27 23 19 18 18 16 18 18 19 22 25 24 23 22 31 34 29 24 7 4 13 12 18 14 14 22 19 21 10 12 9 2 2 2 6 3 5 4 4 5 5 4 2 21 25 26 23 21 20 19 14
28 25 25 23 18 20 21 20 20 17 17 18 19 21 24 24 24 24 36 37 31 17 2 7 18 17 20 15 17 22 16 13 6 3 2 2 2 3 1 2 5 9 7 1 2 14 17 12 20 17 19 17 12 13
24 23 23 20 23 24 23 24 24 21 19 20 19 19 22 24 23 25 9 34 39 30 6 4 9 20 8 11 15 18 9 5 2 2 3 6 4 2 2 3 9 18 22 27 7 24 25 16 16 15 13 12 11 12
21 20 21 23 25 26 26 22 19 22 24 21 20 20 22 23 27 24 8 7 35 31 4 3 4 4 9 15 13 16 12 5 3 2 3 4 1 3 2 3 12 18 20 23 17 8 18 15 10 11 9 8 8 11
17 20 23 26 28 27 25 25 24 20 24 21 22 20 22 24 28 15 8 7 34 23 5 3 3 2 13 6 4 8 6 7 4 2 3 3 3 6 4 8 12 16 13 20 19 19 15 15 13 12 13 10 11 13
16 19 23 26 24 25 23 21 23 24 25 26 24 24 40 29 15 12 11 16 34 9 6 4 2 1 10 4 4 4 4 1 3 2 2 3 3 5 5 10 14 17 13 13 11 11 14 14 14 13 10 12 14 14
14 19 20 13 11 4 23 27 30 32 33 34 35 14 7 15 24 26 20 10 8 7 5 2 5 1 8 3 3 4 3 2 3 4 2 3 3 12 12 14 12 13 13 11 11 13 11 12 12 12 13 12 10 9
11 12 8 7 9 17 26 33 35 40 38 29 7 6 31 25 19 3 5 5 6 3 7 7 6 1 3 2 2 3 2 2 2 3 3 2 3 4 13 13 11 10 9 10 11 9 11 10 11 10 12 11 9 9
12 10 10 10 16 24 34 38 40 38 16 10 20 26 22 6 4 4 3 3 4 5 3 5 7 4 4 4 3 3 2 1 2 3 2 2 3 12 11 10 10 10 8 8 8 9 9 9 8 10 13 13 14 14
13 16 24 26 29 32 40 33 32 37 35 33 12 5 5 1 3 6 5 2 3 3 3 6 4 4 3 3 3 1 2 1 1 3 3 3 11 11 10 8 8 7 6 9 11 11 12 13 13 13 15 13 13 14
12 23 32 32 40 31 33 37 32 26 18 6 4 4 2 3 3 2 2 2 2 4 12 13 5 3 3 3 1 3 1 1 1 3 2 3 11 8 6 6 8 11 11 12 13 14 15 15 16 15 15 13 13 15
17 27 28 32 33 30 28 25 21 12 8 6 6 4 3 2 3 3 4 4 3 6 10 8 6 5 2 3 2 3 2 3 3 2 2 14 12 9 9 9 10 10 10 11 11 13 14 14 14 15 13 12 11 10
27 27 22 19 17 26 29 13 12 10 6 5 8 3 1 3 6 8 9 4 2 5 8 5 3 3 3 1 3 3 2 3 1 3 15 13 12 11 11 10 11 11 11 11 11 12 13 12 12 12 10 8 7 5
10 12 16 15 14 9 4 14 6 8 5 4 4 12 8 11 9 7 7 6 3 3 2 2 3 3 1 3 3 3 2 3 14 18 15 13 13 13 11 11 10 10 10 9 10 11 11 10 9 9 8 8 8 8
11 18 11 11 15 15 16 8 7 6 7 9 5 7 16 11 9 10 9 13 5 3 4 2 5 5 3 3 2 3 12 20 19 17 15 13 14 12 11 11 9 8 8 9 10 8 5 5 6 8 9 7 5 6
12 11 7 9 9 5 5 5 6 5 6 7 12 14 13 12 13 15 13 13 16 12 7 5 4 3 2 5 13 18 20 20 20 18 16 14 12 10 10 10 9 9 8 8 4 1 3 5 4 4 4 3 3 2
12 9 4 13 6 5 5 5 6 7 4 5 8 9 7 7 12 15 18 17 14 8 7 4 3 9 10 15 16 18 18 19 19 18 15 13 11 9 9 7 6 7 5 4 3 2 1 1 3 3 5 5 4 4
19 17 14 14 12 8 6 5 5 6 8 6 11 4 8 15 13 10 11 9 10 6 4 9 18 20 19 19 18 16 16 14 13 13 16 12 7 7 6 7 5 5 6 3 1 1 5 5 5 7 6 7 7 6
16 12 9 5 5 5 7 6 10 9 5 8 5 4 6 3 3 7 5 11 6 7 8 19 19 19 19 17 15 15 17 18 17 14 11 11 11 10 8 6 4 3 3 3 3 5 6 6 8 7 5 5 5 9
11 6 4 4 5 5 3 3 3 4 3 5 5 3 3 3 3 6 6 6 6 14 16 16 15 15 19 17 17 14 10 11 13 12 9 8 7 5 4 4 4 4 2 1 4 6 7 8 4 4 2 0 3 5
5 3 4 4 5 4 5 2 4 5 5 2 3 3 3 4 6 5 3 4 13 11 12 14 18 20 17 14 14 12 8 9 14 12 6 4 5 3 1 2 3 1 4 3 4 6 8 7 2 1 4 3 4 5
3 7 4 3 4 4 3 3 2 3 3 3 3 2 2 4 2 3 2 7 15 15 14 15 15 14 16 12 14 14 10 5 5 9 8 5 3 1 1 3 3 4 4 2 3 5 9 8 6 6 8 9 8 9
6 8 5 3 1 4 3 4 3 3 3 3 2 5 5 2 4 3 3 15 19 17 12 14 14 14 12 9 11 11 13 9 5 3 4 5 6 7 6 3 6 7 8 7 7 7 4 5 7 8 7 5 8 10
4 3 5 6 3 3 4 7 9 4 3 3 2 3 3 4 3 2 15 17 19 16 15 15 14 16 15 14 10 5 9 9 6 1 2 3 2 1 4 7 7 8 10 9 7 5 7 10 10 9 8 7 8 11
5 7 4 6 8 12 4 3 4 3 2 5 4 4 3 3 2 5 15 24 23 19 18 17 15 12 9 8 8 9 9 7 5 4 3 2 5 5 5 4 4 5 7 6 5 5 6 7 8 9 9 10 11 13
5 4 7 6 8 8 9 5 3 4 7 3 3 2 3 4 15 26 22 19 17 16 16 14 12 9 11 10 9 7 6 5 4 4 2 2 4 6 9 10 9 7 7 7 7 7 9 9 7 6 4 6 7 4
3 4 6 7 5 4 6 5 7 7 10 15 16 28 29 24 18 13 13 12 13 13 12 11 11 8 8 6 6 6 5 5 4 3 4 6 6 9 10 8 8 9 8 8 6 6 7 7 8 6 7 10 12 13
6 5 6 6 5 12 22 23 24 25 26 29 27 25 19 20 24 20 17 13 11 14 15 15 13 9 7 5 3 4 4 2 0 1 3 4 5 5 6 6 6 7 7 7 7 7 7 7 8 9 9 10 12 13
5 4 7 4 5 15 7 9 11 19 17 15 12 20 15 7 5 5 12 13 10 10 8 8 8 8 7 5 4 2 1 2 2 3 4 5 5 6 6 6 6 7 7 7 8 9 10 10 11 11 13 13 14 15
19 18 17 11 5 7 7 6 6 6 5 4 3 4 4 4 5 6 10 11 15 11 9 7 6 5 5 3 2 1 1 2 3 4 4 4 5 6 6 7 8 8 9 9 10 11 11 12 13 14 15 16 16 16

GFSWCAN_850_spd_078.txt.gz
Wind_Speed
21 24 25 22 20 21 22 23 23 22 20 19 18 17 16 12 17 25 24 20 21 7 14 14 10 9 8 2 2 9 9 3 1 1 2 3 3 4 3 4 4 6 6 5 3 5 8 5 6 1 8 17 20 18
24 24 19 20 22 23 24 24 21 20 22 21 21 19 18 15 14 25 23 23 20 14 9 9 11 17 23 22 12 2 6 5 2 2 0 2 2 3 1 4 3 5 7 5 6 3 11 20 20 22 21 19 18 18
25 21 22 23 24 25 21 20 21 18 19 20 21 21 22 19 17 25 28 20 20 18 20 25 28 27 24 18 13 5 3 3 6 9 3 2 4 1 3 0 4 3 9 2 5 7 14 21 21 25 24 24 21 20
21 22 24 25 24 19 17 17 15 12 12 15 17 19 23 22 20 18 30 24 23 6 4 10 8 11 9 10 22 27 26 15 9 8 4 2 3 4 1 1 5 4 8 5 5 4 6 21 21 19 25 18 18 16
23 25 26 21 20 18 17 15 15 17 16 13 14 16 20 22 20 20 25 28 26 15 3 7 16 12 16 11 11 15 22 20 9 3 2 2 4 3 2 2 4 10 5 1 3 8 11 11 17 14 21 15 16 13
25 25 22 22 20 19 17 17 18 15 16 15 14 16 19 22 23 22 12 31 29 27 4 3 5 10 14 13 19 14 19 16 7 2 4 6 3 2 1 3 10 19 23 19 6 20 18 17 20 13 11 12 12 13
25 22 23 20 17 20 21 20 20 18 21 19 16 16 18 22 27 28 6 6 35 28 4 4 4 5 6 12 9 11 17 7 4 3 4 4 2 3 3 3 12 18 23 21 14 6 15 14 11 12 12 11 11 13
20 18 17 19 22 23 23 23 22 20 18 23 17 18 18 22 25 23 6 6 34 23 5 2 4 4 3 5 4 7 8 6 5 3 4 2 4 4 3 8 13 11 9 17 18 19 15 12 11 12 10 8 10 14
13 17 19 19 23 26 25 24 22 25 22 23 19 20 32 24 12 15 11 20 30 7 8 4 2 2 4 4 5 4 6 2 4 2 2 3 3 4 5 10 12 12 9 6 8 10 10 11 10 9 8 9 10 11
12 16 18 17 18 20 23 26 28 27 30 29 28 12 6 16 25 28 15 6 8 4 5 3 6 2 4 3 2 4 4 2 3 3 5 3 3 11 11 9 7 8 9 6 8 9 7 7 7 7 8 6 5 8
12 15 8 7 8 6 14 33 35 38 38 29 7 5 32 33 20 6 6 5 6 3 6 7 12 2 2 2 3 4 2 2 2 2 2 2 2 4 7 9 7 7 7 8 9 9 9 8 8 8 7 6 7 9
10 3 3 4 9 18 29 41 52 43 24 13 22 32 25 7 4 3 3 4 4 5 5 5 6 5 3 2 2 4 2 1 1 2 3 2 3 8 6 8 7 7 7 7 7 9 8 8 8 10 11 12 12 12
6 14 14 18 24 32 41 46 40 29 31 38 13 5 5 2 3 4 6 3 3 4 6 6 3 5 4 3 3 2 2 1 1 4 2 2 10 8 5 5 5 5 6 8 9 10 11 12 12 12 14 13 13 13
18 30 34 37 37 37 30 33 38 37 17 5 4 4 2 3 2 2 1 2 2 3 13 12 5 3 3 2 1 3 1 2 2 2 2 2 10 9 6 6 8 10 10 12 13 13 14 14 14 13 12 11 10 12
30 30 30 26 24 32 28 29 21 19 5 6 5 4 2 1 2 3 6 6 4 8 9 9 5 4 2 3 2 2 1 2 0 3 2 13 12 9 9 8 9 10 10 11 11 12 13 12 13 14 11 9 8 7
21 30 33 27 26 27 23 12 12 6 6 6 7 4 3 5 5 8 8 4 4 8 8 6 3 3 2 2 4 1 2 4 3 2 18 16 14 11 11 9 9 10 10 13 13 13 12 11 9 9 7 6 5 5
23 19 19 22 22 19 15 12 7 8 6 5 4 11 10 9 6 6 4 3 2 3 2 3 3 1 2 3 2 3 2 3 14 19 16 13 14 13 12 11 10 10 11 12 12 11 11 11 11 9 7 7 6 6
22 21 18 18 18 16 14 9 7 6 7 9 5 8 16 10 8 9 7 6 3 3 3 3 4 4 2 4 2 1 9 20 18 18 16 15 14 13 11 11 10 8 10 10 7 4 3 2 3 3 3 3 2 3
17 13 14 20 16 8 5 5 5 5 6 6 10 11 10 10 15 10 8 12 14 11 8 5 5 2 1 2 11 20 23 22 23 19 17 14 12 11 10 8 8 9 7 6 2 1 3 3 2 2 2 5 7 8
17 12 7 18 13 4 5 5 5 7 4 4 7 7 6 7 6 11 15 14 10 7 7 4 1 2 4 15 22 23 21 23 25 23 18 13 11 10 9 6 6 5 5 3 3 4 6 5 4 6 6 5 6 6
17 14 18 19 12 8 6 5 6 6 8 6 11 4 7 12 8 9 9 10 9 5 4 7 18 17 16 16 15 16 18 16 16 16 20 15 9 9 7 6 6 7 6 7 5 4 5 8 9 10 10 8 6 6
16 14 11 5 5 5 6 6 10 10 5 8 8 4 5 3 3 4 4 11 5 7 6 20 22 20 19 17 15 15 17 14 13 14 12 12 13 10 9 6 5 5 5 6 6 7 8 8 10 10 8 6 2 3
11 6 4 4 5 5 4 5 4 4 4 6 5 4 2 2 4 5 5 5 5 15 19 20 20 19 19 17 17 16 16 15 14 12 11 11 9 6 5 4 5 6 6 5 6 7 8 8 6 5 5 6 5 4
7 3 4 4 5 3 5 2 4 5 6 3 2 3 2 4 7 5 3 3 12 17 17 19 19 20 18 14 14 13 11 11 13 11 7 6 5 4 2 1 3 3 6 7 6 4 4 6 6 6 6 6 7 7
3 6 4 4 4 4 3 2 2 3 2 2 3 1 1 5 3 2 2 8 17 15 17 19 19 17 19 16 14 13 10 7 9 11 10 6 5 5 4 3 2 3 3 5 7 8 7 7 6 6 7 10 9 8
5 7 4 1 1 4 3 3 3 4 3 3 1 4 4 3 3 2 4 18 23 22 23 21 19 17 14 14 14 13 12 9 5 7 8 7 6 7 7 7 7 7 8 7 8 10 10 10 10 10 10 10 9 9
4 2 4 6 1 4 4 6 7 5 3 3 3 2 3 4 2 1 16 22 23 19 16 16 17 13 14 16 13 12 9 7 5 4 4 4 5 7 8 8 9 10 11 11 10 9 9 11 12 13 13 12 12 13
4 5 4 7 8 9 3 3 3 2 1 3 4 3 4 6 4 5 14 24 24 19 18 16 12 11 12 11 9 9 12 10 8 5 5 3 2 2 1 3 5 7 8 8 9 8 7 7 8 9 9 10 10 12
5 4 6 6 7 8 7 2 2 3 4 2 4 2 3 3 8 23 26 22 20 19 20 20 18 14 11 12 12 11 9 7 5 6 5 3 3 5 7 8 6 5 6 7 7 7 7 6 6 7 7 8 8 8
3 4 6 5 4 3 7 4 6 8 7 12 12 23 25 24 22 22 21 18 16 15 14 13 11 10 10 10 9 8 7 6 5 5 7 6 6 7 8 8 8 7 7 6 6 6 6 8 8 8 9 11 12 12
5 5 6 5 5 14 20 20 18 16 20 27 29 26 20 21 19 14 12 10 12 15 16 15 14 12 9 8 7 6 5 4 3 3 3 4 4 4 5 5 5 4 4 5 6 6 6 7 7 8 9 10 11 13
4 3 7 4 6 16 9 10 11 18 16 17 16 21 13 6 5 5 15 13 10 11 10 8 6 7 7 6 4 3 2 2 1 1 1 1 2 2 2 2 2 3 4 5 6 7 8 9 9 10 11 12 13 14
17 18 18 13 6 7 8 7 5 7 7 10 7 2 3 3 4 5 10 12 10 7 9 8 7 7 6 5 3 2 1 1 1 0 1 1 2 2 3 4 4 5 6 7 8 9 10 11 12 13 14 15 15 15

GFSWCAN_850_spd_081.txt.gz
Wind_Speed
16 21 18 19 20 22 21 18 17 18 18 18 17 17 16 14 12 20 26 21 23 7 14 8 9 14 11 3 1 7 6 5 3 2 1 1 2 3 2 4 3 5 5 4 3 3 8 14 7 3 5 11 14 19
20 21 20 23 19 16 17 17 18 19 20 18 19 18 17 15 13 16 23 21 20 13 8 10 16 18 14 15 11 3 1 2 4 2 1 2 2 3 3 3 3 3 3 3 4 1 10 18 18 18 11 19 15 16
22 23 23 22 19 17 18 20 20 19 18 19 20 21 20 18 17 18 24 17 18 15 18 25 25 18 19 21 15 4 3 1 4 7 3 2 4 2 2 1 4 7 7 2 4 6 10 17 20 19 19 19 19 18
24 24 22 18 17 19 21 18 16 16 17 14 13 18 21 21 19 20 26 21 19 5 4 7 6 11 7 7 17 22 20 12 13 12 3 2 3 3 1 3 3 4 12 6 5 5 7 17 20 17 21 18 17 17
24 21 18 19 21 22 17 17 17 17 15 14 13 14 16 22 22 21 22 21 21 12 3 8 18 6 10 14 12 10 18 20 11 4 2 2 3 2 2 2 3 12 5 3 3 5 12 7 14 15 20 17 14 13
21 20 22 23 22 20 19 20 18 15 14 15 14 13 14 20 23 20 10 24 25 22 4 3 5 6 4 7 8 14 13 13 8 4 4 5 4 2 1 2 7 17 24 20 4 20 19 16 18 16 17 15 13 13
22 23 24 23 21 21 21 20 19 17 17 14 12 13 14 23 28 23 5 4 21 23 4 4 5 3 5 6 7 10 10 8 7 3 3 3 4 5 2 2 11 15 19 21 9 4 17 13 11 12 12 13 11 13
22 23 21 21 21 21 21 21 20 19 17 15 16 13 13 23 25 26 10 3 25 20 5 2 4 5 5 5 4 6 8 9 5 3 3 1 4 4 3 4 9 12 8 17 17 17 16 12 11 11 8 9 10 14
22 21 20 19 20 22 22 22 22 21 19 18 20 17 20 23 16 18 24 13 28 7 7 4 2 2 2 2 5 3 4 1 3 2 1 3 2 3 3 4 8 12 10 7 8 8 8 10 10 8 8 9 11 11
17 17 18 20 23 24 25 27 26 23 23 22 25 10 7 14 16 17 13 8 7 5 6 4 5 2 2 3 3 5 5 2 2 2 6 3 2 7 6 5 4 7 8 4 2 7 7 8 8 9 9 8 7 8
15 16 19 21 21 21 23 26 30 32 30 29 12 5 22 30 20 6 5 4 5 3 6 6 14 3 4 1 4 6 2 2 2 2 2 2 3 3 4 4 4 5 6 6 6 6 5 5 5 6 7 7 7 7
16 15 14 14 15 20 25 32 40 38 30 24 15 31 25 7 4 4 3 5 5 5 7 5 7 9 5 6 3 3 2 2 2 3 3 1 3 10 5 4 4 4 3 3 4 3 3 4 5 6 9 11 11 10
6 7 6 5 8 11 24 41 48 40 34 36 13 9 6 3 3 6 6 3 3 5 8 8 4 6 3 4 2 1 2 3 4 4 2 1 11 8 5 2 4 4 6 9 9 9 10 11 11 12 13 13 11 12
11 15 15 18 34 38 42 39 40 38 31 5 5 4 2 2 2 3 3 4 3 5 14 15 5 2 3 2 1 3 3 2 2 1 3 3 15 13 9 7 9 11 11 13 14 14 14 13 14 13 12 10 8 9
26 23 25 32 37 42 39 40 38 17 6 4 3 3 1 1 3 4 8 7 5 12 12 8 5 3 1 3 2 2 3 1 3 3 2 14 13 11 11 11 11 12 13 14 13 14 14 13 12 12 11 8 7 7
23 26 25 27 28 33 40 40 23 6 6 4 6 4 3 4 3 5 8 5 5 13 10 4 3 2 2 2 3 1 1 4 2 2 16 18 15 13 13 12 13 14 14 15 14 13 12 10 9 8 8 7 7 8
24 22 20 21 29 20 12 14 5 7 5 4 4 9 10 10 5 4 5 4 5 5 2 3 3 2 2 3 1 1 3 2 11 20 18 14 14 14 13 14 14 14 14 13 13 12 11 10 10 9 8 7 6 6
24 21 18 20 17 11 11 8 6 6 7 7 5 5 11 8 6 7 4 5 5 4 2 2 3 4 3 5 3 3 6 16 20 18 16 15 14 13 12 13 12 11 11 10 7 5 3 3 3 4 6 6 6 6
21 21 19 17 14 10 5 5 5 5 6 6 9 9 10 11 12 9 10 12 11 11 10 4 4 2 2 2 4 18 23 24 24 19 16 13 12 12 11 9 9 9 6 4 3 4 2 3 5 6 7 9 11 11
13 15 23 20 12 6 5 5 5 7 4 4 7 7 6 6 7 11 11 9 8 5 7 3 1 1 2 8 21 24 22 23 25 23 17 14 11 8 8 6 6 4 4 3 3 4 5 6 6 8 9 9 7 8
18 18 21 20 16 9 6 4 5 5 7 6 10 4 5 7 5 6 8 7 7 4 3 3 9 13 15 17 17 16 19 19 19 16 21 18 13 9 8 6 5 4 4 4 5 5 6 8 9 9 9 8 6 6
21 19 15 8 6 5 6 4 9 8 5 8 5 4 5 3 3 4 4 9 5 4 6 16 18 18 17 16 16 16 16 13 10 13 12 11 12 10 7 4 4 4 4 5 5 6 7 8 10 10 8 7 6 6
11 7 4 4 5 4 4 5 4 3 3 5 4 3 2 2 3 3 5 4 3 11 20 20 18 17 19 19 18 17 13 12 13 10 10 9 8 5 3 3 4 4 5 5 6 7 7 7 7 8 8 7 7 9
6 3 3 3 4 3 6 3 4 5 5 2 2 2 1 4 5 4 2 2 12 21 20 20 20 21 19 16 16 15 13 10 11 10 7 6 5 4 3 3 3 3 4 5 5 6 7 8 7 5 6 8 9 9
2 5 3 3 3 4 3 2 2 3 2 2 3 1 1 5 2 2 3 7 20 21 21 20 17 16 18 17 16 14 11 7 8 10 9 5 4 5 4 3 3 4 5 6 7 9 10 11 9 9 10 10 10 9
5 7 3 1 1 4 3 3 3 4 3 2 2 4 3 3 3 3 3 20 25 24 23 21 19 18 15 12 14 13 11 8 4 5 6 6 5 5 6 7 7 8 9 9 10 10 10 10 11 12 12 13 13 12
4 2 4 6 2 4 5 6 5 4 3 3 3 2 3 3 3 2 11 19 23 23 20 17 15 12 13 15 13 11 9 7 5 4 5 7 7 8 9 8 9 11 12 12 12 11 11 12 13 13 14 14 14 14
4 4 3 5 8 8 4 3 3 2 1 1 4 3 5 6 4 4 10 19 22 25 22 15 12 8 11 12 10 9 9 9 7 5 4 3 3 3 3 4 6 8 9 9 9 10 10 10 10 10 10 11 11 13
4 3 4 5 6 7 7 2 1 2 2 2 4 2 2 3 2 11 22 22 19 19 21 20 18 15 12 10 9 9 8 6 5 5 5 4 4 4 5 6 5 5 6 7 7 8 8 8 9 10 10 10 11 13
3 4 6 4 4 3 5 5 4 4 5 8 8 11 11 12 15 22 21 19 17 15 14 13 12 11 9 9 9 9 8 7 6 5 4 5 6 6 7 7 6 5 6 6 6 7 8 9 10 11 11 12 13 14
5 4 5 6 5 9 17 15 12 10 9 12 22 25 18 14 17 15 16 15 14 15 15 15 13 11 9 8 7 5 4 4 4 4 4 5 5 4 4 4 4 5 5 6 6 7 7 9 10 11 12 13 14 16
3 3 6 4 4 12 7 5 7 10 10 13 9 14 12 6 5 5 11 11 11 13 12 10 9 11 11 9 7 5 4 3 3 3 3 2 2 2 2 3 4 5 6 6 7 8 9 10 11 13 14 15 16 16
11 13 13 8 6 7 6 6 4 4 4 4 3 2 4 3 4 6 13 12 8 8 11 10 10 10 8 7 5 4 3 2 2 1 0 0 0 1 2 3 4 5 6 7 8 9 11 12 13 14 15 16 17 18

GFSWCAN_850_spd_087.txt.gz
Wind_Speed
14 16 17 20 17 18 12 9 14 16 13 14 13 12 12 10 11 13 15 16 18 7 16 17 13 11 13 8 5 16 9 8 6 7 4 3 2 3 3 3 3 1 2 2 2 3 3 17 5 5 3 5 14 20
18 15 16 21 20 12 11 13 16 16 14 12 13 12 11 12 12 13 13 12 13 14 10 18 24 26 21 15 8 5 2 4 5 3 3 3 2 2 2 1 5 2 4 3 4 3 7 14 12 12 15 13 17 17
19 19 21 22 14 14 15 16 15 12 11 12 13 13 11 12 14 14 13 9 16 12 18 17 10 10 9 15 17 5 4 2 3 7 4 2 3 1 2 2 3 7 10 2 2 6 12 15 15 16 15 17 18 17
20 20 22 21 17 15 15 16 15 12 13 16 15 14 14 14 15 16 16 11 12 2 2 6 7 8 9 10 8 15 22 14 11 13 4 2 3 3 2 3 3 4 9 7 2 8 8 18 17 13 15 16 19 18
20 22 24 17 14 14 15 15 16 15 15 15 16 16 16 15 18 16 14 13 9 8 2 10 20 3 7 7 9 7 12 15 8 4 3 2 2 3 3 3 3 7 4 3 3 4 13 10 12 13 16 16 15 15
21 23 22 19 17 16 15 14 14 14 15 14 13 14 7 11 21 19 11 15 15 20 3 3 6 4 7 7 6 8 6 7 5 3 4 4 1 4 2 2 3 8 12 16 4 17 19 16 14 13 15 15 15 17
23 24 24 19 17 16 15 15 15 16 15 13 13 9 11 12 24 22 7 5 17 16 3 4 6 2 2 1 5 7 7 4 5 3 3 3 3 4 2 2 5 8 13 15 10 13 13 13 8 10 13 14 16 18
23 22 19 19 18 18 17 16 16 18 14 14 12 11 10 8 22 25 4 1 13 19 3 2 4 5 2 2 2 4 4 5 5 3 3 1 2 2 3 6 7 8 7 13 15 15 14 11 11 11 12 12 16 18
21 19 20 20 19 20 17 15 17 18 17 17 13 11 19 19 14 21 9 5 17 7 4 3 2 2 2 3 2 3 4 2 2 2 1 1 1 3 3 6 7 8 5 4 9 11 11 12 12 12 12 13 16 15
19 20 21 20 20 19 18 18 18 20 19 14 15 8 5 12 13 21 14 13 12 8 5 3 4 2 4 3 1 1 3 2 2 2 5 2 2 8 7 6 6 6 7 6 4 7 8 10 11 12 13 12 13 14
21 22 22 21 21 21 22 23 23 23 19 17 8 4 17 32 13 9 6 5 6 3 6 5 14 3 5 2 2 6 1 1 2 2 1 2 2 4 7 5 6 6 7 9 9 9 8 9 10 12 13 14 14 15
23 22 21 20 22 23 24 23 27 25 22 17 12 18 23 6 4 4 3 4 4 4 7 6 7 10 5 4 2 4 2 2 2 2 1 2 3 11 8 5 6 6 7 8 8 10 11 13 14 16 17 17 16 17
21 23 26 26 24 25 28 31 29 29 18 20 7 8 5 5 4 7 7 4 3 6 9 8 4 7 4 4 4 2 2 1 3 1 1 1 11 10 8 7 8 8 9 11 14 16 17 19 19 18 19 17 15 15
24 23 25 27 28 30 32 30 30 31 21 6 7 6 5 3 4 5 4 4 5 6 16 16 6 3 5 4 1 2 0 1 1 2 2 5 13 12 10 8 10 14 14 17 18 18 17 17 18 17 16 14 11 11
18 19 22 29 34 36 34 32 31 38 6 4 6 5 5 3 2 4 7 8 6 12 18 9 4 4 1 1 1 2 2 3 3 2 2 12 17 14 13 14 16 17 18 18 18 17 16 14 12 12 12 11 10 10
17 14 13 20 33 35 37 39 46 27 5 3 3 3 5 5 4 7 7 7 11 17 13 4 2 2 2 2 3 4 4 4 2 2 16 21 17 15 17 17 18 18 17 17 15 13 12 10 9 9 9 8 7 7
19 22 22 21 36 39 49 47 23 6 6 4 2 6 7 7 7 6 8 8 13 14 2 3 3 3 3 1 2 2 3 1 7 19 21 17 18 18 18 18 17 16 14 12 11 10 9 8 7 6 5 4 4 4
33 31 38 45 52 46 36 12 6 5 5 4 3 6 7 8 10 8 7 10 8 7 5 2 4 2 3 4 2 3 5 14 19 20 18 18 18 17 17 17 16 13 12 10 8 6 4 3 2 3 3 4 5 5
28 27 31 31 28 17 6 5 4 5 5 6 9 9 8 9 9 9 9 9 9 8 9 3 3 2 2 3 4 12 23 25 25 21 19 17 17 18 17 15 14 13 10 7 4 4 3 1 1 3 5 7 6 7
23 21 21 23 10 6 6 6 5 7 4 4 7 7 7 6 7 8 9 9 10 4 3 2 1 2 3 4 10 24 27 27 28 27 22 19 17 15 14 14 13 11 8 6 4 3 1 1 4 6 8 8 8 7
19 18 18 17 14 9 7 4 6 5 7 7 11 4 5 6 4 3 4 5 3 3 2 3 4 6 9 14 20 24 24 25 27 26 28 23 18 14 13 12 9 7 5 4 3 2 3 5 7 8 8 8 6 6
19 17 13 8 5 5 7 7 9 8 5 9 6 4 4 3 2 2 3 4 3 2 4 8 14 19 21 22 21 19 20 19 16 18 19 19 18 15 12 10 8 7 5 4 4 4 5 6 6 6 7 6 6 6
18 11 6 6 5 5 5 5 4 4 3 4 4 3 2 2 3 4 4 2 2 6 13 18 20 20 21 22 22 21 18 14 19 17 17 15 13 11 9 8 6 5 5 5 5 5 5 5 5 6 6 6 7 7
11 6 4 4 4 3 5 3 4 5 5 2 2 3 2 4 5 2 2 3 7 15 18 21 23 25 24 22 22 19 15 17 17 17 14 13 13 11 8 5 4 4 3 2 3 4 6 7 8 8 8 8 9 10
5 5 4 4 3 4 3 2 2 3 2 2 3 1 2 5 2 1 2 6 17 19 21 22 24 25 27 23 20 19 16 13 14 15 14 10 7 7 6 5 3 2 2 3 5 7 9 10 10 10 10 10 11 12
5 5 3 2 2 3 3 4 4 4 3 2 2 4 4 2 2 3 2 14 20 24 25 25 26 26 23 21 21 20 16 13 10 9 10 9 6 4 3 3 4 4 6 7 9 9 10 10 9 9 9 10 11 11
4 2 4 4 3 6 5 5 5 4 3 4 3 3 3 3 4 2 2 16 21 23 21 19 18 18 20 20 19 17 15 13 10 8 7 6 5 4 4 4 5 6 7 8 9 9 8 7 7 7 8 8 10 10
4 3 3 3 7 6 4 3 3 2 1 1 5 2 6 4 3 3 5 16 22 24 21 19 16 13 16 17 16 15 14 11 8 7 5 4 3 2 1 2 4 7 7 7 7 6 6 7 8 8 10 11 11 12
4 4 3 5 5 6 6 2 2 2 1 2 3 2 3 2 2 5 12 19 22 22 21 20 19 18 18 17 15 12 8 7 5 5 4 2 1 2 3 5 6 6 6 6 7 7 7 8 8 9 10 11 12 13
3 4 5 4 4 2 4 3 3 5 5 7 7 7 7 6 6 12 18 21 22 20 19 17 15 16 17 15 14 12 10 8 5 3 2 1 2 3 3 4 4 4 4 5 5 7 8 8 9 11 12 14 15 16
4 3 5 5 3 6 11 12 10 7 5 6 9 11 10 8 10 12 17 20 19 18 17 16 16 14 11 10 9 8 8 6 4 3 1 1 1 1 1 1 2 3 4 5 6 7 8 10 11 12 14 15 16 17
3 3 6 3 3 8 4 2 4 4 4 4 4 6 9 6 5 6 13 18 18 15 15 15 14 13 13 12 10 8 5 5 4 2 1 1 1 1 1 2 3 4 5 7 8 9 11 12 13 15 16 17 18 20
5 8 7 6 5 5 5 5 3 3 3 3 3 2 5 4 5 6 13 16 16 16 17 16 13 11 10 9 8 6 5 4 3 2 2 2 1 2 3 4 5 6 7 9 10 12 13 14 16 17 18 20 21 22

GFSWCAN_850_spd_090.txt.gz
Wind_Speed
19 15 14 17 17 21 21 19 16 16 15 12 14 14 13 12 11 12 12 11 10 5 14 13 12 11 10 7 6 13 7 11 8 7 5 3 3 4 3 4 4 3 3 2 2 3 2 24 5 6 7 9 9 12
19 14 12 15 20 20 21 17 14 14 15 15 15 14 14 13 12 12 11 9 8 11 10 12 15 20 17 14 11 8 5 5 4 4 5 4 2 2 4 2 6 2 5 4 5 3 8 12 12 10 12 11 11 10
14 13 14 15 24 23 18 17 14 15 15 14 14 14 14 12 13 13 13 10 8 8 15 10 3 5 5 6 11 5 2 4 5 8 5 3 3 4 3 4 2 3 12 2 4 7 10 12 12 14 14 13 12 12
18 16 20 19 23 15 17 15 14 14 15 15 15 14 14 13 13 15 14 10 8 3 4 1 4 10 10 8 7 10 12 11 11 11 4 3 2 2 3 3 4 4 8 5 5 9 5 14 14 11 12 12 13 14
20 16 21 23 24 16 16 14 14 18 17 16 17 17 16 15 14 15 14 14 9 5 4 8 10 1 3 3 6 9 8 7 5 3 3 2 2 2 2 1 4 7 4 4 3 3 10 8 9 9 11 11 11 13
19 16 22 26 23 17 14 13 14 20 17 16 15 18 18 18 20 16 7 16 16 13 4 3 4 1 3 1 5 7 5 4 3 3 5 5 1 3 0 2 3 7 8 8 5 13 15 10 10 10 12 11 11 13
19 18 24 27 20 16 13 13 17 17 15 16 15 15 12 8 25 20 5 3 14 15 2 4 3 1 0 1 3 5 5 2 4 4 3 4 3 3 2 2 5 7 9 10 9 12 11 4 6 8 9 11 12 14
19 23 27 27 20 17 13 18 18 16 15 16 16 13 8 15 22 23 5 1 13 12 3 2 3 2 2 1 3 3 3 4 5 3 3 3 1 2 2 6 5 5 8 10 10 8 11 9 8 8 8 9 11 13
21 25 29 24 22 18 18 19 18 15 17 19 18 9 19 24 15 16 10 9 17 5 2 3 2 1 2 2 2 4 3 3 2 2 2 1 0 2 4 7 6 5 3 7 8 8 8 8 8 7 9 10 12 13
23 21 23 23 19 17 21 19 17 18 18 19 15 7 6 12 11 21 11 8 9 5 5 4 4 2 4 4 3 1 3 2 2 3 4 1 3 6 6 6 5 4 4 8 6 6 6 7 8 9 10 10 11 12
22 23 23 20 19 19 22 21 19 19 18 16 8 4 18 26 15 5 5 4 6 4 7 6 12 4 5 3 3 5 1 2 2 3 2 2 3 6 7 6 5 6 7 8 8 8 7 8 9 10 11 12 13 14
21 21 21 21 20 22 25 23 20 21 11 12 11 17 26 6 4 4 5 3 5 4 6 5 7 11 3 2 2 3 2 2 2 3 2 2 3 11 9 7 7 7 8 9 9 11 11 12 12 13 13 14 15 14
22 21 22 22 22 25 26 22 25 21 18 23 6 7 6 5 5 7 8 4 4 6 9 9 4 8 3 4 2 2 4 1 1 2 1 3 12 11 9 9 9 8 10 11 13 14 15 17 17 16 16 15 12 10
23 22 21 21 24 25 23 25 28 28 24 4 6 6 5 5 5 5 5 3 4 5 14 14 7 4 3 4 2 3 1 2 2 3 1 5 14 13 11 9 11 12 14 15 17 17 18 17 16 15 13 11 8 8
23 25 27 29 28 29 24 26 33 32 8 4 5 5 7 2 2 3 5 6 5 11 16 9 3 3 2 2 1 1 3 3 3 1 3 14 16 14 13 13 16 18 18 19 18 17 16 14 11 11 10 9 8 7
23 22 29 30 33 30 29 33 36 25 5 4 2 4 3 5 4 6 6 6 10 18 11 3 3 3 3 2 3 5 2 4 2 3 13 18 16 16 17 18 19 19 19 19 17 14 13 11 10 9 8 7 6 5
28 22 27 33 35 35 33 33 20 6 6 4 2 3 2 2 8 6 6 8 17 15 2 2 4 2 2 2 3 3 2 2 8 14 15 15 19 20 21 21 21 20 18 16 14 12 11 9 7 6 4 2 3 4
17 16 23 36 43 42 32 11 6 5 3 3 4 5 2 5 8 7 6 14 10 6 4 1 3 3 3 2 2 4 5 9 13 14 14 17 20 21 20 21 20 17 15 13 11 9 6 4 3 1 2 4 5 6
26 31 34 43 46 29 6 4 3 5 3 5 7 5 5 7 7 8 9 12 9 8 5 2 2 2 1 1 2 9 15 14 18 14 17 18 19 20 20 19 17 15 12 9 6 4 3 3 1 1 2 3 4 5
27 28 34 37 31 7 6 5 6 6 5 6 7 7 6 5 6 7 8 10 9 5 1 2 0 1 1 2 6 14 16 18 21 21 17 15 19 19 18 16 13 12 8 5 4 3 2 2 4 5 6 5 4 4
20 19 23 25 16 8 7 5 5 4 7 6 10 6 5 6 4 3 4 8 2 2 3 2 3 4 5 8 13 18 19 18 16 16 21 20 16 14 15 12 10 7 5 5 4 4 4 4 5 7 6 5 6 6
22 21 15 8 6 5 7 6 9 8 5 8 6 5 5 4 4 3 6 2 3 3 4 5 7 11 14 17 20 17 20 18 16 19 19 20 16 13 12 10 8 7 6 6 6 5 5 6 8 7 6 6 6 6
18 13 7 7 6 6 5 5 4 3 4 5 4 4 2 3 3 6 3 2 2 5 8 10 14 15 18 20 19 19 18 17 16 16 17 13 12 11 10 9 8 7 6 6 7 5 6 7 7 7 8 7 6 5
12 5 4 4 4 4 5 3 4 5 6 3 3 3 3 3 4 3 2 4 5 9 11 16 18 19 19 20 17 19 17 15 17 16 15 14 13 12 10 10 8 7 7 6 6 6 7 8 9 9 9 9 8 9
5 5 4 4 3 4 4 4 3 3 3 3 4 3 4 5 3 4 3 6 13 15 16 17 16 16 19 18 16 17 18 17 17 17 15 12 11 11 9 8 7 6 5 5 6 7 9 10 10 10 10 10 10 11
5 4 2 2 3 2 4 4 4 4 4 4 3 5 5 3 4 3 2 9 15 17 19 19 19 18 16 16 19 20 19 16 14 14 14 13 10 8 7 7 6 6 6 6 7 8 9 9 9 9 9 10 10 10
4 2 3 4 3 5 4 4 4 2 3 4 5 5 4 4 4 2 1 10 11 16 16 16 17 17 20 21 21 20 18 16 15 12 12 12 9 8 6 5 5 6 6 7 7 7 7 7 7 7 7 8 9 9
4 2 3 2 5 5 3 2 2 2 2 2 7 5 4 0 2 2 2 11 16 21 22 21 20 18 20 20 18 17 16 14 12 10 10 9 7 6 5 4 4 4 5 5 5 5 4 5 6 7 7 8 9 11
4 4 3 4 4 5 4 2 2 2 1 3 3 2 3 2 1 3 8 15 20 21 22 21 20 19 20 19 17 16 13 11 10 10 9 7 6 5 4 3 3 3 3 3 3 3 4 5 6 7 8 10 11 12
3 3 4 3 3 2 2 2 3 4 5 6 5 5 5 3 3 9 14 20 22 21 20 19 19 20 20 19 18 16 13 11 9 8 6 5 5 4 4 2 1 1 2 3 4 5 5 6 8 9 11 13 14 15
4 3 4 4 3 4 6 10 10 8 5 5 7 6 6 5 7 10 17 20 20 19 19 18 19 18 16 16 14 12 12 10 8 6 5 4 3 3 2 1 0 1 2 3 4 5 7 8 10 11 13 14 15 17
2 3 4 3 4 7 6 2 3 3 3 3 2 5 6 4 4 8 15 18 19 20 19 17 18 18 16 14 13 11 10 8 7 6 5 4 3 3 2 1 0 1 2 4 5 7 9 10 12 14 15 17 18 19
4 5 5 5 5 5 4 4 2 3 3 3 3 4 3 3 4 7 15 20 20 18 18 18 16 14 14 13 11 10 9 9 8 6 5 5 4 3 2 1 1 3 5 6 8 9 11 13 15 16 17 18 20 21

GFSWCAN_850_spd_093.txt.gz
Wind_Speed
17 17 18 17 16 14 14 18 23 16 14 12 14 16 15 12 10 9 7 4 4 4 13 8 8 10 12 11 7 17 7 12 7 8 5 5 4 4 1 7 4 6 5 3 2 3 4 27 8 7 8 7 9 12
18 16 15 16 17 16 19 23 19 16 18 13 12 14 15 13 11 9 8 7 6 11 10 19 18 16 14 13 12 8 3 7 8 5 6 4 4 5 4 2 9 3 6 4 5 4 7 13 13 11 10 9 12 11
19 19 16 17 14 20 24 19 17 16 14 13 14 14 15 14 13 11 7 8 6 7 13 5 3 1 4 6 9 5 3 6 4 6 5 3 3 6 6 5 1 4 14 4 5 7 9 11 12 12 10 12 12 11
24 20 16 16 17 24 20 20 18 16 14 14 14 15 14 13 13 13 11 9 6 4 4 0 4 8 6 6 7 10 9 10 8 9 5 3 3 9 4 4 5 4 8 5 6 9 10 14 12 9 10 12 12 12
19 17 14 14 17 23 22 19 18 14 13 15 16 14 14 13 12 12 11 10 8 4 5 10 10 3 2 4 6 8 7 6 6 5 2 2 1 2 2 0 4 7 5 4 4 4 11 10 9 9 11 12 11 11
19 17 15 18 23 23 19 20 15 14 17 16 14 15 14 14 14 11 7 12 14 12 4 3 3 3 4 4 4 6 5 3 2 4 4 5 2 5 3 3 4 8 7 5 5 13 15 11 11 11 12 11 11 11
19 17 16 18 26 22 18 17 13 15 21 16 15 15 17 18 18 14 3 0 8 13 3 4 3 3 3 3 3 4 4 4 4 5 3 4 2 5 2 3 8 6 9 10 9 7 10 9 7 9 10 11 12 12
19 19 15 24 26 20 18 14 14 18 19 15 15 15 19 16 16 23 5 2 10 7 2 2 4 3 4 3 2 3 3 3 4 4 3 3 1 2 2 7 6 7 8 9 8 8 10 9 8 8 8 8 9 10
20 20 21 27 26 20 17 13 19 19 15 15 15 15 13 18 15 17 14 5 10 4 2 3 3 2 2 4 2 5 4 3 2 2 2 2 2 3 5 7 6 3 3 5 6 7 7 7 7 8 8 8 10 10
20 21 24 29 26 20 16 18 19 18 15 17 15 8 6 13 12 16 9 6 6 5 5 5 8 3 5 1 3 3 3 2 2 2 2 2 3 6 6 6 4 3 3 5 6 5 5 6 7 8 8 9 9 9
22 23 26 29 24 21 17 20 18 16 18 16 8 3 12 20 15 5 5 5 6 4 6 6 11 6 4 2 2 2 2 2 3 3 2 2 3 7 8 7 5 5 6 5 5 6 6 8 9 9 10 10 10 9
24 24 24 25 23 20 19 22 20 21 14 11 9 13 25 6 4 4 5 4 5 4 8 5 6 8 2 0 2 3 2 2 3 2 2 2 4 11 10 8 7 7 8 9 9 10 11 11 11 11 11 11 11 10
25 21 22 24 21 20 20 24 26 22 14 16 6 6 5 5 6 6 8 4 4 5 6 7 3 6 3 4 3 2 3 2 2 2 1 3 13 13 11 9 9 9 10 11 12 12 13 13 13 13 13 12 9 7
25 22 22 21 20 21 23 27 23 20 14 6 5 6 5 5 5 4 5 3 3 5 11 11 7 4 4 4 2 3 1 2 2 2 2 6 15 14 12 11 12 12 12 13 13 14 15 15 14 12 9 8 7 6
26 23 19 19 21 23 26 28 23 23 7 5 4 5 6 2 2 2 5 5 4 10 14 5 2 4 3 3 3 1 2 3 3 2 3 14 16 15 13 13 14 14 14 15 16 16 14 12 9 8 7 6 5 5
25 19 21 22 24 26 28 23 25 23 5 3 2 2 3 4 4 5 7 6 8 14 12 4 3 2 4 2 3 4 2 3 3 3 12 18 16 14 14 14 15 16 15 16 15 13 10 9 7 5 4 3 3 4
24 21 24 29 28 27 25 20 14 8 6 5 2 4 3 0 5 7 9 9 14 12 2 3 4 2 1 2 2 2 1 3 8 12 13 14 15 16 16 17 18 17 16 14 12 10 9 7 5 5 4 3 4 6
32 30 27 29 31 31 23 11 7 4 2 2 4 6 5 5 5 8 7 13 13 5 4 1 0 3 3 2 2 3 5 9 12 13 14 15 16 17 17 18 18 15 13 12 11 9 6 6 4 2 2 3 4 5
25 25 24 36 42 25 7 5 5 4 2 4 5 6 5 5 6 9 8 15 9 7 1 1 1 2 1 2 3 8 12 14 16 15 14 15 16 18 17 17 15 13 12 10 7 4 3 5 3 1 2 3 4 5
24 24 37 42 42 8 5 4 6 4 4 7 7 8 6 5 6 6 7 9 6 3 4 3 1 2 1 2 4 11 14 17 19 19 17 15 15 17 16 15 12 11 9 7 5 5 2 1 1 2 4 4 3 4
44 43 42 48 16 7 5 6 5 5 8 5 9 9 5 7 5 5 5 6 5 4 3 2 3 4 4 7 10 13 17 17 15 15 19 20 17 15 14 12 12 9 7 6 5 4 5 3 3 4 4 4 6 6
30 34 31 21 6 4 4 2 8 10 5 8 10 6 5 5 6 6 6 6 3 3 3 4 6 7 9 11 13 13 16 15 14 17 17 19 18 15 13 12 11 8 7 6 5 5 4 4 4 5 5 6 8 6
26 21 10 6 5 4 6 5 3 5 4 8 7 4 3 4 6 7 5 4 4 5 6 7 10 10 14 15 15 15 15 16 16 17 18 15 13 13 12 10 8 8 6 5 4 4 4 7 8 7 6 7 7 7
11 5 4 4 4 5 6 3 5 6 6 5 4 4 5 5 8 5 3 5 6 9 10 13 14 16 15 15 14 14 14 14 16 17 15 14 13 11 9 8 7 6 5 5 4 4 5 4 8 6 7 8 8 9
5 4 3 4 4 6 5 6 5 4 4 5 6 3 5 6 4 4 3 6 11 13 14 15 14 14 16 16 15 14 16 15 15 15 13 11 11 11 8 7 6 5 5 3 3 4 5 7 7 7 7 8 9 10
4 3 2 3 4 4 5 5 6 6 4 4 3 6 5 4 4 3 2 5 10 15 17 18 18 17 16 15 15 16 15 13 14 13 11 11 9 8 7 6 4 4 7 7 6 5 6 8 8 9 7 7 11 10
3 3 3 3 3 6 4 4 6 3 4 5 5 6 5 5 5 3 2 5 8 13 15 17 15 15 16 17 17 16 14 15 13 13 13 12 11 10 7 5 5 10 8 7 8 8 7 8 7 7 7 6 7 9
4 2 4 4 4 2 3 2 3 3 3 2 9 5 4 1 3 3 2 10 13 17 19 17 13 16 19 17 17 19 18 15 12 10 10 9 8 7 6 6 7 7 7 6 6 6 6 6 7 7 7 9 10 12
3 4 5 4 4 4 3 2 2 2 1 2 3 3 3 3 3 4 5 11 16 19 21 22 22 21 19 17 16 16 14 13 11 11 9 7 6 6 6 5 5 5 5 4 4 5 5 6 7 7 9 11 13 14
3 2 4 3 2 2 2 2 3 3 3 4 5 5 6 4 3 8 9 13 12 13 15 17 18 18 19 18 18 17 15 13 12 9 6 5 6 4 5 5 4 3 3 3 4 5 5 7 9 10 11 13 12 12
3 3 4 3 3 4 5 6 7 7 5 4 6 6 8 6 5 9 13 15 16 16 17 17 16 15 16 16 16 15 13 12 9 8 6 5 5 5 4 3 3 2 2 3 4 6 7 9 10 12 13 15 17 18
3 2 4 3 4 6 5 3 3 3 4 4 3 4 5 5 4 4 13 14 12 13 15 16 15 15 16 17 15 12 11 10 9 7 6 5 4 4 3 2 1 1 2 4 6 7 9 11 13 14 16 17 19 20
5 5 6 6 5 6 5 4 3 3 4 4 4 5 2 2 4 5 14 18 14 13 16 17 16 16 16 14 12 11 10 9 9 7 6 5 5 4 3 2 0 2 4 6 7 9 11 13 15 16 18 19 21 22

GFSWCAN_850_spd_096.txt.gz
Wind_Speed
20 18 17 16 17 17 13 9 12 16 16 12 13 13 12 10 9 7 2 2 2 4 12 6 7 10 11 11 7 18 10 10 7 7 6 5 4 6 4 11 7 8 6 6 7 5 4 30 10 7 5 11 11 12
22 18 16 17 16 13 11 12 18 18 15 11 12 12 14 11 8 8 3 4 7 5 10 18 13 11 13 9 9 9 3 11 8 5 6 4 4 5 10 3 12 5 5 3 6 4 10 15 15 13 12 11 13 12
19 17 16 15 15 14 12 15 20 16 15 14 11 11 12 12 10 8 4 6 5 6 12 6 2 3 3 4 4 5 6 9 10 7 5 3 3 7 6 5 3 4 16 3 6 8 11 13 13 14 12 12 12 13
20 17 16 14 15 14 16 19 17 14 13 14 10 10 12 12 11 10 10 4 1 5 4 1 0 2 4 4 4 5 8 8 9 10 4 3 3 10 4 3 5 5 10 7 7 10 12 14 12 10 11 13 15 15
20 19 17 15 15 16 19 17 16 14 13 11 10 11 12 12 10 10 10 9 5 3 5 10 13 4 1 2 3 5 5 6 10 6 2 2 2 4 3 2 5 7 4 4 4 5 12 9 9 8 11 13 14 14
25 22 18 14 12 15 20 18 17 16 12 10 13 13 12 12 9 6 4 10 11 9 4 3 7 7 4 3 4 4 5 4 3 3 4 4 1 5 3 3 4 6 7 5 5 12 16 10 9 10 12 14 15 15
20 20 16 13 13 15 17 17 17 13 12 15 13 12 11 11 12 8 1 0 5 9 4 5 4 3 4 4 4 4 4 4 4 5 4 5 2 5 2 3 7 7 9 10 10 12 11 3 7 10 13 14 14 14
18 17 16 15 14 17 16 19 14 11 14 16 11 10 11 11 14 15 6 1 7 6 3 2 4 4 6 4 3 2 3 1 4 5 4 3 3 3 2 6 8 6 7 8 7 7 11 11 10 11 11 11 13 13
20 18 17 14 17 20 16 16 13 13 18 14 10 11 13 13 9 15 16 2 8 3 3 4 3 2 4 5 3 4 5 3 5 2 2 1 2 3 4 9 6 3 2 5 6 8 10 10 11 11 11 11 12 12
20 19 17 15 21 21 20 15 14 17 15 12 13 7 6 8 12 14 7 5 5 4 5 5 9 5 2 1 3 4 4 3 2 4 3 1 2 7 6 8 7 4 6 6 6 7 8 10 10 11 12 11 11 10
21 20 18 20 22 20 18 15 19 18 14 15 8 3 7 18 9 5 4 5 6 4 6 5 11 7 5 3 2 3 1 1 2 2 2 3 3 7 8 7 6 7 7 7 9 9 10 10 10 11 12 11 9 8
20 20 21 24 24 21 18 18 19 18 12 12 8 11 18 4 4 4 5 4 4 4 8 5 4 6 1 1 2 1 2 2 2 2 2 2 4 12 11 10 9 9 10 11 12 13 14 13 12 12 11 10 10 9
18 19 20 25 25 20 19 19 20 18 13 13 5 6 5 5 5 5 8 4 4 5 5 5 1 2 3 2 1 1 2 3 1 2 0 3 13 13 12 11 11 11 12 13 15 15 15 15 12 11 12 10 8 7
20 21 19 22 22 21 18 19 22 21 5 4 6 6 4 4 5 4 3 3 3 5 8 9 5 4 2 3 1 3 2 2 2 3 2 5 14 15 13 12 14 15 16 15 15 13 15 15 13 11 8 7 6 6
20 23 19 23 21 18 17 20 21 18 5 4 4 5 7 2 4 5 7 6 5 9 11 7 3 3 2 2 3 3 2 3 2 2 3 16 18 17 16 15 15 16 15 14 16 16 14 12 9 8 6 5 4 3
21 20 21 21 19 18 18 20 19 13 4 4 3 1 3 5 4 3 5 5 7 11 10 1 1 2 3 2 3 3 2 2 2 3 16 21 20 16 15 14 15 15 15 15 15 13 10 9 7 5 3 1 1 2
25 15 21 18 18 18 20 21 12 6 5 3 3 5 2 3 6 7 8 7 10 11 1 3 4 3 1 2 2 2 1 3 10 13 15 16 18 18 18 18 18 17 16 15 13 10 8 6 4 3 4 5 4 7
21 19 14 21 24 24 20 21 7 7 5 3 4 7 9 5 6 8 8 9 8 4 3 2 2 2 3 2 2 3 5 12 12 15 16 17 17 18 18 18 18 16 15 13 11 9 7 6 5 2 3 4 5 6
22 20 21 28 29 17 9 9 6 5 2 5 6 8 6 5 5 7 9 13 8 3 2 2 1 3 0 3 3 8 15 16 18 15 15 15 16 19 18 18 17 15 13 12 9 5 3 1 4 3 1 3 3 4
26 25 23 25 26 8 4 4 7 4 4 7 7 7 5 4 6 6 9 11 7 2 2 3 1 2 3 2 2 11 15 19 21 20 17 16 17 19 18 17 14 13 11 9 6 7 4 3 1 1 5 5 4 4
25 30 28 31 26 10 4 6 6 4 6 4 10 8 4 6 5 6 6 11 5 4 4 2 4 6 4 6 8 12 15 16 17 15 21 22 20 17 17 14 13 11 8 7 7 7 8 3 3 4 6 3 8 7
26 34 37 30 13 4 2 3 7 9 5 6 9 6 4 4 5 6 9 7 5 5 5 4 7 6 9 10 11 11 16 14 14 16 17 21 22 19 17 15 13 11 9 8 7 6 4 5 7 7 5 6 8 7
37 34 26 7 5 3 4 9 4 7 4 9 8 5 3 4 5 10 5 6 5 8 8 7 9 9 11 13 13 15 14 14 16 18 19 18 16 16 14 13 11 10 8 7 6 5 7 10 11 8 6 7 7 8
24 7 5 5 4 5 7 4 5 5 6 5 5 5 5 5 7 6 3 6 7 10 11 13 15 15 14 14 13 14 15 16 17 19 17 18 17 14 13 12 9 8 7 7 7 6 8 6 8 7 6 9 10 9
4 3 5 4 5 6 5 6 5 4 5 5 6 4 4 7 4 4 3 6 11 13 15 15 14 14 16 15 15 15 15 17 21 18 15 13 14 14 13 11 9 11 9 8 5 4 5 8 9 8 8 9 9 11
3 2 1 5 6 6 7 5 8 6 4 4 4 7 6 4 4 4 1 4 9 14 18 20 18 17 17 18 18 17 16 16 17 17 13 13 13 12 12 12 7 5 6 8 9 7 5 10 11 10 9 7 11 13
3 3 2 2 3 6 4 3 9 4 5 5 5 7 5 4 6 3 3 6 8 12 17 18 16 17 18 18 17 18 16 16 16 17 17 18 17 14 11 9 9 9 7 6 7 6 6 8 9 8 8 8 7 10
3 2 5 7 4 2 2 3 5 5 3 4 11 6 5 1 3 3 3 8 9 11 17 14 13 17 23 26 25 24 22 21 21 16 14 15 13 11 10 8 7 8 6 6 6 6 6 6 7 8 8 10 11 12
3 5 6 4 4 3 2 1 2 3 1 2 2 3 3 3 4 4 7 12 14 17 19 20 21 22 22 20 18 19 20 19 15 14 11 10 9 8 7 6 5 5 4 4 4 4 5 6 7 8 10 12 13 13
4 2 4 3 2 2 3 3 3 2 2 4 5 6 6 4 3 8 10 12 13 14 17 19 19 18 18 19 20 19 17 14 10 10 9 9 9 6 5 4 3 2 2 2 4 4 4 6 9 10 12 13 12 15
5 3 3 3 3 4 5 6 7 7 5 4 5 9 8 6 7 11 13 9 14 16 17 17 16 16 19 20 20 19 17 16 14 11 8 7 6 5 4 3 2 1 1 1 3 5 7 9 10 11 12 15 17 18
3 3 4 3 4 6 7 5 5 3 5 5 4 4 6 6 4 4 14 14 11 12 15 17 17 16 16 17 16 14 11 12 12 10 8 6 5 5 4 3 2 1 1 3 5 7 9 10 12 14 16 17 20 21
4 5 6 6 5 7 6 5 5 4 4 5 4 8 2 4 4 5 14 15 12 17 19 21 21 21 19 16 14 13 12 11 10 8 7 6 6 5 4 4 2 2 3 5 7 9 11 13 14 16 18 20 22 24

GFSWCAN_850_spd_099.txt.gz
Wind_Speed
26 23 22 23 22 19 16 12 11 11 15 14 13 11 13 15 12 8 5 4 4 1 9 2 3 5 11 9 2 13 8 10 6 7 4 3 2 4 2 10 4 7 5 5 4 5 2 30 7 6 6 16 14 15
23 21 22 20 19 18 15 12 12 15 16 12 11 12 14 13 9 10 5 1 3 3 5 10 14 7 6 6 7 6 2 6 6 3 3 3 2 3 8 3 8 5 5 3 5 4 7 13 16 15 15 17 14 14
24 23 20 19 19 15 12 13 17 17 15 11 12 14 14 11 9 9 5 2 6 7 9 2 2 2 3 2 4 1 2 7 6 9 3 2 3 3 4 3 3 7 14 4 2 7 12 14 14 14 14 15 14 12
25 22 19 17 15 14 14 16 20 16 16 13 12 12 12 11 9 8 5 4 3 3 2 4 2 5 2 5 3 2 4 6 10 11 3 1 2 7 2 2 3 5 8 6 6 10 13 12 10 11 13 14 14 14
23 19 17 15 16 16 16 18 19 15 15 15 11 9 10 10 9 7 6 5 1 2 3 9 9 6 5 1 1 3 4 5 6 4 2 1 2 3 2 3 3 6 3 3 2 6 11 6 6 8 12 14 12 13
19 20 16 17 15 17 20 18 16 15 13 12 10 10 11 11 8 5 1 4 7 4 3 3 7 8 5 2 4 4 5 4 3 2 4 2 2 4 2 2 4 5 7 3 5 10 15 14 11 11 14 14 13 14
21 22 20 17 14 18 18 17 15 14 11 10 12 13 11 10 10 5 2 3 7 5 2 4 5 3 5 5 5 7 5 3 3 3 3 1 2 3 2 2 7 7 10 12 12 16 11 4 11 13 11 12 12 14
22 24 20 16 15 18 18 17 15 15 13 15 13 11 9 8 8 9 3 3 6 4 2 1 3 5 5 3 1 2 3 1 2 3 4 1 2 4 3 10 11 8 8 9 8 9 14 16 15 15 11 10 12 14
23 21 18 17 17 19 15 18 15 12 16 15 11 9 8 6 4 3 4 3 3 2 2 3 2 2 2 2 3 4 3 1 3 2 3 2 2 3 4 11 9 6 4 10 10 13 14 15 15 14 14 12 15 14
21 19 17 16 18 20 17 19 13 12 19 14 11 6 5 5 6 4 9 4 3 3 4 3 4 2 2 1 3 4 4 3 2 4 3 3 2 7 11 9 9 9 10 7 15 15 17 17 16 15 13 10 8 9
20 18 17 14 21 21 20 17 16 21 18 13 7 3 3 15 11 4 3 3 4 3 5 5 9 4 4 2 2 1 1 1 1 3 1 2 2 4 9 11 9 8 9 10 12 15 13 12 14 13 11 9 11 11
21 20 17 17 23 22 20 18 23 21 11 10 7 9 17 4 3 3 3 3 4 4 8 5 4 4 2 1 2 1 1 2 2 1 0 1 3 17 14 14 12 13 14 16 14 17 16 14 11 11 12 13 11 10
22 19 17 20 23 21 19 21 22 15 12 11 5 6 5 4 3 4 5 3 2 4 7 6 0 2 2 1 1 2 1 3 2 1 1 2 16 19 18 16 15 14 16 17 17 15 14 14 12 12 13 11 9 8
19 16 18 24 24 20 18 20 20 18 11 4 5 5 3 4 4 4 3 4 2 10 13 9 3 1 2 2 1 1 3 1 2 1 2 4 19 22 19 18 19 19 15 15 14 14 14 14 14 12 9 8 7 5
19 18 22 25 23 19 18 20 20 18 2 2 3 4 4 3 3 4 5 6 5 9 13 6 1 3 1 2 2 2 1 3 4 1 2 17 25 24 22 19 18 17 15 14 15 17 17 13 10 9 8 6 4 3
20 19 19 21 20 20 17 18 16 10 3 3 4 2 4 6 3 4 6 5 6 7 10 1 2 1 2 3 3 4 1 3 1 3 17 24 25 23 20 18 16 16 15 19 19 16 13 10 8 6 5 3 1 2
23 16 21 25 21 18 17 18 11 6 3 4 2 2 3 2 5 7 7 6 8 8 1 2 2 5 0 1 2 1 1 2 12 16 18 19 21 21 19 18 18 19 21 19 16 13 11 9 6 5 3 4 4 5
22 15 22 23 22 21 16 9 4 6 5 4 2 5 6 2 7 8 6 7 9 4 0 1 4 1 3 3 1 3 5 13 13 14 16 16 18 18 17 21 21 20 20 17 14 12 10 8 6 3 3 4 6 8
20 18 23 22 23 14 7 7 3 2 1 4 4 5 6 3 5 8 9 10 10 5 1 2 1 2 1 3 3 9 16 13 19 17 15 15 17 18 21 21 20 20 18 15 14 11 9 5 4 4 3 1 4 3
16 18 18 22 24 6 4 4 7 2 3 8 6 8 4 3 6 5 8 10 11 4 2 2 3 3 2 3 3 8 13 16 18 21 18 16 18 20 21 22 20 17 16 15 12 7 6 3 4 8 7 8 9 10
19 21 19 24 16 4 2 5 7 6 6 5 10 10 3 5 4 6 7 10 6 4 5 4 6 6 6 6 7 10 13 14 16 16 23 24 22 21 21 18 16 16 15 12 9 11 7 5 9 9 9 8 8 8
21 25 23 20 5 4 4 4 3 9 6 8 13 7 4 4 5 6 8 6 5 11 6 7 8 8 9 10 9 9 9 10 11 10 16 21 25 23 23 19 16 14 10 9 7 9 9 12 13 13 12 9 8 9
22 27 9 10 7 8 3 8 5 8 4 9 10 5 4 4 7 11 5 7 8 11 13 15 12 9 11 11 10 12 15 16 18 14 15 22 19 20 18 15 15 14 12 11 11 11 11 12 12 12 12 10 9 8
23 19 9 12 7 5 5 4 4 4 5 4 4 4 4 5 10 3 3 5 9 10 15 14 15 15 14 15 16 18 16 14 15 13 18 20 20 20 16 15 13 14 13 14 13 12 12 11 11 10 8 7 9 10
8 8 7 5 6 7 4 4 4 3 3 3 4 3 3 7 3 4 4 5 13 17 16 16 16 16 19 19 19 18 17 16 18 22 20 20 20 19 16 16 16 15 14 12 11 10 9 8 8 10 11 10 11 11
4 6 5 7 6 6 6 5 6 4 3 2 2 7 6 3 4 5 1 6 13 17 17 19 19 16 16 17 21 20 18 18 19 21 18 17 17 19 20 19 16 13 14 13 10 7 8 10 11 12 11 9 10 11
4 3 4 6 5 7 4 4 10 4 4 5 4 4 4 5 6 2 5 6 9 10 11 17 18 18 21 22 21 18 18 18 22 21 20 19 17 15 13 12 12 10 8 7 8 9 10 10 10 9 8 8 9 12
3 4 4 7 4 3 3 3 4 5 4 6 12 5 6 4 2 3 5 8 11 8 11 18 15 19 25 23 21 23 23 23 21 20 17 16 15 14 12 10 9 7 6 5 5 4 4 4 5 7 8 9 11 12
2 6 6 4 4 2 3 1 2 2 3 1 2 2 3 4 5 5 11 11 10 12 16 18 19 22 22 20 21 20 20 20 20 19 17 18 17 15 15 13 10 7 5 3 2 2 2 2 4 6 8 9 11 12
5 7 5 3 3 2 2 1 3 4 5 4 5 6 5 3 6 9 14 14 11 15 17 19 20 21 22 23 22 21 20 19 16 13 15 15 14 12 12 9 7 5 3 2 1 0 1 3 6 8 10 13 15 17
8 4 4 3 3 3 5 5 5 7 7 5 4 7 7 6 8 11 14 15 11 13 16 18 18 17 18 18 20 22 21 17 14 12 10 8 9 9 8 7 5 4 2 1 2 3 5 6 8 10 12 14 16 18
3 2 4 3 3 5 11 4 6 3 5 3 3 4 6 4 3 10 11 12 17 16 14 16 16 16 16 17 19 17 13 14 14 11 9 8 8 8 8 7 6 4 3 2 2 4 6 8 10 12 15 16 18 20
3 7 7 5 4 5 5 4 4 4 4 4 4 9 6 5 4 7 13 13 15 15 19 19 18 17 16 15 16 15 14 14 12 11 10 10 9 9 8 7 5 3 2 3 5 7 8 10 12 15 16 18 20 21

GFSWCAN_850_spd_105.txt.gz
Wind_Speed
27 26 26 23 24 27 28 25 21 22 23 24 24 20 18 14 12 11 13 11 8 7 9 8 6 5 3 3 3 2 2 4 3 3 2 2 2 3 2 3 5 5 4 4 3 3 4 21 3 3 6 9 8 8
30 28 25 29 30 29 26 23 21 23 21 20 21 19 17 14 13 12 15 12 14 7 8 8 3 4 2 4 4 3 4 1 1 2 2 2 2 3 2 2 5 4 4 2 5 3 5 8 12 11 11 13 11 12
30 29 32 30 27 24 21 20 20 22 19 18 17 17 15 14 11 10 13 13 17 18 13 11 8 8 9 6 4 2 1 2 2 3 2 1 1 2 3 2 2 4 9 3 1 4 9 10 11 12 11 14 13 12
31 31 28 25 22 20 19 21 21 20 18 17 17 17 16 14 12 10 13 12 14 9 5 3 8 6 3 2 4 3 3 2 5 2 1 1 1 5 2 2 3 2 6 4 5 5 9 9 9 10 13 13 13 11
30 29 28 24 20 19 20 22 21 18 18 19 18 17 16 15 14 12 13 13 11 6 4 4 6 3 3 3 4 3 2 3 5 2 2 1 1 2 2 2 2 4 1 2 2 11 8 6 9 9 12 11 11 13
29 27 24 22 19 19 22 21 19 18 18 18 17 15 14 14 13 11 5 7 9 8 4 2 2 5 6 4 2 1 2 3 2 1 1 1 1 1 2 1 1 4 3 8 6 9 9 15 12 12 13 11 10 10
27 25 21 19 20 22 24 20 20 19 17 15 15 14 13 12 9 4 5 7 7 5 3 2 3 2 4 5 3 3 4 2 1 0 1 1 2 3 2 3 8 10 15 19 21 24 16 16 9 13 13 11 10 10
23 22 21 20 21 24 23 19 19 17 14 14 16 15 15 16 16 14 12 10 6 4 4 2 1 2 3 3 3 2 2 1 2 1 1 2 2 3 2 4 16 13 15 16 5 2 11 16 17 14 12 12 12 11
23 21 22 25 25 23 21 20 18 15 18 18 16 16 14 11 5 9 12 7 3 3 3 2 3 2 1 2 3 2 1 1 1 1 2 3 2 1 6 14 14 16 9 13 13 18 21 18 16 14 13 12 13 12
23 21 21 24 23 22 21 18 17 20 20 18 17 4 5 6 12 9 3 1 2 3 2 1 1 1 0 1 1 2 0 1 1 2 4 2 1 2 11 16 14 12 17 21 23 17 17 17 16 14 12 11 11 11
22 20 20 23 22 21 19 18 21 21 19 15 3 4 14 14 4 2 3 2 2 2 2 2 3 1 1 2 2 1 2 0 1 2 2 2 2 4 13 15 13 15 20 17 9 13 12 14 17 14 13 11 11 10
22 19 20 21 21 22 20 19 23 19 11 6 10 12 10 2 2 1 1 1 1 2 5 5 5 5 1 1 1 0 1 2 3 2 1 2 2 13 16 15 17 13 14 19 15 14 12 12 11 11 12 13 11 9
20 19 18 21 20 22 18 19 20 13 13 13 4 4 3 1 2 3 3 1 1 3 6 5 0 3 2 1 3 2 2 3 3 1 2 1 10 18 18 16 17 14 14 16 18 14 12 12 12 12 13 12 9 7
19 15 16 21 19 21 18 20 17 13 8 2 3 3 1 1 3 3 4 4 3 3 12 9 3 2 1 3 1 3 3 1 3 1 4 2 17 20 18 18 18 18 14 14 15 13 13 14 16 14 11 9 7 5
18 14 20 21 21 18 19 19 13 10 1 2 1 2 4 3 2 3 3 2 2 12 13 6 4 1 3 3 2 2 2 2 4 4 3 13 21 22 21 19 17 16 14 14 14 15 15 16 14 12 10 8 6 4
18 17 20 21 20 19 18 15 11 5 4 3 0 1 1 3 1 2 5 6 7 10 7 3 2 2 1 3 2 4 3 4 3 2 4 15 21 21 20 18 15 14 15 14 14 15 16 14 11 10 8 6 4 3
20 17 23 20 20 17 14 10 3 1 2 3 1 1 2 3 3 3 3 5 4 6 1 1 3 5 2 1 2 3 4 2 3 2 5 12 17 19 18 17 16 16 16 16 17 17 16 15 13 9 6 4 4 3
17 19 26 22 20 16 12 4 3 2 2 2 2 3 2 2 3 3 4 5 4 3 2 1 3 1 2 3 3 4 5 3 2 3 6 10 14 16 16 16 16 16 16 17 19 18 16 13 10 9 7 5 4 2
20 27 24 19 18 8 4 5 2 2 4 1 3 1 2 1 3 5 4 5 6 5 2 2 1 3 3 5 2 6 9 9 8 10 9 11 14 15 17 16 15 16 17 21 21 17 13 9 8 7 6 5 3 6
17 20 19 20 12 3 2 2 5 1 2 3 3 4 2 2 4 3 4 5 7 3 2 2 4 4 4 5 3 4 5 9 10 13 13 14 15 17 18 18 17 18 21 22 18 16 14 13 10 6 6 4 5 8
18 20 21 18 4 2 2 3 3 3 2 3 5 5 2 4 3 3 5 5 4 4 5 10 10 8 9 7 6 6 5 8 9 9 8 17 19 19 19 18 18 21 24 23 20 17 15 10 5 4 3 5 8 11
15 24 20 12 2 1 2 4 2 4 4 2 7 4 2 3 5 6 6 7 6 10 8 5 8 9 11 8 8 6 5 8 9 10 9 10 20 23 22 21 23 23 23 20 18 14 11 9 6 6 7 10 12 13
19 13 7 4 3 1 3 4 4 5 2 6 4 1 2 3 4 8 3 6 7 12 16 16 12 11 9 9 9 8 8 9 11 10 9 10 15 17 18 19 19 21 21 18 14 11 9 8 8 8 10 11 12 13
15 7 5 5 6 3 2 3 5 5 4 3 3 2 2 4 7 2 3 5 9 10 10 12 13 12 11 10 11 10 10 9 9 7 7 10 14 15 15 16 17 16 14 14 13 10 8 9 10 10 10 11 11 11
4 6 4 5 6 4 2 1 2 2 2 2 3 1 3 5 2 3 3 6 11 13 13 12 12 12 12 12 11 10 9 9 8 7 7 9 12 16 18 16 16 17 14 12 12 11 10 10 10 10 10 10 10 11
3 8 9 10 8 7 7 5 5 5 3 3 5 4 4 3 2 6 4 4 6 6 8 10 11 11 10 10 11 13 12 10 8 8 8 11 13 17 19 18 18 15 13 10 9 10 10 10 10 9 9 10 10 10
5 6 7 8 5 4 2 2 6 4 4 5 3 3 3 4 6 5 4 5 4 5 6 6 7 7 8 9 10 12 12 10 7 5 11 13 12 10 7 4 7 8 9 9 9 9 9 9 8 8 9 8 9 10
6 8 6 8 7 7 3 2 4 6 4 7 13 4 7 7 4 3 4 4 5 6 7 9 8 7 7 8 11 13 14 13 11 10 12 13 13 13 14 8 8 7 8 8 7 7 7 7 8 7 7 8 9 10
5 6 8 3 3 4 7 5 6 7 6 10 6 4 4 4 4 5 6 5 6 5 5 7 8 9 9 10 10 11 9 12 14 17 17 17 16 15 14 11 8 8 8 7 6 6 6 5 4 4 5 7 9 11
8 13 5 4 4 5 4 5 3 5 6 7 5 4 4 5 5 7 7 6 8 6 5 6 9 13 13 15 16 16 14 12 12 10 10 12 13 12 13 12 9 8 6 5 5 4 4 2 2 4 6 8 11 13
9 12 4 3 3 3 5 6 5 5 6 6 7 6 4 4 6 9 9 8 10 7 6 8 11 14 15 17 16 16 17 16 14 12 8 6 11 12 12 11 9 7 7 6 6 4 2 1 2 5 7 9 12 14
8 7 7 3 2 5 6 5 4 4 4 5 5 5 5 5 5 5 10 12 12 10 8 9 11 15 15 14 12 12 12 14 15 11 8 7 12 13 12 11 10 8 8 6 4 2 0 3 5 7 9 11 12 13
5 5 4 5 4 4 5 5 6 3 3 3 4 6 7 4 4 7 8 14 14 10 10 10 11 12 13 11 11 11 10 11 12 11 11 11 11 13 13 12 11 9 7 4 2 0 2 5 7 9 9 10 11 12

GFSWCAN_850_spd_111.txt.gz
Wind_Speed
33 34 35 35 40 40 40 41 41 41 40 38 34 29 24 19 16 15 19 19 14 10 10 12 12 11 8 6 4 6 4 1 1 2 1 1 1 1 1 2 1 2 1 1 1 2 4 9 2 3 8 11 13 13
32 33 33 34 35 35 36 38 38 38 36 34 30 26 23 20 19 17 20 17 22 13 17 16 13 10 7 8 11 4 3 3 4 3 2 2 1 1 2 2 2 1 2 2 3 2 4 7 11 9 8 17 13 16
30 31 34 33 32 31 31 32 33 33 31 28 25 22 19 18 19 20 24 27 28 29 20 14 14 13 11 10 7 6 3 4 4 3 3 2 2 1 1 1 2 2 0 3 4 3 6 7 9 11 12 17 17 15
31 31 31 30 30 32 32 32 31 30 28 27 24 22 20 19 20 22 28 23 23 13 6 5 13 12 11 10 11 14 14 8 7 5 3 2 2 3 1 2 1 0 0 6 4 7 9 6 9 13 17 18 18 15
31 31 28 29 29 29 29 28 28 27 26 25 24 23 22 22 23 26 24 21 14 6 6 9 14 11 9 9 10 11 9 8 5 3 2 2 3 2 1 1 2 1 3 3 2 12 6 8 13 15 17 17 15 16
29 25 23 24 26 26 26 25 26 25 24 24 24 23 24 24 24 22 10 12 19 27 10 3 7 9 10 8 8 7 7 7 5 3 3 2 3 2 2 1 1 2 3 5 4 17 9 20 17 16 17 16 15 14
25 24 24 25 24 23 22 23 24 24 23 23 22 20 18 14 13 7 9 13 16 13 7 3 3 4 7 5 5 4 5 5 4 3 2 2 1 3 2 2 5 6 8 13 18 22 16 18 12 16 16 16 14 13
24 23 25 25 24 23 22 23 23 23 22 22 21 19 17 18 23 23 19 13 11 11 6 3 2 3 4 3 2 2 2 2 3 2 1 1 1 2 1 4 9 12 19 17 11 5 15 17 21 18 16 15 15 14
21 23 24 23 23 23 22 21 21 22 22 22 23 22 17 12 8 12 15 15 11 8 5 3 5 4 4 3 3 2 2 1 1 1 1 2 1 2 3 17 16 22 13 14 9 16 21 22 20 19 17 15 15 15
20 22 22 21 21 20 19 19 21 23 24 23 13 6 6 8 14 8 5 4 5 6 5 3 3 4 3 2 2 2 2 1 1 1 2 0 1 2 6 17 19 19 10 14 19 17 19 18 20 19 16 15 14 14
22 23 22 21 21 18 17 19 20 22 19 5 5 6 16 8 4 4 4 5 4 3 3 3 4 4 3 2 2 1 1 1 0 0 1 1 2 4 14 17 17 14 9 12 7 14 16 18 21 20 18 16 15 14
24 22 21 20 18 18 19 17 16 12 6 9 15 14 6 4 4 5 3 1 2 2 2 4 4 4 4 2 3 1 2 0 1 1 2 2 1 9 20 18 18 13 16 11 10 14 14 14 15 16 17 17 15 13
21 20 20 18 17 17 16 13 12 9 21 9 6 4 3 4 4 3 2 2 1 4 5 5 2 3 3 2 4 1 2 2 1 1 2 0 5 14 18 19 18 17 16 12 12 12 13 15 15 14 16 15 14 13
18 17 17 16 14 15 14 11 10 12 5 5 4 4 3 3 2 1 1 2 2 6 12 11 5 3 2 3 1 3 0 0 1 1 3 1 10 18 19 18 19 21 18 15 13 13 13 15 16 16 14 14 12 11
16 16 17 15 13 13 10 7 6 5 4 4 3 4 2 0 2 2 3 5 7 13 7 7 5 4 3 3 1 2 2 1 3 3 2 2 13 19 20 19 19 18 18 17 16 15 15 15 17 18 17 14 13 10
16 15 11 14 12 11 9 5 4 8 4 4 5 4 3 3 3 6 11 11 11 10 7 5 3 3 2 1 2 2 2 3 2 2 2 4 13 19 19 17 16 15 15 17 17 16 15 17 17 16 16 14 11 10
14 16 15 14 11 9 8 8 5 6 5 3 3 8 7 7 4 5 8 7 7 2 2 2 3 2 2 1 1 3 3 2 2 1 1 4 13 17 17 17 17 16 15 16 17 16 17 19 19 17 15 13 10 9
17 16 15 12 10 10 9 6 4 4 5 7 4 6 10 7 7 6 6 5 2 3 4 2 4 3 3 2 2 2 3 4 3 4 4 6 11 14 16 17 16 15 16 16 17 19 21 20 18 16 13 11 11 10
16 17 15 14 8 4 3 3 5 4 4 4 5 7 6 6 7 6 4 4 3 3 2 2 1 2 2 4 3 1 4 6 5 8 8 9 11 14 16 16 15 16 17 18 19 20 20 17 15 13 12 12 11 8
15 17 16 9 5 4 3 4 4 3 3 2 4 3 3 3 5 4 3 5 4 2 1 1 3 2 2 1 0 1 4 4 7 10 10 12 13 15 16 17 17 17 18 19 20 21 20 19 17 14 13 11 8 6
16 14 15 7 6 6 4 3 3 3 3 3 4 2 3 3 2 3 3 4 3 2 3 4 4 2 1 2 2 3 3 2 6 4 4 13 15 16 17 18 18 18 19 21 22 23 20 17 14 14 12 10 8 5
16 12 8 2 4 3 4 3 3 3 2 3 4 2 2 2 2 3 4 4 4 4 4 1 2 2 1 2 3 4 4 4 6 5 4 6 13 17 20 21 21 20 19 19 21 22 19 18 15 13 12 9 7 4
14 6 3 3 2 3 2 3 2 2 1 2 2 0 1 1 1 4 3 5 5 5 6 7 8 8 7 5 5 4 4 4 5 5 5 5 8 12 15 18 18 17 18 19 20 19 19 17 15 13 11 8 5 4
9 3 1 2 2 1 1 2 3 3 2 1 1 1 2 1 2 1 2 4 6 6 5 5 4 4 5 5 5 4 3 4 6 6 4 5 7 12 13 14 15 14 13 17 22 21 19 17 14 11 10 8 5 5
3 1 0 2 1 1 0 3 1 2 2 3 2 2 2 4 1 2 3 4 7 6 6 5 5 6 5 5 5 5 4 3 3 5 5 6 8 13 15 14 14 15 17 22 22 21 18 16 14 12 9 6 5 5
1 3 3 7 4 3 4 3 3 5 3 2 4 1 3 2 1 5 3 2 1 1 1 0 1 2 6 6 5 6 7 6 5 5 5 5 7 8 12 17 19 19 20 18 19 19 16 14 12 11 8 6 5 4
1 3 3 5 3 4 1 2 2 2 3 4 3 3 2 3 5 4 2 4 4 4 3 2 2 4 4 5 6 6 7 8 7 5 6 10 12 10 7 8 14 15 18 18 15 12 11 12 11 9 8 6 4 3
7 4 4 8 6 6 3 2 3 5 4 5 9 3 6 6 3 3 3 3 2 2 3 3 4 4 5 5 5 6 10 10 8 8 11 13 15 14 13 13 15 15 13 13 12 12 11 9 9 8 6 4 3 2
6 6 8 5 4 6 7 7 5 5 5 8 5 3 4 4 3 3 2 2 2 0 2 3 5 6 6 6 7 9 10 10 9 13 14 16 17 16 14 13 13 14 14 13 12 11 10 9 8 6 5 3 2 3
6 11 6 4 5 5 6 8 4 7 8 10 6 4 5 6 5 5 5 5 5 4 6 6 6 5 5 8 10 12 11 10 9 5 10 14 15 15 16 13 12 11 11 10 9 10 10 8 7 5 3 1 3 5
5 13 5 6 5 4 7 8 8 7 7 7 11 12 9 6 8 11 11 11 10 10 9 8 8 8 9 10 11 13 13 12 9 7 6 10 12 15 16 13 12 11 10 10 10 9 8 7 5 2 0 3 5 6
8 8 6 2 2 4 5 5 3 4 4 5 6 8 5 5 4 5 9 13 14 11 11 9 8 10 13 12 12 12 10 11 10 9 7 11 15 16 15 13 11 10 11 11 10 9 7 4 2 1 3 4 5 6
4 4 3 2 1 2 5 4 2 2 4 3 3 4 6 4 4 5 5 6 10 12 10 9 10 11 13 12 12 11 10 12 12 11 10 13 15 15 14 12 12 12 11 10 8 6 4 2 1 2 3 4 5 5

GFSWCAN_850_spd_114.txt.gz
Wind_Speed
34 39 41 44 44 57 66 68 70 71 67 56 50 46 45 40 37 30 28 26 23 9 12 9 14 12 12 14 8 12 7 4 6 6 4 3 2 2 2 1 1 3 3 4 3 3 4 4 5 4 8 11 12 13
35 39 41 45 50 52 52 52 54 53 53 49 44 40 37 30 23 23 26 18 19 18 12 19 18 13 10 9 12 12 1 8 5 3 2 3 3 2 3 3 2 3 2 1 4 4 4 7 12 14 12 17 15 16
33 38 40 42 43 45 46 52 51 46 38 37 32 30 28 25 22 23 31 30 37 29 21 13 13 14 12 11 13 6 5 5 5 3 5 2 3 3 3 2 3 3 3 1 5 5 8 10 10 13 14 17 15 15
34 36 36 37 40 42 42 41 40 37 34 30 27 25 24 23 23 25 34 26 24 17 7 7 12 13 14 11 8 7 14 10 10 6 3 2 2 2 3 2 1 2 7 6 4 7 10 7 10 15 17 16 16 14
33 33 33 34 34 36 37 37 35 32 30 28 25 24 25 26 30 32 30 26 19 10 9 14 15 13 12 10 13 12 11 10 8 4 3 2 3 3 2 2 3 5 3 3 2 15 2 17 15 17 19 17 15 16
33 33 32 31 31 33 33 33 33 32 31 30 30 30 31 31 29 28 13 18 26 32 13 5 9 8 9 9 10 9 7 5 3 2 4 3 2 2 3 2 3 4 5 2 6 11 10 20 19 16 18 17 15 15
30 30 30 30 29 29 30 30 31 31 31 29 28 27 27 27 22 9 9 17 23 17 8 6 6 5 7 6 5 6 6 3 2 3 2 4 4 2 2 2 9 7 7 13 19 24 18 20 13 18 18 16 16 15
28 27 27 27 28 29 29 28 28 28 27 25 25 24 22 19 25 27 25 20 16 13 7 4 4 9 5 5 4 2 3 2 3 2 3 1 3 2 2 6 11 12 15 18 16 5 17 16 20 18 17 17 16 15
28 28 27 27 27 27 27 28 28 28 28 27 28 28 25 21 11 17 20 16 11 8 5 3 7 4 6 4 3 3 1 2 1 1 2 2 2 2 2 16 16 20 11 15 10 16 20 22 21 19 17 16 15 16
26 27 27 26 25 24 24 25 27 27 27 22 16 8 7 8 18 16 7 3 6 6 5 3 3 5 6 4 3 3 1 2 2 2 3 2 0 4 5 12 17 17 14 17 21 21 22 22 21 20 17 16 15 16
24 23 22 22 22 22 21 22 23 23 17 6 6 6 16 10 5 4 5 4 3 3 4 4 7 8 3 2 3 1 2 0 2 3 2 2 2 4 11 15 19 12 13 12 8 16 18 20 22 21 19 17 17 18
23 22 20 19 20 19 18 19 19 10 6 10 16 15 6 3 4 5 3 2 2 3 3 8 8 6 3 2 2 2 2 2 1 1 2 2 3 8 16 16 17 12 14 10 13 18 18 18 18 18 19 19 20 19
21 20 19 19 18 17 16 16 11 24 16 8 5 5 4 5 5 3 3 3 3 4 6 8 5 3 3 2 4 1 2 2 2 2 2 2 6 12 15 16 15 15 13 15 16 16 17 18 18 20 22 21 19 17
18 18 17 16 15 14 13 12 13 5 5 6 5 5 4 3 4 3 3 4 4 7 13 10 5 2 2 2 1 2 2 1 2 2 1 2 8 15 17 17 18 19 17 17 17 18 18 19 20 19 19 18 17 16
16 16 15 13 11 10 11 10 9 8 5 5 4 4 4 2 3 4 7 7 8 9 9 8 5 3 2 2 1 2 2 2 2 1 2 2 10 16 19 19 19 21 20 17 16 17 18 19 21 21 20 18 16 14
16 15 13 11 10 8 8 7 10 8 5 5 6 4 2 2 8 11 12 8 8 8 6 4 3 2 2 1 2 1 2 1 1 1 1 2 11 17 19 19 18 20 20 17 17 16 17 18 20 21 20 18 15 13
13 15 10 9 10 9 7 6 7 7 5 4 5 9 7 9 8 8 10 7 6 3 2 1 2 2 3 2 1 1 1 2 2 2 1 3 11 17 18 18 19 18 18 19 19 19 18 20 21 20 19 17 14 13
20 14 12 12 12 11 12 8 6 6 7 7 4 6 9 9 8 7 9 6 3 2 1 2 3 2 2 2 2 1 0 0 1 2 2 5 10 15 16 17 18 17 18 18 19 19 19 21 21 19 16 15 14 13
18 14 12 10 7 5 4 6 6 5 6 4 6 7 7 8 10 8 7 5 4 3 2 2 0 1 2 1 1 1 0 2 2 4 4 7 10 13 16 17 16 16 16 17 18 19 21 21 19 18 17 15 13 12
14 13 10 8 7 4 4 5 5 5 3 3 4 4 4 4 5 4 3 3 1 2 1 1 0 1 2 2 2 2 2 0 5 6 5 8 12 13 15 16 17 16 17 18 19 20 22 20 18 17 15 14 12 11
12 10 7 7 10 8 5 4 5 4 3 4 4 4 3 3 2 2 1 3 2 2 1 1 2 2 2 1 0 1 2 1 4 3 3 9 13 15 17 17 17 17 18 19 20 22 21 18 19 17 16 15 11 9
13 8 4 7 6 5 5 6 4 3 2 4 3 2 2 2 1 1 1 2 3 2 2 1 1 1 2 1 2 2 2 3 4 4 4 5 12 15 17 18 19 18 17 18 19 22 21 17 18 18 16 14 12 10
10 5 4 5 4 5 3 3 2 2 2 3 2 1 1 1 1 2 2 4 4 5 6 5 5 4 4 4 4 3 3 3 5 6 6 6 9 12 14 16 18 17 16 16 17 19 21 20 19 18 16 15 12 10
4 3 3 4 5 3 2 2 3 3 2 1 1 1 1 1 2 1 3 3 5 4 4 4 4 4 4 4 4 4 3 4 5 6 7 7 8 10 12 13 16 16 15 16 18 20 22 22 20 17 16 13 12 9
1 2 3 3 3 2 2 1 2 2 2 2 2 1 2 2 2 2 3 3 3 3 4 4 5 6 3 3 2 3 3 3 5 6 6 7 8 10 12 14 15 16 17 17 21 24 24 22 20 17 15 14 10 9
2 2 2 2 2 1 2 2 2 1 1 3 3 2 2 2 2 4 2 1 2 2 2 2 2 1 4 6 5 4 5 5 5 6 6 7 7 8 11 14 16 16 17 18 22 24 22 20 18 17 16 12 10 8
1 1 1 3 2 3 2 1 1 2 2 3 3 4 3 3 4 1 2 4 3 3 3 2 3 3 2 3 4 4 5 7 8 7 6 7 9 10 7 8 11 13 17 20 19 19 18 18 17 16 13 11 9 8
2 3 3 5 4 3 1 2 3 3 3 4 6 4 3 4 0 2 3 3 2 2 3 5 4 4 4 4 5 6 7 8 7 6 7 8 10 11 11 10 11 14 17 18 18 15 14 13 13 12 11 9 8 8
4 3 5 4 3 4 5 4 3 3 4 6 2 2 2 3 2 3 3 4 3 1 2 4 6 7 7 6 5 7 8 9 9 9 10 12 14 12 13 15 17 16 15 15 15 14 13 13 12 11 9 8 7 6
5 9 5 3 3 5 4 7 3 6 6 8 5 4 5 7 8 8 8 7 6 6 6 6 6 6 7 7 7 10 12 11 9 8 10 12 15 15 15 15 15 15 15 13 13 14 13 12 11 10 9 7 5 4
4 8 3 4 3 3 7 8 8 8 7 7 11 10 7 6 9 12 14 14 13 12 11 9 7 7 7 9 10 12 13 11 10 7 7 10 14 17 16 15 14 13 12 11 11 11 11 11 10 8 6 4 3 3
5 7 4 3 2 4 4 2 3 3 3 4 4 7 5 4 4 6 10 11 12 10 10 10 9 8 10 11 11 11 10 11 10 9 7 12 15 18 17 15 14 13 12 12 13 12 11 9 7 5 4 3 2 2
2 3 3 2 2 2 3 3 2 3 3 3 3 3 4 3 3 5 4 5 6 9 10 10 10 10 13 14 14 12 11 13 12 10 10 14 17 17 16 15 13 13 13 13 12 10 8 6 4 3 2 1 1 0

GFSWCAN_850_spd_117.txt.gz
Wind_Speed
26 35 45 31 35 43 49 59 67 57 47 47 53 53 66 68 51 45 36 23 20 10 22 26 26 31 26 19 10 19 10 8 9 7 6 5 3 2 3 2 5 8 5 7 10 6 5 3 7 4 6 12 14 14
35 35 56 66 64 58 57 55 53 52 53 63 68 70 67 57 47 42 31 26 28 20 23 21 20 16 12 14 14 26 3 21 9 8 4 2 2 2 3 3 4 4 3 4 5 4 5 4 9 12 12 16 16 18
40 44 49 64 67 72 72 70 66 64 67 63 61 59 52 48 43 33 35 35 28 37 24 18 14 10 13 14 13 11 7 11 6 2 3 2 2 4 4 3 4 3 2 1 6 6 6 7 8 12 15 18 18 18
37 43 44 50 55 62 61 62 65 65 64 60 55 48 42 39 36 40 38 21 32 18 8 8 10 10 8 9 9 5 11 8 9 6 3 2 2 2 2 2 2 2 7 5 4 7 9 8 12 15 18 18 18 16
35 39 43 45 47 49 50 50 51 52 50 46 42 37 36 44 41 42 34 25 23 11 11 18 17 12 11 12 11 10 12 13 12 7 2 2 2 3 2 4 4 7 3 4 1 18 5 19 16 18 19 18 17 18
32 36 39 39 38 39 38 38 39 39 40 39 38 39 39 40 39 36 22 22 21 44 22 5 11 11 11 11 11 11 9 6 4 3 3 3 3 3 3 2 3 5 3 2 4 17 11 20 19 17 18 18 17 17
30 32 34 36 37 37 37 37 37 37 38 38 39 40 40 33 24 12 10 19 23 17 12 7 6 8 10 9 8 8 5 4 2 3 4 3 3 4 2 2 8 7 7 11 17 22 20 21 19 19 19 18 17 16
29 29 30 32 34 35 35 35 35 36 36 36 33 30 25 24 27 29 29 23 18 13 8 4 5 9 9 9 6 4 5 5 1 2 3 4 5 4 2 7 9 10 13 15 19 1 18 19 23 20 18 19 19 17
27 29 29 29 29 30 32 34 34 35 34 32 29 26 25 19 13 16 19 16 12 8 5 4 8 4 8 7 6 5 3 2 2 2 1 2 3 3 2 14 14 17 14 17 9 17 21 24 23 21 20 19 18 18
27 26 27 26 26 27 29 30 32 34 34 33 24 11 8 7 23 18 8 4 6 6 7 5 11 6 13 10 3 4 2 3 4 2 3 3 1 4 5 11 15 17 11 17 19 20 22 22 23 23 21 18 17 18
26 25 23 22 22 22 22 23 25 21 17 8 7 7 14 16 6 5 4 3 3 4 5 3 13 10 8 4 5 1 2 1 3 3 3 4 3 5 9 13 15 12 15 14 10 15 18 20 21 21 19 18 18 18
22 23 23 20 19 18 17 16 13 9 9 11 19 14 7 4 4 4 3 2 1 4 7 9 12 14 6 3 3 3 2 2 1 3 2 2 3 9 14 16 15 13 14 11 11 16 17 18 19 18 18 18 18 19
23 23 22 20 19 18 15 15 22 26 21 12 6 5 2 4 3 1 4 3 4 6 9 14 7 6 4 3 3 2 3 1 5 1 2 3 8 12 15 17 14 12 12 12 15 15 17 17 17 19 21 22 22 19
20 20 19 19 16 14 13 17 13 11 7 6 4 5 4 3 4 3 5 6 4 13 16 14 7 4 3 3 1 2 1 2 3 3 3 5 8 13 16 16 16 16 16 17 18 19 21 23 22 22 20 20 20 20
16 16 15 15 15 13 12 9 9 9 6 6 5 4 4 5 9 8 10 10 13 15 13 10 6 5 3 3 1 3 2 3 3 1 2 4 9 15 19 20 21 20 19 18 19 21 21 21 21 20 20 21 19 18
15 17 17 12 10 10 11 11 10 9 6 5 7 4 6 10 9 14 13 13 12 10 8 5 3 3 2 2 2 2 2 1 2 2 3 4 10 15 19 19 20 21 19 17 16 17 18 20 20 21 22 20 19 16
8 12 11 11 10 8 8 10 8 8 6 4 4 10 12 13 9 7 10 9 4 4 2 1 3 2 2 2 2 1 2 2 3 3 2 4 11 15 17 18 18 20 19 17 17 18 18 20 20 21 22 21 18 16
14 11 10 10 12 12 20 10 6 7 7 8 5 9 12 11 10 9 7 6 4 4 2 2 3 2 2 2 3 2 4 4 4 5 5 7 11 14 15 16 18 20 20 18 18 19 19 20 21 21 19 19 17 15
14 12 10 8 7 7 6 8 7 5 7 5 8 9 8 9 9 7 6 6 5 5 3 2 1 2 2 5 3 3 3 3 4 5 6 7 10 13 14 15 16 17 17 18 18 18 18 19 18 17 19 18 13 13
12 12 13 10 7 5 5 6 6 6 4 4 6 6 5 4 4 6 5 5 3 2 2 1 3 4 5 6 5 4 3 6 8 7 6 7 10 12 12 14 14 15 15 16 16 17 18 16 15 15 16 15 13 13
8 9 12 10 10 9 5 4 5 4 4 4 3 4 3 4 4 4 3 2 2 2 2 3 3 3 3 3 3 3 3 5 4 3 5 9 10 11 13 12 13 13 14 15 15 15 17 16 15 15 16 15 13 11
7 8 9 9 6 5 6 6 4 3 3 4 3 3 3 2 2 2 2 1 1 2 2 2 3 2 1 2 2 1 1 3 3 3 5 7 11 11 13 13 14 13 13 13 14 16 16 15 15 15 15 16 15 15
7 7 6 7 5 5 3 4 3 3 2 3 3 2 2 2 1 1 2 3 2 1 1 1 1 2 1 2 2 1 1 3 3 3 5 5 7 9 11 12 13 14 14 13 14 15 16 16 18 17 18 15 15 12
7 4 5 5 6 3 2 2 3 3 2 1 2 2 2 2 1 1 2 1 2 1 1 2 1 1 1 0 1 0 0 2 3 3 4 5 5 6 9 10 12 14 13 14 15 16 19 18 19 19 16 16 12 11
3 5 4 4 3 2 2 2 2 2 1 2 2 1 2 1 1 2 2 3 2 1 2 2 1 1 1 2 2 0 2 0 2 2 3 4 6 7 8 9 11 14 16 16 18 19 18 20 19 17 16 15 14 12
3 4 3 2 2 2 2 2 1 1 2 1 2 2 1 2 2 3 1 1 1 1 1 2 3 0 2 2 2 3 4 4 2 3 2 4 4 7 8 10 11 11 14 14 17 19 21 19 19 18 16 15 14 11
1 2 2 2 2 2 2 1 1 0 1 2 2 2 2 2 3 1 2 1 1 2 2 2 3 4 1 2 4 4 4 5 6 7 4 5 6 8 8 8 9 9 13 16 16 19 18 19 18 18 17 15 12 10
1 0 0 2 1 1 1 0 2 2 2 2 3 3 2 2 2 2 1 1 0 2 2 2 3 3 3 4 4 5 5 4 5 4 3 3 4 6 9 10 9 7 12 14 15 16 16 16 17 16 14 12 11 9
1 1 2 1 1 2 3 2 2 1 1 2 2 1 1 0 1 2 2 2 2 2 1 1 4 5 5 5 4 4 4 5 5 6 5 6 6 7 8 10 13 14 16 17 16 15 14 14 14 14 12 10 9 7
2 5 2 2 2 3 1 3 1 6 2 4 3 3 3 5 8 8 8 7 7 6 7 6 6 4 4 4 4 6 8 9 8 6 6 7 8 11 12 13 14 14 14 15 14 14 13 11 11 10 9 8 7 6
2 4 3 4 3 1 4 7 8 9 8 5 8 7 7 6 11 13 12 14 13 11 9 7 6 6 5 6 6 7 8 10 8 7 6 7 9 13 14 14 13 13 12 11 11 12 12 11 10 9 8 6 5 5
4 5 3 3 2 3 5 2 3 4 3 4 5 4 4 3 4 5 7 6 5 4 6 9 7 7 8 10 11 11 10 9 9 7 6 9 13 14 14 14 14 12 11 11 11 11 10 9 8 7 6 5 4 4
2 3 3 3 2 2 1 2 3 3 4 4 2 2 4 3 2 3 4 3 4 8 9 10 12 10 10 12 12 12 11 11 10 9 8 11 14 16 15 14 13 11 11 11 11 11 9 7 6 5 4 3 3 3

GFSWCAN_850_spd_120.txt.gz
Wind_Speed
31 16 14 23 36 56 64 57 59 60 62 60 58 58 58 56 55 64 31 39 27 10 4 23 26 20 21 19 10 17 9 8 8 7 7 6 6 3 3 5 12 12 8 7 8 6 9 5 7 4 5 13 15 15
39 28 20 13 9 34 60 63 52 56 56 56 56 56 54 56 53 57 36 32 26 13 6 9 17 26 18 26 18 29 9 20 8 7 6 3 4 3 2 3 8 5 1 2 2 3 4 2 5 9 11 16 17 19
48 46 41 48 38 38 61 69 53 51 48 52 54 54 54 52 52 43 40 31 27 11 14 11 11 12 15 14 21 13 12 21 11 9 1 2 2 3 3 5 4 3 1 1 5 7 6 5 7 10 13 18 18 20
48 59 54 49 59 58 60 54 57 49 47 50 50 50 50 51 50 41 40 35 31 11 4 4 8 9 19 19 16 9 12 12 8 5 2 2 1 3 1 3 1 2 7 6 4 7 8 6 11 17 20 21 21 20
50 53 61 65 57 49 47 47 49 44 43 45 49 55 57 49 44 40 35 27 30 12 5 13 17 10 10 11 11 10 11 12 11 5 2 1 1 1 2 3 3 8 3 5 2 16 7 18 19 19 20 21 20 21
45 49 55 61 61 63 65 68 66 64 60 60 63 61 54 52 51 47 20 14 16 36 14 4 11 10 12 12 13 12 12 12 8 5 4 3 2 2 2 2 3 5 4 3 2 15 10 23 22 18 19 19 18 19
42 43 45 47 52 56 57 57 59 60 60 58 56 51 48 45 36 10 10 26 26 19 11 5 6 9 13 13 11 9 6 4 3 4 3 4 5 6 1 2 8 5 4 7 18 20 16 21 20 20 19 18 17 17
38 40 42 43 42 42 43 44 47 48 49 50 50 45 38 28 30 33 32 30 21 13 7 4 5 9 11 11 9 8 7 6 2 1 6 6 6 4 3 7 10 8 10 14 15 0 17 20 22 21 20 20 20 19
34 37 40 43 44 44 46 48 50 49 49 49 47 42 34 26 22 26 24 19 12 6 5 4 7 4 10 11 10 5 6 2 3 2 1 3 4 3 2 13 13 15 14 14 12 14 21 22 23 22 22 21 20 20
30 31 33 36 41 40 41 42 43 43 41 31 24 17 8 14 31 23 9 3 4 4 5 5 13 6 15 11 6 5 3 3 3 4 3 2 1 5 5 10 13 15 10 17 18 22 22 22 23 22 22 20 19 20
26 26 26 26 28 30 26 27 31 31 26 17 7 8 18 17 7 4 3 3 4 3 5 7 16 10 14 5 4 4 2 1 2 3 3 3 3 6 8 11 13 12 12 14 14 17 19 21 22 22 21 19 19 20
25 24 23 23 21 21 20 21 17 14 11 10 23 20 7 4 4 5 3 0 2 4 7 9 14 16 7 6 3 2 2 0 0 1 1 3 3 8 11 12 13 11 14 13 13 17 19 20 20 20 20 19 21 23
25 23 23 22 21 21 19 23 33 34 30 15 6 5 3 5 4 2 3 4 4 6 11 12 9 7 5 4 3 2 2 2 6 1 2 3 11 9 11 16 13 13 13 10 13 17 19 20 19 20 23 23 24 22
22 22 20 19 17 17 18 16 17 16 7 7 5 5 4 3 4 3 5 6 5 15 19 17 8 4 3 4 1 3 2 1 2 3 2 4 9 12 15 18 16 14 13 15 17 18 20 22 23 22 24 22 21 21
17 16 16 18 17 12 15 13 9 12 8 6 6 4 5 6 6 7 10 13 19 19 16 11 6 7 3 2 2 4 2 4 4 2 2 4 8 13 17 17 17 17 17 18 20 21 21 21 21 20 19 18 20 19
13 14 17 14 15 13 11 12 13 11 6 6 8 6 10 9 9 13 13 13 13 12 11 7 3 3 2 3 2 2 3 1 3 2 2 3 8 12 17 18 18 16 17 16 16 17 18 18 18 18 19 19 19 17
17 18 13 13 14 14 8 13 11 9 6 5 4 14 18 12 9 9 10 8 4 5 2 3 3 2 2 2 2 2 3 2 3 3 1 4 10 14 17 17 17 17 16 15 14 15 16 17 17 18 20 20 18 16
16 13 9 7 9 15 22 12 7 7 8 11 5 13 16 14 11 9 9 11 8 5 3 2 4 2 2 2 3 2 4 5 5 4 4 7 11 13 16 16 16 18 16 14 13 14 15 16 17 18 19 19 18 16
18 16 10 9 10 8 7 8 7 5 8 6 11 11 10 10 10 8 8 8 8 6 3 1 1 3 3 4 4 4 6 4 6 5 7 9 11 14 14 15 17 18 18 16 16 15 15 16 16 18 19 19 17 16
14 14 11 11 8 6 6 6 7 6 5 4 7 8 6 4 4 9 9 7 5 1 2 3 4 5 8 10 8 6 8 10 10 8 6 8 11 13 12 15 16 17 16 16 16 15 16 17 16 17 18 19 16 15
12 13 13 11 11 11 7 5 6 5 5 5 5 5 4 5 5 4 6 6 5 4 4 7 8 7 7 8 7 6 7 5 3 2 6 10 10 10 13 12 12 15 15 16 16 15 17 18 18 16 16 16 13 11
13 11 10 11 8 6 7 8 5 4 4 5 4 4 4 3 4 4 4 3 4 6 5 7 7 5 7 7 5 5 5 4 4 5 7 7 13 11 13 13 13 13 13 14 14 16 19 18 16 16 19 18 17 17
10 10 7 8 6 6 3 6 3 3 2 3 3 3 2 2 2 3 1 2 4 4 5 5 5 5 4 4 3 4 5 5 4 4 7 5 8 9 11 11 12 13 13 13 13 14 19 18 19 17 19 20 19 17
12 6 6 5 7 3 3 3 3 4 4 2 2 2 2 2 1 1 1 4 4 4 4 6 4 4 6 6 5 5 5 3 3 4 6 5 6 9 9 10 12 13 13 14 16 14 19 21 18 18 22 19 17 15
4 7 4 5 4 3 2 2 3 2 2 2 1 2 2 0 1 1 1 4 4 1 1 2 3 3 4 3 1 2 3 4 1 2 3 3 7 7 8 10 11 12 14 14 16 17 20 19 18 21 18 18 14 16
4 5 4 3 2 2 2 2 1 1 3 1 2 4 1 1 0 1 3 3 2 1 2 4 5 4 3 3 3 1 1 1 2 3 2 3 5 7 8 9 11 13 15 15 15 19 18 19 21 18 18 18 18 17
3 4 4 4 3 3 3 3 3 1 1 1 3 1 0 1 2 3 3 3 1 1 1 2 5 5 3 3 4 3 2 3 6 7 6 8 7 7 7 8 9 8 11 14 14 16 18 19 20 20 20 18 16 13
3 2 3 2 3 3 2 1 2 2 2 2 5 3 2 1 3 2 1 2 2 2 2 2 3 4 4 4 2 2 2 2 5 4 3 4 5 8 9 8 8 7 10 14 14 16 15 19 21 21 19 17 15 12
2 1 2 2 1 1 1 1 1 2 4 2 1 0 2 3 3 2 1 0 1 2 1 1 1 1 2 2 2 2 2 4 4 5 3 2 5 6 7 8 9 12 14 15 16 16 17 17 18 17 16 14 12 10
2 1 0 1 1 1 2 3 2 2 2 1 2 2 2 3 3 3 5 5 3 3 5 4 4 1 2 2 2 3 6 9 7 5 5 7 5 9 11 12 14 16 16 15 16 16 14 13 13 12 11 9 8 7
1 2 1 2 2 1 3 7 6 7 6 3 5 5 3 4 7 10 10 11 11 9 7 5 5 5 4 5 5 5 5 8 9 7 6 6 6 10 12 12 12 12 13 13 13 13 12 12 11 10 9 7 6 5
2 3 2 2 1 2 5 2 3 3 3 3 4 5 3 2 3 3 3 2 2 3 2 6 4 6 6 8 9 8 7 6 8 6 5 7 10 11 12 11 12 13 13 12 12 12 11 9 9 8 7 6 4 3
1 2 2 3 2 1 1 3 3 3 3 3 1 2 1 2 3 2 4 1 5 8 8 9 10 9 8 10 11 11 10 9 10 8 6 9 11 13 13 13 12 11 10 11 11 10 9 8 7 6 4 3 3 2

GFSWCAN_850_spd_123.txt.gz
Wind_Speed
28 34 41 46 52 59 65 60 56 52 60 68 60 54 52 53 54 51 49 38 27 14 1 14 16 19 20 24 9 19 7 1 3 5 4 4 3 4 4 5 7 8 6 4 4 4 7 5 4 4 2 9 20 24
16 25 35 44 50 50 48 61 54 55 58 66 63 57 54 54 52 47 39 40 35 16 1 2 5 11 25 32 22 24 8 12 9 4 3 3 1 1 3 2 6 4 5 4 4 2 2 4 4 5 9 18 17 28
26 29 13 7 20 39 41 51 46 47 65 65 62 57 56 52 49 49 42 31 27 11 5 7 11 13 16 28 25 11 8 18 11 13 3 2 2 1 1 4 4 1 2 3 3 4 6 5 7 8 13 16 17 23
37 37 39 42 38 43 50 47 49 54 59 60 57 57 52 49 46 46 44 27 24 15 3 4 10 13 8 19 17 15 18 21 15 14 2 2 2 4 0 1 3 4 6 6 2 5 7 7 12 17 18 17 18 20
37 43 46 47 48 47 48 50 50 50 56 55 53 51 49 45 44 46 47 21 26 10 5 6 11 6 16 16 15 19 18 18 13 4 2 2 3 3 1 2 2 3 5 4 5 17 7 13 21 20 21 21 21 25
50 40 46 40 44 43 46 48 47 48 50 51 49 46 45 42 45 36 17 20 21 20 10 3 7 8 13 11 13 16 16 15 12 5 3 4 3 2 2 2 3 4 3 5 4 10 5 22 24 22 22 23 21 22
53 56 43 47 46 47 46 46 46 48 50 47 47 44 44 44 43 18 7 23 26 17 8 4 2 8 17 17 12 11 13 10 5 4 3 5 5 5 1 2 6 5 3 9 14 18 18 27 19 22 22 22 19 21
49 52 56 55 44 43 48 48 48 53 52 49 49 48 45 38 26 21 29 36 29 13 8 3 3 5 14 10 4 7 4 4 1 3 6 4 8 3 2 5 11 9 13 16 15 2 14 22 25 23 24 24 24 23
43 46 49 53 54 59 57 52 58 59 58 59 59 48 39 32 21 31 32 25 9 6 7 4 4 3 8 10 7 5 4 2 1 1 2 8 2 3 6 18 18 19 16 14 12 7 21 26 27 27 26 25 26 26
42 41 43 43 44 54 58 59 64 63 55 51 37 16 11 20 39 31 18 8 3 3 4 3 9 3 17 8 4 4 3 3 1 3 5 2 2 4 5 10 14 20 14 15 19 22 23 24 27 27 26 25 27 28
32 37 35 34 37 37 37 40 37 33 30 18 9 12 35 25 15 5 4 4 4 2 3 6 19 8 17 4 3 4 2 1 2 3 4 2 1 3 12 11 11 18 12 16 18 20 24 26 28 27 25 24 25 25
28 26 28 29 28 28 29 28 28 21 11 21 35 26 15 5 4 4 1 1 3 4 5 6 16 16 6 7 4 1 2 3 1 1 3 2 1 13 14 15 14 10 13 13 16 20 21 23 24 25 24 23 26 26
26 27 27 25 25 23 23 21 20 31 44 25 11 5 3 4 5 4 4 2 3 3 11 18 5 6 4 4 4 3 3 2 4 3 3 2 9 9 10 12 12 11 13 13 17 21 21 22 22 24 24 24 25 24
23 22 25 25 25 25 26 27 29 32 8 7 5 5 3 3 2 1 2 3 4 18 25 21 6 4 4 4 1 4 2 2 1 1 2 2 10 10 12 14 16 14 12 11 16 17 20 23 23 22 23 25 23 21
20 19 18 22 18 16 19 18 13 7 7 6 6 4 4 1 4 5 8 19 27 27 21 13 7 6 2 3 2 3 1 3 4 2 2 5 8 13 16 17 17 16 15 15 16 18 21 21 22 22 22 21 18 18
16 21 21 17 15 13 12 12 13 11 6 6 8 5 5 6 6 13 17 19 19 16 13 8 3 3 0 4 2 4 5 1 2 2 4 5 8 10 14 15 15 14 13 16 16 17 18 19 19 19 19 18 17 18
19 21 16 15 14 10 5 10 10 9 7 5 4 13 9 7 12 16 14 9 7 5 1 3 3 2 1 1 2 3 2 2 4 4 3 4 8 11 12 14 15 13 13 14 14 15 16 16 16 17 19 19 19 19
23 15 10 11 15 20 20 14 7 8 8 11 6 13 19 17 14 15 17 11 6 3 3 1 4 2 2 2 1 2 5 7 6 4 4 6 9 11 12 13 14 14 14 13 13 14 15 16 16 17 18 20 21 20
18 15 11 10 10 8 7 9 8 6 10 8 11 12 11 10 9 9 11 10 8 5 3 1 4 2 2 4 6 7 9 6 8 6 7 8 9 11 13 12 13 15 15 13 12 12 12 13 14 16 18 21 20 20
12 10 11 10 5 7 6 7 7 7 5 5 8 11 7 6 9 10 7 7 5 3 7 3 3 4 7 10 7 9 9 11 10 11 8 8 9 11 13 14 15 15 14 13 13 12 13 15 13 14 17 19 19 19
13 14 12 12 19 13 8 5 6 5 6 6 7 5 4 7 5 8 8 12 8 5 3 7 13 12 10 10 9 12 11 6 2 1 2 11 12 11 11 12 13 15 16 16 15 14 15 17 16 13 15 17 14 13
16 10 12 12 9 6 7 9 6 5 5 6 5 3 4 3 4 5 8 8 5 9 6 12 9 11 11 10 10 7 6 5 4 4 4 6 13 10 13 12 11 14 14 14 14 14 15 17 15 13 14 16 14 17
10 10 8 10 7 6 3 6 3 3 3 4 4 3 2 2 3 2 2 4 5 8 6 7 8 6 6 7 7 9 9 7 4 6 6 5 7 6 10 10 8 10 9 10 10 10 16 16 14 14 20 19 19 18
11 6 6 6 7 3 3 3 3 3 4 2 2 3 2 2 3 1 2 5 8 6 9 9 5 10 10 8 6 8 7 4 4 7 5 6 7 7 7 7 9 10 9 10 10 11 18 18 15 17 20 20 20 20
5 8 5 4 5 3 3 3 4 3 2 1 2 2 2 2 1 2 2 3 4 1 3 6 5 6 7 6 4 5 4 3 3 3 4 4 6 6 7 8 9 10 11 13 14 15 19 20 18 18 21 22 20 17
5 8 5 3 4 3 2 2 2 2 2 2 3 2 2 1 3 2 3 3 3 2 3 6 5 5 5 4 5 2 3 3 3 4 2 5 5 6 7 8 10 11 11 13 13 16 20 20 19 20 22 19 16 19
4 4 5 5 4 3 3 4 5 3 2 2 2 1 2 2 1 3 3 3 2 3 4 6 5 5 4 3 4 6 5 4 6 5 5 5 7 7 6 5 8 10 13 14 13 14 17 19 18 20 19 18 16 17
4 8 3 4 4 7 2 2 1 1 1 3 4 1 2 1 2 2 1 4 4 4 4 5 6 4 4 3 4 3 3 4 5 4 4 5 6 7 6 6 6 6 6 13 13 13 14 17 20 19 19 20 18 15
3 3 2 3 3 3 4 2 3 4 4 5 2 2 3 3 4 4 3 3 3 4 2 2 2 2 3 2 2 1 2 3 2 4 1 3 4 5 7 8 8 7 12 13 12 13 14 17 18 18 17 16 15 13
3 3 3 1 2 1 2 3 2 3 3 2 2 2 1 3 3 4 3 2 2 3 3 3 3 1 1 1 1 5 7 7 6 5 9 3 2 8 8 8 9 11 12 14 15 15 14 14 15 15 14 13 11 10
2 1 2 2 1 2 2 6 5 5 3 1 1 3 1 3 4 6 7 8 9 8 8 6 5 5 5 5 5 5 7 10 9 7 5 4 4 7 9 10 10 11 11 11 12 12 13 13 12 12 11 9 9 8
1 2 3 1 3 3 5 4 3 2 3 2 2 3 2 2 3 2 2 1 3 5 4 4 4 6 6 7 7 7 5 4 5 6 5 5 6 9 11 12 12 12 12 12 12 12 11 10 9 9 9 8 7 5
1 2 3 3 2 1 1 4 2 2 3 2 1 2 2 1 2 0 2 1 5 6 5 6 7 6 6 7 7 7 7 6 7 6 5 7 9 11 12 12 12 13 12 11 10 10 10 9 8 8 7 6 5 4

GFSWCAN_850_spd_126.txt.gz
Wind_Speed
40 45 50 53 55 59 67 69 62 59 59 55 50 49 45 42 47 50 49 42 42 4 9 14 18 11 17 22 5 13 7 3 4 3 4 4 3 5 3 4 6 8 7 4 4 4 10 6 6 6 3 10 23 22
28 37 48 57 58 58 60 59 62 66 62 59 55 52 48 46 47 49 37 37 34 23 9 7 9 16 16 29 23 27 8 9 8 3 4 3 2 2 5 4 3 5 6 4 7 5 1 3 3 5 7 19 21 24
20 23 30 51 64 62 63 58 60 62 64 61 56 53 50 46 47 51 41 36 29 9 8 7 8 7 12 22 32 12 7 11 8 6 5 2 3 3 4 3 3 3 4 3 2 4 4 6 6 6 8 19 25 25
25 22 14 14 37 57 52 57 58 57 62 67 61 54 46 48 49 50 41 31 30 7 2 3 9 9 8 17 26 22 19 11 9 11 4 3 2 5 3 4 3 5 6 5 2 2 3 10 11 12 12 14 18 27
30 35 35 38 35 41 45 45 58 52 52 60 63 59 52 49 46 44 36 30 27 8 3 4 12 16 15 18 15 18 16 20 19 8 3 3 3 3 1 1 2 6 6 4 5 12 6 6 19 16 15 17 19 27
36 39 45 48 46 44 45 52 51 48 48 55 61 55 51 45 44 39 15 28 19 28 2 2 4 8 13 15 15 20 17 18 13 5 3 3 3 4 2 2 2 7 8 6 3 8 14 6 19 19 18 19 20 24
41 40 45 47 49 50 49 49 52 54 58 60 56 51 47 46 46 38 13 17 42 21 6 3 2 5 11 19 12 8 16 12 7 5 3 4 3 4 2 2 4 10 8 6 8 18 10 20 14 20 19 17 18 21
41 41 42 44 48 52 56 59 61 61 57 54 50 48 43 42 36 20 12 14 23 13 5 3 2 4 10 5 6 10 7 6 4 4 4 3 4 0 2 5 11 9 9 14 16 5 5 17 16 22 20 21 21 24
41 43 43 46 48 50 53 56 55 54 52 48 45 43 39 31 23 19 26 18 10 3 5 3 4 4 13 9 6 4 4 2 4 2 4 7 1 3 6 11 19 17 15 12 11 5 9 20 25 26 25 25 26 26
54 43 46 48 46 50 52 52 52 52 51 51 50 28 10 23 21 29 16 9 3 4 6 2 6 3 18 7 2 4 2 3 2 3 11 2 3 4 5 8 12 16 15 13 15 14 15 21 24 27 28 28 25 29
50 57 54 50 54 53 54 54 56 59 50 29 7 6 34 43 15 4 5 6 6 2 4 6 15 7 13 4 2 2 2 1 2 3 4 2 3 2 6 5 8 13 14 10 15 11 12 20 27 28 28 25 24 29
38 41 44 47 52 55 48 37 21 13 13 15 28 34 21 4 4 4 1 0 2 5 4 9 13 21 9 9 3 0 2 2 2 1 3 2 3 10 9 6 9 15 11 9 11 12 15 19 25 27 27 25 25 27
27 31 32 27 22 22 22 29 39 46 47 36 9 6 3 2 5 4 4 1 2 3 11 19 5 8 5 5 5 3 3 3 1 3 3 3 6 14 9 10 11 9 10 10 13 12 16 17 20 24 26 26 26 27
23 22 21 26 31 31 31 37 33 35 16 10 7 5 3 2 0 2 2 3 4 17 26 25 7 4 4 4 2 4 2 2 3 0 4 2 12 10 10 11 11 11 10 10 14 17 18 17 21 23 24 23 23 23
23 22 21 22 20 24 31 33 28 10 6 5 5 3 2 3 2 1 3 10 21 31 22 15 7 5 2 3 2 3 3 2 5 4 2 4 12 10 12 13 14 14 14 12 12 17 16 19 21 21 21 21 21 20
20 23 21 17 18 21 23 17 5 9 6 5 6 3 3 4 6 13 18 21 27 23 15 8 3 4 1 4 2 4 5 5 3 2 6 7 7 9 11 13 13 12 11 11 11 13 14 17 19 19 20 20 19 16
20 21 15 13 9 10 10 12 7 7 5 5 4 7 4 8 11 14 15 11 10 8 2 3 3 4 2 2 2 1 3 2 7 6 5 5 8 9 11 13 11 11 10 11 12 12 13 14 15 17 19 19 17 17
18 13 11 13 14 13 24 12 7 7 8 10 4 11 19 19 16 20 18 10 6 4 3 3 5 2 3 3 3 2 5 8 6 4 4 5 7 9 11 11 12 11 10 11 11 12 13 14 15 16 16 18 18 19
13 11 9 6 6 8 7 8 8 5 8 6 12 15 14 16 15 14 12 10 10 7 5 3 4 2 1 2 3 10 11 7 6 6 6 7 7 9 10 10 11 11 11 11 11 12 12 12 13 14 16 18 20 21
9 9 10 6 5 7 6 6 6 6 5 4 7 13 7 7 10 10 13 9 9 4 6 3 2 2 4 9 6 11 9 9 10 10 7 8 8 9 10 11 12 12 12 11 11 11 13 14 14 14 16 17 20 22
10 10 11 17 22 12 7 5 6 5 5 5 8 9 6 8 10 10 12 10 9 5 2 6 13 14 10 7 6 12 11 7 5 2 2 13 12 10 11 11 11 10 13 13 13 12 12 14 13 15 15 16 17 17
13 8 11 12 8 7 7 8 6 6 5 5 5 4 4 3 6 8 9 10 5 7 5 10 10 10 11 10 9 6 5 4 3 4 2 7 14 12 11 10 10 12 13 12 12 11 11 13 11 12 14 15 16 17
8 9 9 10 6 6 3 4 4 3 3 4 3 3 3 3 5 5 4 5 5 8 8 8 8 5 8 8 7 8 6 3 3 5 4 6 7 4 8 8 7 7 9 9 10 10 11 12 10 11 14 17 17 19
10 7 7 6 8 1 3 3 3 3 4 1 2 3 2 3 5 2 3 3 6 6 7 7 7 11 9 6 6 8 7 3 5 4 4 4 4 4 3 5 5 5 4 3 5 7 12 13 13 15 18 19 18 19
6 8 5 5 5 5 5 4 4 3 1 1 3 1 1 2 1 2 2 3 6 3 6 6 7 6 6 5 4 3 3 3 3 4 3 4 5 5 6 6 6 6 7 8 10 9 12 15 15 15 16 18 21 20
6 8 4 2 4 3 0 2 1 1 2 3 0 1 0 2 3 3 2 2 3 3 4 4 4 5 5 6 5 3 3 3 3 3 3 3 5 6 6 7 8 9 8 8 10 12 14 17 17 15 16 19 21 21
4 3 5 5 2 3 4 3 4 4 3 2 2 2 3 3 1 2 3 2 3 4 6 6 4 5 5 5 5 5 5 6 6 6 5 4 6 6 6 5 5 9 9 10 11 11 12 16 17 16 17 21 20 15
4 5 3 6 4 6 3 2 2 1 0 3 3 2 4 2 1 2 1 3 4 4 6 6 5 4 4 5 5 5 5 6 5 4 4 5 6 5 7 7 6 6 7 11 10 9 10 14 16 16 18 19 16 12
5 3 1 5 5 6 5 2 2 4 6 3 3 1 3 3 3 3 3 3 5 3 2 2 0 4 4 4 3 2 3 3 1 2 1 4 4 6 7 6 7 7 5 9 9 9 10 12 13 16 16 15 15 15
4 6 2 2 3 2 3 3 2 2 3 3 3 4 4 4 5 5 4 4 5 5 4 4 4 2 2 2 2 3 5 3 3 5 7 6 3 1 4 4 5 7 9 10 11 12 10 10 12 13 15 16 14 12
2 3 3 2 2 2 2 4 2 3 3 2 1 2 3 6 5 4 6 9 10 9 9 10 10 8 7 7 7 4 8 9 11 9 7 5 3 3 5 7 8 8 9 9 9 10 12 13 14 13 12 11 10 9
1 1 3 2 2 2 3 3 2 1 2 2 1 4 6 4 3 2 1 1 2 5 5 4 5 10 8 7 6 8 6 5 3 5 4 4 5 7 9 10 10 9 9 10 10 11 11 11 11 11 10 9 9 8
1 2 3 2 1 1 1 3 1 1 3 3 2 1 2 2 2 3 1 3 6 5 5 5 5 5 5 5 4 5 5 4 3 5 5 6 7 9 11 11 11 10 10 10 11 10 10 9 9 9 9 8 7 7

GFSWCAN_850_spd_132.txt.gz
Wind_Speed
53 54 53 50 49 46 44 44 42 40 40 40 41 39 37 37 39 38 31 30 27 10 4 4 13 6 16 20 4 7 8 4 3 5 4 4 4 5 3 5 7 7 7 3 4 5 8 9 7 6 4 1 7 14
50 55 60 57 53 52 49 46 44 41 41 39 43 39 39 38 40 39 26 26 25 17 6 11 12 13 14 22 27 21 7 9 12 4 3 3 1 1 4 3 2 3 7 6 9 7 1 22 5 14 6 4 8 14
37 43 53 60 61 56 53 53 48 45 42 38 38 40 36 37 35 36 28 26 22 21 18 27 23 11 11 15 18 14 9 9 10 7 7 3 2 3 4 5 4 2 5 3 2 5 7 14 18 13 11 10 9 13
21 30 42 52 60 60 57 54 52 49 44 42 39 39 35 33 33 34 29 28 28 8 4 7 10 24 25 21 20 25 14 16 10 11 4 3 3 9 3 3 4 5 7 5 4 6 8 19 21 20 17 12 11 14
19 26 35 46 57 60 61 57 53 49 46 44 41 38 37 34 33 32 30 29 29 16 5 9 12 18 14 17 20 27 25 15 14 4 2 4 4 3 1 1 4 8 6 5 7 6 6 1 3 16 18 16 14 18
10 21 32 46 53 60 60 60 54 51 46 43 43 40 38 37 34 33 13 27 30 30 5 2 6 21 21 15 17 22 24 19 12 5 3 4 5 7 2 3 6 19 16 17 4 5 9 2 2 5 11 12 14 17
13 17 41 47 54 59 61 59 56 51 47 44 41 38 37 36 38 20 7 7 33 25 6 3 3 4 12 18 12 13 13 8 8 7 7 7 6 12 2 3 4 11 17 13 10 6 5 9 4 7 10 11 12 15
39 40 48 51 53 55 59 57 57 52 46 45 42 37 34 36 28 20 5 8 35 22 6 2 3 2 12 5 4 7 8 9 7 5 4 3 7 4 3 6 4 7 9 10 10 10 7 5 8 9 12 13 13 15
50 52 53 52 55 54 55 54 56 53 49 42 41 37 33 31 13 17 9 31 34 10 5 4 3 2 6 5 5 4 5 2 4 2 2 6 1 4 6 7 10 13 8 6 12 8 5 5 6 9 12 14 14 16
47 52 53 53 52 52 54 53 55 52 49 44 43 28 7 24 17 21 22 16 11 10 4 2 4 3 6 2 2 3 2 2 2 3 8 3 3 14 9 9 6 8 13 9 11 5 7 7 9 12 13 14 15 16
52 51 52 51 51 52 55 57 56 55 51 42 14 5 26 31 21 8 6 6 6 4 9 6 11 3 7 2 2 5 3 2 3 2 4 2 3 4 8 8 5 8 11 7 5 2 3 3 8 12 14 15 15 16
52 53 53 55 58 60 59 58 59 55 33 15 21 34 25 10 6 3 3 4 4 5 7 6 9 8 7 5 3 1 1 2 3 2 2 3 3 3 7 6 6 8 9 7 4 2 2 3 7 10 15 15 16 16
53 55 56 57 56 56 55 52 47 29 26 41 17 7 6 3 4 5 5 3 1 6 9 11 5 5 4 3 4 2 3 3 4 2 3 4 1 10 9 7 10 11 8 6 5 3 2 5 5 10 13 15 14 15
46 48 51 53 55 53 40 30 29 35 27 4 4 3 2 2 3 3 3 3 3 6 20 21 6 3 3 3 1 4 2 2 2 0 5 2 8 12 12 10 9 8 5 4 3 4 4 4 4 5 8 10 13 14
38 42 42 33 32 27 36 19 12 8 2 3 4 2 0 2 1 2 2 2 4 25 30 11 7 3 2 3 1 3 2 2 5 4 3 3 12 11 9 8 6 5 5 4 6 7 5 5 4 5 8 10 10 11
25 31 27 23 23 16 10 7 6 4 4 3 5 2 3 1 2 3 4 6 19 26 20 6 3 3 1 4 3 4 6 5 3 1 1 7 10 9 8 8 6 6 2 2 6 4 5 5 4 7 10 11 11 11
21 18 19 16 17 10 2 0 4 6 5 4 3 5 4 6 4 2 7 12 23 16 2 2 3 2 2 2 1 3 4 3 4 7 7 6 8 6 6 6 7 5 1 3 3 4 5 4 6 8 11 12 12 13
19 19 22 19 6 2 3 7 5 5 5 7 3 7 10 6 7 9 11 13 11 5 2 2 5 3 3 3 2 1 4 7 9 6 6 5 6 5 5 6 7 4 4 4 4 4 4 5 6 8 9 11 13 14
13 15 15 13 8 2 4 6 6 4 7 4 6 7 7 10 14 14 14 12 11 11 7 4 4 2 1 1 1 4 8 6 6 5 6 6 6 6 7 7 6 5 4 4 5 5 5 5 5 6 8 10 14 15
7 6 8 7 5 4 4 4 4 5 3 3 7 9 6 7 9 14 14 11 10 6 6 3 2 2 2 2 4 8 7 6 10 9 8 7 6 7 8 6 5 5 5 6 5 4 4 5 6 6 7 9 11 13
5 6 9 9 9 9 6 4 5 4 5 4 5 4 5 8 8 11 10 9 8 4 2 5 9 9 7 7 9 9 9 10 9 5 7 8 7 6 6 5 4 4 4 4 4 3 3 4 4 6 7 8 9 10
5 6 6 7 6 5 6 6 5 4 3 2 3 4 5 3 5 7 4 8 4 4 4 11 12 11 10 10 8 7 6 4 3 5 4 7 8 6 5 4 4 4 3 4 4 3 2 4 5 5 7 9 10 11
4 4 5 5 5 4 3 3 3 3 3 1 2 3 3 2 4 3 4 4 4 7 12 11 8 7 7 8 7 9 9 7 7 8 7 7 5 3 3 2 3 3 4 4 4 5 4 5 6 6 8 11 13 14
6 5 5 5 6 1 3 3 3 3 3 2 2 2 2 2 4 4 3 3 7 10 9 10 6 7 7 7 6 6 6 6 5 6 6 5 4 5 4 2 1 0 3 2 3 5 7 6 8 8 9 11 14 14
4 8 5 5 5 4 4 3 4 3 2 1 3 2 2 3 2 2 2 3 9 9 6 7 6 4 5 5 3 3 2 1 2 2 2 1 1 1 0 1 1 2 3 3 3 3 4 8 10 10 10 10 12 14
6 7 3 0 3 3 2 2 1 3 3 2 1 1 2 2 3 2 2 3 7 5 4 4 4 3 2 1 2 0 2 1 1 1 1 1 2 3 2 3 3 4 4 4 4 5 4 7 10 11 10 11 12 12
4 3 4 5 0 2 4 4 3 4 3 2 1 2 3 3 2 2 5 5 3 2 5 5 4 4 3 2 2 3 3 3 4 4 5 3 4 5 5 6 5 6 5 6 6 6 5 7 10 11 10 11 12 11
4 6 3 7 5 5 4 2 2 2 2 2 2 3 4 4 2 2 3 2 4 4 6 5 3 3 3 2 3 5 3 3 2 2 1 2 4 4 5 7 6 5 4 7 8 7 7 6 9 11 10 10 11 12
4 8 3 5 4 5 5 2 1 2 2 2 3 2 2 2 6 6 5 3 6 7 6 4 3 1 1 3 4 5 2 3 2 2 3 4 6 2 2 5 5 5 4 5 8 8 8 7 8 10 10 9 10 11
5 8 2 2 3 2 4 5 2 1 3 4 3 4 4 4 6 6 6 5 6 5 3 3 3 2 2 2 3 4 2 2 1 1 1 3 5 4 1 3 4 4 4 5 9 10 9 9 10 11 11 11 12 15
4 5 3 4 3 3 3 2 2 2 2 2 2 2 4 6 7 8 8 8 9 9 9 9 8 8 8 7 6 5 4 3 3 5 6 5 4 2 1 4 6 7 7 7 7 8 9 10 11 11 11 13 14 13
4 4 2 2 1 2 1 1 1 1 2 3 3 3 4 4 4 4 6 7 7 5 6 9 10 10 10 10 8 7 6 6 5 6 2 3 3 3 5 7 8 8 8 8 8 9 9 10 11 12 13 13 13 12
2 2 2 1 1 2 1 1 1 2 1 1 1 3 4 4 3 5 4 6 6 5 5 4 3 5 4 4 4 4 4 5 4 3 5 5 5 7 8 9 8 8 8 9 10 10 11 11 12 12 12 11 10 9

GFSWCAN_850_spd_135.txt.gz
Wind_Speed
49 49 47 47 43 41 38 37 35 37 38 37 37 35 33 32 34 30 34 38 29 9 11 12 11 7 13 18 5 8 8 6 3 7 6 4 4 7 4 4 7 9 9 5 5 5 10 10 9 7 4 5 6 11
42 51 51 48 47 44 41 38 36 35 36 36 36 34 33 34 30 45 33 34 24 15 7 11 12 12 10 11 19 18 7 9 13 4 3 3 3 3 6 6 3 5 6 6 10 7 2 23 9 22 6 6 8 11
35 46 51 52 50 46 42 40 37 36 35 34 34 34 33 33 30 23 37 30 23 9 3 6 10 7 13 11 10 9 9 9 9 8 6 2 4 4 5 5 5 4 5 3 2 6 11 14 24 14 15 13 10 10
19 30 45 53 52 49 45 41 38 37 35 35 35 34 35 31 38 30 28 30 21 10 3 4 3 18 22 14 9 13 14 7 8 10 4 3 3 7 4 1 5 4 9 6 5 7 6 18 21 25 24 18 15 13
23 23 39 48 55 52 45 44 40 37 34 31 29 42 34 34 33 25 24 20 19 7 6 2 8 14 11 13 11 17 21 14 11 6 3 3 3 3 2 0 5 8 6 6 7 10 6 5 5 7 20 20 16 15
26 30 30 46 51 56 50 45 43 37 34 29 26 36 34 31 30 26 8 16 20 19 3 2 2 10 22 13 8 13 17 20 11 6 4 5 4 7 4 4 6 23 24 22 10 7 9 5 3 3 8 12 13 14
31 33 35 41 52 56 51 46 44 40 35 31 28 34 31 32 31 17 10 11 27 18 3 3 4 3 11 19 19 19 17 11 9 8 7 6 5 9 2 4 5 11 18 18 13 8 5 8 4 5 7 9 10 12
38 41 44 45 51 54 52 46 44 41 36 33 30 35 28 25 24 9 5 13 29 14 5 2 2 3 11 8 6 13 9 7 9 6 6 4 6 4 4 9 10 8 10 12 12 11 8 5 5 7 8 9 11 12
43 46 47 51 54 54 50 47 44 41 37 37 33 28 24 20 12 18 7 27 23 6 7 3 3 3 6 6 3 3 5 2 5 3 5 8 3 5 7 10 13 15 10 8 12 9 7 7 7 8 9 11 12 13
47 51 52 54 52 52 50 48 46 44 41 39 36 22 7 18 19 25 18 11 8 5 3 3 3 2 4 2 2 4 3 3 3 3 9 4 3 15 10 10 7 11 14 12 13 8 10 10 9 10 11 10 11 12
49 50 53 53 52 51 50 48 49 48 45 36 11 5 24 28 16 5 6 6 7 4 7 7 9 3 7 2 1 3 2 2 3 3 3 3 3 4 11 13 10 10 14 12 6 4 5 5 6 9 9 10 11 12
50 50 51 52 50 51 51 48 50 47 26 21 15 27 23 6 4 4 4 5 5 6 10 7 7 7 6 5 2 3 2 1 3 4 3 2 2 2 6 7 8 11 14 12 6 3 4 3 3 5 6 9 11 12
49 50 51 50 51 53 53 50 47 28 31 32 14 7 7 5 5 4 6 3 3 6 10 8 4 7 5 5 3 2 4 3 6 2 3 2 2 8 9 10 12 13 11 9 6 4 2 3 3 5 6 8 8 10
51 52 52 52 52 51 48 36 29 28 9 3 4 4 4 3 4 4 2 3 2 7 21 21 5 3 4 2 1 3 1 2 2 2 4 0 7 12 12 13 14 12 9 8 5 3 3 5 4 6 6 6 8 9
46 46 46 45 46 37 25 26 25 15 2 3 2 2 3 4 1 1 2 4 3 22 28 10 6 3 1 3 1 3 3 3 4 3 1 3 14 15 11 10 8 9 6 5 7 8 6 5 5 7 7 7 8 8
33 32 30 30 25 23 22 12 10 8 3 2 3 2 1 3 3 5 5 4 16 24 18 6 2 2 1 3 3 4 5 4 1 1 3 9 13 11 9 9 7 6 4 5 9 8 6 7 6 6 8 8 8 7
20 19 33 29 19 19 10 2 3 2 2 1 2 3 2 3 2 3 6 8 24 14 2 2 3 3 3 2 2 2 2 0 3 5 6 8 12 10 8 9 8 7 4 5 7 7 8 8 8 9 10 10 10 8
13 12 12 9 11 7 4 2 2 3 3 4 2 5 4 4 3 4 6 18 13 6 3 2 5 2 2 3 2 2 3 5 8 8 7 8 9 10 7 7 9 7 6 6 6 7 7 7 8 9 9 10 11 12
16 13 12 10 5 4 2 2 2 3 3 2 4 5 5 7 11 13 14 14 11 10 11 4 3 2 1 1 0 3 10 7 8 6 5 5 5 6 8 8 9 7 6 6 7 7 7 8 7 8 8 10 12 13
12 15 15 11 7 2 3 3 3 4 2 3 5 6 4 5 8 10 14 13 6 4 5 3 2 1 1 3 4 6 8 7 9 10 8 7 7 8 9 10 8 7 8 8 8 7 7 7 7 7 8 9 11 13
6 8 9 7 3 5 4 3 4 3 4 3 3 4 5 7 6 7 7 5 5 4 2 4 8 10 7 9 8 7 9 10 9 8 9 10 9 9 9 8 7 6 6 7 7 7 7 6 6 7 8 9 10 10
5 6 5 4 4 4 5 5 4 4 3 3 2 3 4 2 3 5 4 7 4 4 5 13 13 12 11 10 9 8 7 5 4 6 9 9 10 9 8 7 6 6 6 7 7 6 7 7 7 8 9 10 11 12
6 4 4 4 4 3 2 2 2 2 2 1 2 2 2 2 2 2 4 3 3 8 15 13 11 10 10 10 10 9 8 6 6 6 8 8 7 6 6 5 6 6 6 6 7 7 7 7 8 8 9 11 12 14
5 4 4 3 4 1 2 2 2 3 2 2 2 2 0 0 1 4 3 2 4 11 13 13 10 11 10 9 8 7 7 5 8 9 8 7 5 6 4 4 3 3 4 5 7 7 8 8 8 9 10 12 14 15
3 7 4 4 4 4 4 3 3 3 2 1 2 0 2 2 2 2 2 4 11 13 13 12 9 7 7 7 6 5 3 4 4 4 4 4 3 4 4 4 3 3 3 4 4 5 6 9 10 10 10 11 13 16
5 6 3 1 2 3 2 2 1 3 3 2 1 0 1 1 2 3 2 7 11 12 10 10 10 9 7 6 6 4 3 3 5 4 3 3 4 5 5 6 6 5 4 5 5 5 5 7 10 11 11 12 13 14
4 3 3 4 0 2 3 3 3 3 2 2 2 2 2 3 3 2 5 7 9 10 7 6 6 6 6 6 5 4 3 3 4 6 6 6 6 7 6 6 6 7 6 5 8 7 5 6 10 11 11 12 12 12
4 6 2 6 4 5 3 2 2 1 2 2 2 2 4 6 3 4 4 7 6 5 7 7 6 6 6 5 5 5 4 5 5 4 3 3 4 5 7 8 8 7 7 7 9 8 8 7 9 11 11 12 13 13
4 8 2 5 3 4 4 1 1 1 1 1 2 2 2 2 7 9 9 5 6 8 9 8 6 5 4 2 0 2 2 6 5 5 4 1 1 2 3 6 6 6 5 5 8 10 10 9 10 11 11 11 12 13
6 9 2 1 3 1 2 4 1 1 2 2 3 3 3 4 8 8 8 9 10 10 9 7 6 5 4 3 2 1 1 4 4 3 3 2 2 2 2 4 5 5 5 6 9 11 12 11 12 13 12 12 12 13
6 6 2 4 2 2 2 2 1 2 3 2 2 3 4 5 7 9 10 10 11 11 10 9 9 8 9 8 7 5 4 4 4 4 5 6 4 2 1 2 4 6 6 7 8 9 10 11 12 13 13 12 13 15
4 4 1 1 1 1 2 1 1 2 3 5 5 5 6 5 5 6 11 15 14 13 14 15 15 14 13 12 11 9 8 7 6 4 4 4 5 4 4 5 6 7 8 8 8 8 9 10 12 12 13 15 15 14
2 1 2 2 1 1 2 1 1 2 2 2 4 5 6 5 4 6 7 10 11 10 8 7 6 7 6 6 7 7 7 7 7 4 5 6 5 6 7 7 8 8 8 8 9 10 11 11 13 14 14 15 14 13

GFSWCAN_850_spd_138.txt.gz
Wind_Speed
37 46 43 44 42 39 38 36 34 32 31 29 29 28 27 28 28 32 30 25 22 12 5 12 13 13 17 21 12 14 11 10 10 11 9 7 8 9 10 8 9 11 9 7 9 7 12 13 12 7 3 4 6 9
43 42 46 44 43 40 39 36 34 32 31 32 33 29 28 26 28 32 22 22 20 12 5 9 12 13 16 20 21 19 13 13 15 8 8 6 6 6 11 11 13 9 9 7 8 8 3 21 10 18 6 8 9 10
28 41 46 46 44 42 38 36 33 31 29 31 29 30 28 26 28 27 28 23 25 8 6 7 9 13 12 17 19 16 13 9 10 16 8 7 7 8 9 11 11 9 11 6 5 8 14 14 18 12 13 15 9 9
25 34 47 49 46 42 39 35 32 32 31 32 31 30 29 28 29 28 24 35 28 12 3 6 9 11 12 16 14 16 5 5 5 11 11 5 6 7 7 9 10 8 9 9 14 10 14 14 18 18 17 15 14 12
22 28 44 49 49 44 40 36 33 31 30 30 30 31 30 28 28 23 31 28 26 15 8 7 9 12 17 14 7 12 11 11 8 8 6 8 9 4 2 3 9 9 8 9 9 11 13 11 7 9 12 15 15 15
27 28 38 48 47 46 41 38 34 32 31 31 32 32 32 32 31 28 10 24 24 16 5 4 5 11 18 16 11 13 12 13 16 7 8 9 4 7 4 5 12 23 20 24 22 9 8 8 6 5 6 9 11 13
31 29 40 50 48 48 43 37 35 32 31 29 30 34 35 38 39 13 7 22 27 18 3 2 3 5 16 18 17 13 9 10 10 6 5 5 9 9 3 12 6 11 19 16 12 9 6 11 5 9 9 9 11 10
34 39 45 52 50 49 42 38 34 31 27 28 34 34 39 33 18 13 11 31 25 10 4 2 3 4 15 11 16 12 7 13 13 8 7 7 6 3 5 9 19 17 9 10 12 11 7 6 7 8 8 8 9 9
36 48 52 53 53 47 43 39 36 31 25 40 43 38 32 17 7 6 19 30 20 5 6 4 4 4 10 6 6 8 9 4 5 4 4 7 4 7 9 14 14 15 11 7 11 9 8 8 8 8 8 9 9 9
48 54 54 55 51 46 44 39 36 31 41 42 36 13 7 9 20 31 19 6 6 4 3 3 4 3 7 2 4 5 5 2 4 3 7 5 6 16 12 11 9 13 13 12 13 10 11 10 10 10 10 8 8 9
52 51 53 52 48 44 43 41 39 40 39 21 7 6 20 21 18 4 6 7 6 3 7 7 10 4 3 4 2 4 3 4 4 4 5 5 4 10 15 14 9 11 14 13 7 5 8 6 9 9 10 9 9 9
49 51 50 48 46 46 43 42 41 32 15 10 18 22 22 4 3 2 4 4 4 5 9 10 10 7 5 4 4 3 2 2 3 7 3 3 3 4 6 8 9 11 13 12 7 5 5 5 5 6 7 7 9 10
48 50 48 48 49 46 44 43 30 22 26 18 6 6 6 3 4 4 8 4 5 8 11 14 6 6 4 3 1 2 5 3 6 4 3 1 4 6 7 9 11 12 12 10 7 5 4 5 4 5 5 6 6 7
46 46 44 45 46 43 42 27 29 19 2 4 3 4 3 4 4 4 3 1 2 5 18 19 8 3 4 4 2 3 1 3 3 3 4 2 6 8 8 9 12 12 11 9 8 6 5 5 4 6 6 6 5 6
41 41 39 40 40 34 22 27 20 9 5 2 1 1 4 3 2 3 1 1 2 15 21 11 5 4 3 2 2 3 3 3 4 3 2 5 10 12 13 13 12 11 10 9 8 7 5 5 4 5 6 6 6 5
39 39 37 35 24 18 19 6 12 7 6 3 2 2 2 3 3 4 5 3 10 19 13 5 3 3 2 3 4 5 3 4 2 2 3 9 15 12 12 9 10 9 7 5 7 8 6 5 5 6 7 7 6 5
23 19 27 14 14 10 8 8 5 3 1 2 1 3 2 3 2 4 6 5 14 11 2 2 3 2 3 3 3 2 1 2 3 3 6 10 14 13 11 10 9 8 5 3 6 7 6 7 7 8 8 9 8 6
13 23 23 21 19 15 4 4 3 2 2 1 2 1 1 3 2 4 5 10 9 5 3 2 4 3 2 3 3 3 3 4 5 6 6 8 11 12 10 10 10 7 5 4 5 5 6 7 8 8 10 10 10 9
12 12 12 14 10 9 3 4 3 3 1 1 1 0 1 2 3 3 8 16 10 6 8 2 2 2 2 1 1 3 7 7 8 6 6 8 9 9 9 8 8 7 5 4 5 5 6 7 7 8 10 10 9 11
16 13 11 11 12 5 3 1 1 0 1 0 2 2 2 3 5 10 14 11 7 4 3 2 1 2 0 2 3 4 8 9 8 7 5 6 7 8 8 8 8 7 6 6 7 7 7 7 8 8 8 9 10 11
13 13 12 9 7 5 2 2 1 1 1 1 1 2 2 5 4 5 5 5 5 3 2 2 5 5 6 7 7 6 6 7 8 7 7 7 9 9 9 8 7 7 6 7 7 8 8 6 8 9 9 9 10 10
8 11 8 7 3 2 2 1 2 2 1 2 2 2 3 2 2 3 3 4 2 1 3 7 8 10 10 10 10 9 9 8 6 8 8 8 9 9 8 8 8 7 7 8 9 9 9 9 9 9 10 11 11 11
9 7 4 3 3 2 2 3 1 1 1 1 1 2 2 2 2 3 3 2 2 6 9 11 11 10 10 9 8 7 7 6 5 7 9 9 8 8 7 7 7 7 8 8 10 10 10 10 10 10 10 11 12 12
6 3 2 2 2 2 2 1 1 2 1 1 1 2 1 1 1 1 2 3 5 14 12 14 13 14 13 11 8 7 6 5 7 8 8 7 6 6 7 6 6 6 7 8 9 10 11 10 10 11 11 12 13 13
3 5 3 3 3 1 1 1 0 1 2 1 2 2 2 1 2 2 3 5 8 10 13 14 12 10 9 9 9 7 5 5 5 5 6 6 5 5 5 6 6 6 6 7 8 9 10 11 11 12 12 13 13 14
5 4 3 3 2 1 0 1 2 2 2 2 2 1 1 2 3 3 3 8 9 12 14 14 12 11 8 7 7 6 6 6 6 6 6 6 6 7 7 7 7 8 7 8 8 8 9 9 11 12 12 12 13 14
3 3 2 3 1 1 1 1 1 0 1 2 3 3 3 3 4 2 3 7 7 13 13 12 12 10 9 9 9 8 7 7 8 8 9 9 9 10 10 9 9 11 9 9 9 10 9 8 10 12 12 12 13 13
3 3 2 4 2 3 1 1 0 1 1 1 2 3 2 2 1 3 3 8 12 12 10 8 8 8 8 9 8 8 9 9 9 8 8 7 7 9 11 12 12 11 10 9 9 11 11 9 9 12 12 12 14 14
2 3 1 2 0 1 2 1 0 1 0 2 2 2 1 1 5 5 10 11 9 8 8 9 10 9 9 8 8 6 6 8 9 8 7 5 4 5 6 8 9 9 8 7 9 11 11 11 10 12 12 12 14 14
1 3 1 2 1 1 1 1 1 1 1 1 1 1 1 1 6 10 9 9 9 10 12 11 11 9 9 8 7 5 3 7 9 6 5 5 5 5 5 6 7 7 7 8 9 11 12 13 12 13 13 13 15 16
4 2 1 1 1 1 0 2 1 2 3 2 3 3 1 3 6 10 12 13 14 14 13 12 12 12 12 11 9 7 6 6 7 7 7 8 8 6 4 4 5 6 7 8 9 10 13 14 14 15 15 14 14 15
2 2 2 2 2 3 3 2 2 3 3 4 5 6 4 3 4 5 14 20 19 18 18 17 15 15 14 14 13 12 11 9 8 7 6 6 7 6 5 5 6 6 7 9 10 11 11 12 14 15 15 14 15 16
2 2 3 3 2 2 2 2 2 2 4 4 4 5 6 4 5 6 7 16 21 19 18 16 15 15 14 14 13 12 12 10 9 8 7 6 7 6 6 7 7 8 9 9 9 10 10 11 13 14 14 16 16 15